<?xml version='1.0' encoding='UTF-8'?><gpx version="1.1" creator="JPX - https://github.com/jenetics/jpx" xmlns="http://www.topografix.com/GPX/1/1"><trk><trkseg><trkpt lat="44.76778781173789" lon="8.510320605448728"><ele>180.0</ele><time>2026-05-02T09:21:17Z</time></trkpt><trkpt lat="44.76783412862937" lon="8.510250130095832"><ele>180.0</ele><time>2026-05-02T09:21:18Z</time></trkpt><trkpt lat="44.76788296671812" lon="8.510175963577613"><ele>180.0</ele><time>2026-05-02T09:21:19Z</time></trkpt><trkpt lat="44.76791612695517" lon="8.510075462974333"><ele>180.0</ele><time>2026-05-02T09:21:20Z</time></trkpt><trkpt lat="44.767956117243514" lon="8.510002703544464"><ele>180.0</ele><time>2026-05-02T09:21:21Z</time></trkpt><trkpt lat="44.767996649174535" lon="8.509898255178397"><ele>180.0</ele><time>2026-05-02T09:21:22Z</time></trkpt><trkpt lat="44.768052909863854" lon="8.509793111624418"><ele>180.0</ele><time>2026-05-02T09:21:23Z</time></trkpt><trkpt lat="44.768091439117605" lon="8.5096578724469"><ele>180.0</ele><time>2026-05-02T09:21:24Z</time></trkpt><trkpt lat="44.76814601538148" lon="8.509511849951627"><ele>180.0</ele><time>2026-05-02T09:21:25Z</time></trkpt><trkpt lat="44.768184596900205" lon="8.509366241026472"><ele>180.0</ele><time>2026-05-02T09:21:26Z</time></trkpt><trkpt lat="44.76823331649246" lon="8.509218615559586"><ele>180.0</ele><time>2026-05-02T09:21:27Z</time></trkpt><trkpt lat="44.76827423542147" lon="8.509083592588803"><ele>181.33333333333334</ele><time>2026-05-02T09:21:28Z</time></trkpt><trkpt lat="44.76830045288042" lon="8.508982391554094"><ele>182.66666666666666</ele><time>2026-05-02T09:21:29Z</time></trkpt><trkpt lat="44.76834354293766" lon="8.508869109861342"><ele>184.0</ele><time>2026-05-02T09:21:30Z</time></trkpt><trkpt lat="44.768390312438115" lon="8.508775866434059"><ele>185.33333333333331</ele><time>2026-05-02T09:21:31Z</time></trkpt><trkpt lat="44.768405303186825" lon="8.508665587126089"><ele>186.66666666666666</ele><time>2026-05-02T09:21:32Z</time></trkpt><trkpt lat="44.768403674362965" lon="8.508533722346186"><ele>188.0</ele><time>2026-05-02T09:21:33Z</time></trkpt><trkpt lat="44.76836270451973" lon="8.508411142795874"><ele>188.0</ele><time>2026-05-02T09:21:34Z</time></trkpt><trkpt lat="44.76835407086055" lon="8.508303727036811"><ele>188.0</ele><time>2026-05-02T09:21:35Z</time></trkpt><trkpt lat="44.76837191720771" lon="8.508189683644094"><ele>188.0</ele><time>2026-05-02T09:21:36Z</time></trkpt><trkpt lat="44.76843091102762" lon="8.508120226039884"><ele>188.0</ele><time>2026-05-02T09:21:37Z</time></trkpt><trkpt lat="44.76850512166914" lon="8.508033823195973"><ele>188.0</ele><time>2026-05-02T09:21:38Z</time></trkpt><trkpt lat="44.768569379702946" lon="8.50792582439686"><ele>188.0</ele><time>2026-05-02T09:21:39Z</time></trkpt><trkpt lat="44.76862582985044" lon="8.507786645479747"><ele>187.75</ele><time>2026-05-02T09:21:40Z</time></trkpt><trkpt lat="44.7686778014683" lon="8.507628762153818"><ele>187.5</ele><time>2026-05-02T09:21:41Z</time></trkpt><trkpt lat="44.76874574837035" lon="8.507483438869293"><ele>187.25</ele><time>2026-05-02T09:21:42Z</time></trkpt><trkpt lat="44.76881685806064" lon="8.507350213305697"><ele>187.0</ele><time>2026-05-02T09:21:43Z</time></trkpt><trkpt lat="44.76889445445691" lon="8.507226338896187"><ele>187.0</ele><time>2026-05-02T09:21:44Z</time></trkpt><trkpt lat="44.76896966026885" lon="8.50707908132651"><ele>187.0</ele><time>2026-05-02T09:21:45Z</time></trkpt><trkpt lat="44.76903848355819" lon="8.506933843803914"><ele>187.0</ele><time>2026-05-02T09:21:46Z</time></trkpt><trkpt lat="44.76910008673426" lon="8.50677506776189"><ele>187.0</ele><time>2026-05-02T09:21:47Z</time></trkpt><trkpt lat="44.76916740183851" lon="8.506604339393459"><ele>187.75</ele><time>2026-05-02T09:21:48Z</time></trkpt><trkpt lat="44.76923422985101" lon="8.50641966719368"><ele>188.5</ele><time>2026-05-02T09:21:49Z</time></trkpt><trkpt lat="44.769287370902695" lon="8.506264544495465"><ele>189.25</ele><time>2026-05-02T09:21:50Z</time></trkpt><trkpt lat="44.769347638370526" lon="8.506107041643675"><ele>190.0</ele><time>2026-05-02T09:21:51Z</time></trkpt><trkpt lat="44.769400014365246" lon="8.505950126563281"><ele>190.75</ele><time>2026-05-02T09:21:52Z</time></trkpt><trkpt lat="44.769442673507825" lon="8.505785991043087"><ele>191.5</ele><time>2026-05-02T09:21:53Z</time></trkpt><trkpt lat="44.769483687943435" lon="8.505624650294433"><ele>192.25</ele><time>2026-05-02T09:21:54Z</time></trkpt><trkpt lat="44.76952835583581" lon="8.505454336856568"><ele>193.0</ele><time>2026-05-02T09:21:55Z</time></trkpt><trkpt lat="44.76956309445373" lon="8.50532267444968"><ele>193.0</ele><time>2026-05-02T09:21:56Z</time></trkpt><trkpt lat="44.76958828494059" lon="8.505179263842711"><ele>193.0</ele><time>2026-05-02T09:21:57Z</time></trkpt><trkpt lat="44.76960643078471" lon="8.505027026208976"><ele>193.0</ele><time>2026-05-02T09:21:58Z</time></trkpt><trkpt lat="44.76963700910817" lon="8.504858397357738"><ele>193.0</ele><time>2026-05-02T09:21:59Z</time></trkpt><trkpt lat="44.7696749029777" lon="8.504699750588385"><ele>193.0</ele><time>2026-05-02T09:22:00Z</time></trkpt><trkpt lat="44.769708039162126" lon="8.504536336300879"><ele>193.0</ele><time>2026-05-02T09:22:01Z</time></trkpt><trkpt lat="44.76974111483614" lon="8.504374461101326"><ele>193.0</ele><time>2026-05-02T09:22:02Z</time></trkpt><trkpt lat="44.769770067852484" lon="8.504222220787694"><ele>193.0</ele><time>2026-05-02T09:22:03Z</time></trkpt><trkpt lat="44.76979741847102" lon="8.504055031639325"><ele>193.0</ele><time>2026-05-02T09:22:04Z</time></trkpt><trkpt lat="44.76982409600258" lon="8.503880902113549"><ele>193.0</ele><time>2026-05-02T09:22:05Z</time></trkpt><trkpt lat="44.76984812355618" lon="8.503720511439417"><ele>193.0</ele><time>2026-05-02T09:22:06Z</time></trkpt><trkpt lat="44.76986507407919" lon="8.503586587369112"><ele>193.0</ele><time>2026-05-02T09:22:07Z</time></trkpt><trkpt lat="44.76988937286912" lon="8.503457363030282"><ele>193.0</ele><time>2026-05-02T09:22:08Z</time></trkpt><trkpt lat="44.769905756622485" lon="8.503346199372533"><ele>193.2</ele><time>2026-05-02T09:22:09Z</time></trkpt><trkpt lat="44.769918102585244" lon="8.50324377525025"><ele>193.4</ele><time>2026-05-02T09:22:10Z</time></trkpt><trkpt lat="44.76992106496494" lon="8.503135051824685"><ele>193.6</ele><time>2026-05-02T09:22:11Z</time></trkpt><trkpt lat="44.769883422809" lon="8.503013504508555"><ele>193.79999999999998</ele><time>2026-05-02T09:22:12Z</time></trkpt><trkpt lat="44.769839212533874" lon="8.50290104863442"><ele>194.0</ele><time>2026-05-02T09:22:13Z</time></trkpt><trkpt lat="44.769805414604065" lon="8.50274579748545"><ele>193.6</ele><time>2026-05-02T09:22:14Z</time></trkpt><trkpt lat="44.76976563317749" lon="8.502603027683422"><ele>193.2</ele><time>2026-05-02T09:22:15Z</time></trkpt><trkpt lat="44.76973787125037" lon="8.502467544295152"><ele>192.79999999999998</ele><time>2026-05-02T09:22:16Z</time></trkpt><trkpt lat="44.769709030034115" lon="8.50234465782457"><ele>192.39999999999998</ele><time>2026-05-02T09:22:17.001Z</time></trkpt><trkpt lat="44.7696710163629" lon="8.502216087712446"><ele>192.0</ele><time>2026-05-02T09:22:18.001Z</time></trkpt><trkpt lat="44.76962258211203" lon="8.50210699098349"><ele>192.0</ele><time>2026-05-02T09:22:19.001Z</time></trkpt><trkpt lat="44.76956527767636" lon="8.501991362704056"><ele>192.0</ele><time>2026-05-02T09:22:20.001Z</time></trkpt><trkpt lat="44.76950199484451" lon="8.501883582224611"><ele>192.0</ele><time>2026-05-02T09:22:21.001Z</time></trkpt><trkpt lat="44.76944674022026" lon="8.50180519005048"><ele>192.0</ele><time>2026-05-02T09:22:22.001Z</time></trkpt><trkpt lat="44.76939003573248" lon="8.501750013579572"><ele>192.0</ele><time>2026-05-02T09:22:23.001Z</time></trkpt><trkpt lat="44.76933318325747" lon="8.501710893565148"><ele>192.0</ele><time>2026-05-02T09:22:24.001Z</time></trkpt><trkpt lat="44.7692491105202" lon="8.5015698261871"><ele>193.6</ele><time>2026-05-02T09:22:26.001Z</time></trkpt><trkpt lat="44.76917996656201" lon="8.501410370890717"><ele>195.2</ele><time>2026-05-02T09:22:27.001Z</time></trkpt><trkpt lat="44.769110758375355" lon="8.501290225178156"><ele>196.8</ele><time>2026-05-02T09:22:28.001Z</time></trkpt><trkpt lat="44.769062740127644" lon="8.501180746862262"><ele>198.4</ele><time>2026-05-02T09:22:29.001Z</time></trkpt><trkpt lat="44.76902063974412" lon="8.50108653145379"><ele>200.0</ele><time>2026-05-02T09:22:30.001Z</time></trkpt><trkpt lat="44.768986063786706" lon="8.500959634177047"><ele>200.0</ele><time>2026-05-02T09:22:31.001Z</time></trkpt><trkpt lat="44.768944025426144" lon="8.500832249710832"><ele>200.0</ele><time>2026-05-02T09:22:32.001Z</time></trkpt><trkpt lat="44.768908234446734" lon="8.500711554986019"><ele>200.0</ele><time>2026-05-02T09:22:33.001Z</time></trkpt><trkpt lat="44.76885426807849" lon="8.500601962911693"><ele>200.0</ele><time>2026-05-02T09:22:34.001Z</time></trkpt><trkpt lat="44.768757095430566" lon="8.500427765917864"><ele>200.0</ele><time>2026-05-02T09:22:36.001Z</time></trkpt><trkpt lat="44.76871349425553" lon="8.500326377469483"><ele>200.00000000000003</ele><time>2026-05-02T09:22:37.001Z</time></trkpt><trkpt lat="44.768672371315944" lon="8.500228089195453"><ele>200.0</ele><time>2026-05-02T09:22:38.001Z</time></trkpt><trkpt lat="44.76863661956532" lon="8.500133966888038"><ele>200.0</ele><time>2026-05-02T09:22:39.001Z</time></trkpt><trkpt lat="44.768603513766934" lon="8.500048391456144"><ele>200.0</ele><time>2026-05-02T09:22:40.001Z</time></trkpt><trkpt lat="44.768550871886" lon="8.499951161288783"><ele>200.00000000000003</ele><time>2026-05-02T09:22:42.001Z</time></trkpt><trkpt lat="44.768500916976855" lon="8.499885346889354"><ele>200.0</ele><time>2026-05-02T09:23:16Z</time></trkpt><trkpt lat="44.76843788452572" lon="8.499923408010469"><ele>201.0</ele><time>2026-05-02T09:23:18Z</time></trkpt><trkpt lat="44.768345502013034" lon="8.500059462946602"><ele>202.0</ele><time>2026-05-02T09:23:20Z</time></trkpt><trkpt lat="44.76828399504508" lon="8.500117507369561"><ele>203.0</ele><time>2026-05-02T09:23:21Z</time></trkpt><trkpt lat="44.76820648150476" lon="8.500161244269085"><ele>204.0</ele><time>2026-05-02T09:23:22Z</time></trkpt><trkpt lat="44.768135916158414" lon="8.500233669459336"><ele>205.0</ele><time>2026-05-02T09:23:23Z</time></trkpt><trkpt lat="44.76807592993582" lon="8.500323891873217"><ele>204.99999999999997</ele><time>2026-05-02T09:23:24Z</time></trkpt><trkpt lat="44.76801185198243" lon="8.500390741259238"><ele>205.0</ele><time>2026-05-02T09:23:25Z</time></trkpt><trkpt lat="44.76794650460429" lon="8.50043702190835"><ele>205.0</ele><time>2026-05-02T09:23:26Z</time></trkpt><trkpt lat="44.76788297283992" lon="8.50049903029563"><ele>205.0</ele><time>2026-05-02T09:23:27Z</time></trkpt><trkpt lat="44.76781260884207" lon="8.500547623112999"><ele>204.99999999999997</ele><time>2026-05-02T09:23:28Z</time></trkpt><trkpt lat="44.76773572158466" lon="8.500612303117773"><ele>205.0</ele><time>2026-05-02T09:23:29Z</time></trkpt><trkpt lat="44.76767866488804" lon="8.50066515675108"><ele>206.66666666666666</ele><time>2026-05-02T09:23:30Z</time></trkpt><trkpt lat="44.767606356054166" lon="8.500757925368125"><ele>208.33333333333331</ele><time>2026-05-02T09:23:32Z</time></trkpt><trkpt lat="44.767544277103994" lon="8.500794840737397"><ele>210.0</ele><time>2026-05-02T09:23:36Z</time></trkpt><trkpt lat="44.76751172574088" lon="8.500715157257606"><ele>211.66666666666669</ele><time>2026-05-02T09:23:38Z</time></trkpt><trkpt lat="44.76746602335876" lon="8.50055125314796"><ele>213.33333333333334</ele><time>2026-05-02T09:23:40Z</time></trkpt><trkpt lat="44.767447144101695" lon="8.500458970634362"><ele>215.0</ele><time>2026-05-02T09:23:41Z</time></trkpt><trkpt lat="44.767417353708296" lon="8.500339535075938"><ele>215.4</ele><time>2026-05-02T09:23:42Z</time></trkpt><trkpt lat="44.76739558736403" lon="8.500199302544809"><ele>215.8</ele><time>2026-05-02T09:23:43Z</time></trkpt><trkpt lat="44.76735579215802" lon="8.50008767025974"><ele>216.2</ele><time>2026-05-02T09:23:47Z</time></trkpt><trkpt lat="44.76733152108579" lon="8.499955092060452"><ele>216.6</ele><time>2026-05-02T09:23:49Z</time></trkpt><trkpt lat="44.767306900025375" lon="8.499863273068991"><ele>217.0</ele><time>2026-05-02T09:23:50Z</time></trkpt><trkpt lat="44.767275128886915" lon="8.499722892462142"><ele>217.6</ele><time>2026-05-02T09:23:52Z</time></trkpt><trkpt lat="44.76723768090266" lon="8.499580016654942"><ele>218.2</ele><time>2026-05-02T09:23:53Z</time></trkpt><trkpt lat="44.767209502668386" lon="8.49949125351849"><ele>218.8</ele><time>2026-05-02T09:23:54Z</time></trkpt><trkpt lat="44.767179830015834" lon="8.499355197217783"><ele>219.4</ele><time>2026-05-02T09:23:55Z</time></trkpt><trkpt lat="44.767120386826576" lon="8.49913255268161"><ele>220.0</ele><time>2026-05-02T09:23:57Z</time></trkpt><trkpt lat="44.7670623205267" lon="8.499054802006485"><ele>220.0</ele><time>2026-05-02T09:23:58Z</time></trkpt><trkpt lat="44.76700962647703" lon="8.498963912058649"><ele>220.0</ele><time>2026-05-02T09:23:59Z</time></trkpt><trkpt lat="44.76691922144525" lon="8.498843752960852"><ele>220.0</ele><time>2026-05-02T09:24:01Z</time></trkpt><trkpt lat="44.76684577118261" lon="8.498710138971378"><ele>220.0</ele><time>2026-05-02T09:24:02Z</time></trkpt><trkpt lat="44.766754712617384" lon="8.498562569154515"><ele>221.2</ele><time>2026-05-02T09:24:03Z</time></trkpt><trkpt lat="44.766688811864576" lon="8.498470864167587"><ele>222.4</ele><time>2026-05-02T09:24:04Z</time></trkpt><trkpt lat="44.7666376686868" lon="8.498336098997045"><ele>223.60000000000002</ele><time>2026-05-02T09:24:05Z</time></trkpt><trkpt lat="44.766590097279796" lon="8.498198260711337"><ele>224.8</ele><time>2026-05-02T09:24:06Z</time></trkpt><trkpt lat="44.76654154325572" lon="8.498101585115979"><ele>226.0</ele><time>2026-05-02T09:24:07Z</time></trkpt><trkpt lat="44.76648504317978" lon="8.498044518018565"><ele>225.99999999999997</ele><time>2026-05-02T09:24:08Z</time></trkpt><trkpt lat="44.766418075915894" lon="8.49801238114833"><ele>226.0</ele><time>2026-05-02T09:24:09Z</time></trkpt><trkpt lat="44.76633128739743" lon="8.497979570708994"><ele>226.0</ele><time>2026-05-02T09:24:10Z</time></trkpt><trkpt lat="44.76625032973356" lon="8.497947212946086"><ele>226.0</ele><time>2026-05-02T09:24:11Z</time></trkpt><trkpt lat="44.76616192182794" lon="8.49789044549186"><ele>225.99999999999997</ele><time>2026-05-02T09:24:12Z</time></trkpt><trkpt lat="44.76609290564731" lon="8.49784519087792"><ele>226.0</ele><time>2026-05-02T09:24:13Z</time></trkpt><trkpt lat="44.76601740141944" lon="8.497809089224335"><ele>226.0</ele><time>2026-05-02T09:24:14Z</time></trkpt><trkpt lat="44.7659287835046" lon="8.497751121819142"><ele>226.00000000000003</ele><time>2026-05-02T09:24:15Z</time></trkpt><trkpt lat="44.765847712645574" lon="8.497687551585175"><ele>226.00000000000003</ele><time>2026-05-02T09:24:16Z</time></trkpt><trkpt lat="44.7657665035642" lon="8.497572734191285"><ele>226.0</ele><time>2026-05-02T09:24:17Z</time></trkpt><trkpt lat="44.76568887987414" lon="8.497468973061377"><ele>226.0</ele><time>2026-05-02T09:24:18Z</time></trkpt><trkpt lat="44.76561761349895" lon="8.497387949042688"><ele>226.0</ele><time>2026-05-02T09:24:19Z</time></trkpt><trkpt lat="44.76555209937499" lon="8.497295089438637"><ele>226.00000000000003</ele><time>2026-05-02T09:24:20Z</time></trkpt><trkpt lat="44.76548563770792" lon="8.497175993997509"><ele>226.00000000000003</ele><time>2026-05-02T09:24:21Z</time></trkpt><trkpt lat="44.76542687512014" lon="8.497127833520285"><ele>226.0</ele><time>2026-05-02T09:24:22Z</time></trkpt><trkpt lat="44.76538347953023" lon="8.497046346265655"><ele>226.0</ele><time>2026-05-02T09:24:23Z</time></trkpt><trkpt lat="44.76535941978381" lon="8.496871549986569"><ele>226.25</ele><time>2026-05-02T09:24:25Z</time></trkpt><trkpt lat="44.765271758218844" lon="8.49670551978667"><ele>226.5</ele><time>2026-05-02T09:24:27Z</time></trkpt><trkpt lat="44.76520052062861" lon="8.496544944677492"><ele>226.75</ele><time>2026-05-02T09:24:28Z</time></trkpt><trkpt lat="44.76515250230048" lon="8.496476534908245"><ele>227.0</ele><time>2026-05-02T09:24:29Z</time></trkpt><trkpt lat="44.76507727086922" lon="8.496368755304868"><ele>227.0</ele><time>2026-05-02T09:24:30Z</time></trkpt><trkpt lat="44.764988126027134" lon="8.496264295989782"><ele>227.0</ele><time>2026-05-02T09:24:31Z</time></trkpt><trkpt lat="44.764909384340186" lon="8.496193232422952"><ele>227.0</ele><time>2026-05-02T09:24:32Z</time></trkpt><trkpt lat="44.76483855150488" lon="8.496123809486242"><ele>227.0</ele><time>2026-05-02T09:24:33Z</time></trkpt><trkpt lat="44.764777086183614" lon="8.496069482233382"><ele>227.0</ele><time>2026-05-02T09:24:34Z</time></trkpt><trkpt lat="44.76467780676912" lon="8.496003026714765"><ele>228.0</ele><time>2026-05-02T09:24:36.001Z</time></trkpt><trkpt lat="44.76460919615535" lon="8.495922100871143"><ele>229.0</ele><time>2026-05-02T09:24:37.001Z</time></trkpt><trkpt lat="44.76456422352946" lon="8.495798807843988"><ele>230.0</ele><time>2026-05-02T09:24:38.001Z</time></trkpt><trkpt lat="44.76446162816758" lon="8.495643444651536"><ele>231.0</ele><time>2026-05-02T09:24:40.001Z</time></trkpt><trkpt lat="44.76442170399418" lon="8.495573344610497"><ele>232.0</ele><time>2026-05-02T09:24:41.001Z</time></trkpt><trkpt lat="44.76436760506907" lon="8.4954831699353"><ele>232.33333333333331</ele><time>2026-05-02T09:24:42.001Z</time></trkpt><trkpt lat="44.7642987187958" lon="8.495395627119423"><ele>232.66666666666666</ele><time>2026-05-02T09:24:43.001Z</time></trkpt><trkpt lat="44.764227838870056" lon="8.495310502265788"><ele>233.0</ele><time>2026-05-02T09:24:44.001Z</time></trkpt><trkpt lat="44.764171379469616" lon="8.495238360305578"><ele>233.33333333333331</ele><time>2026-05-02T09:24:45.001Z</time></trkpt><trkpt lat="44.764119331500815" lon="8.495139872499603"><ele>233.66666666666666</ele><time>2026-05-02T09:24:46.001Z</time></trkpt><trkpt lat="44.76408125026863" lon="8.495068510681667"><ele>234.0</ele><time>2026-05-02T09:24:47.001Z</time></trkpt><trkpt lat="44.76399740638932" lon="8.494930831326542"><ele>234.0</ele><time>2026-05-02T09:24:49.001Z</time></trkpt><trkpt lat="44.76391917244993" lon="8.494738762626092"><ele>233.99999999999997</ele><time>2026-05-02T09:24:51.001Z</time></trkpt><trkpt lat="44.76385263200455" lon="8.494634801584342"><ele>233.99999999999997</ele><time>2026-05-02T09:24:52.001Z</time></trkpt><trkpt lat="44.763780805527006" lon="8.494541598344057"><ele>234.0</ele><time>2026-05-02T09:24:53.001Z</time></trkpt><trkpt lat="44.76370856492248" lon="8.494462696905483"><ele>234.0</ele><time>2026-05-02T09:24:54.001Z</time></trkpt><trkpt lat="44.763633950027426" lon="8.494394249522374"><ele>234.5</ele><time>2026-05-02T09:24:55.001Z</time></trkpt><trkpt lat="44.76354909048783" lon="8.494334878713076"><ele>235.0</ele><time>2026-05-02T09:24:56.001Z</time></trkpt><trkpt lat="44.76341016353043" lon="8.49432108451806"><ele>235.5</ele><time>2026-05-02T09:24:58.001Z</time></trkpt><trkpt lat="44.7633031138012" lon="8.494306498847928"><ele>236.0</ele><time>2026-05-02T09:25:00.001Z</time></trkpt><trkpt lat="44.763167173430006" lon="8.494203105926784"><ele>237.00000000000003</ele><time>2026-05-02T09:25:02.001Z</time></trkpt><trkpt lat="44.76311696890389" lon="8.494148685029131"><ele>238.0</ele><time>2026-05-02T09:25:03.001Z</time></trkpt><trkpt lat="44.76313639762736" lon="8.494048126038692"><ele>239.0</ele><time>2026-05-02T09:25:06.001Z</time></trkpt><trkpt lat="44.763137567426504" lon="8.493956061147138"><ele>240.0</ele><time>2026-05-02T09:25:08.001Z</time></trkpt><trkpt lat="44.76309804114281" lon="8.493867504476553"><ele>241.00000000000003</ele><time>2026-05-02T09:25:09.001Z</time></trkpt><trkpt lat="44.76304000764911" lon="8.493736810117767"><ele>242.0</ele><time>2026-05-02T09:25:10Z</time></trkpt><trkpt lat="44.76299461173162" lon="8.493667463662238"><ele>242.25</ele><time>2026-05-02T09:25:13Z</time></trkpt><trkpt lat="44.76290461281702" lon="8.493601270792597"><ele>242.5</ele><time>2026-05-02T09:25:15Z</time></trkpt><trkpt lat="44.76278771303365" lon="8.493552946312896"><ele>242.75</ele><time>2026-05-02T09:25:18Z</time></trkpt><trkpt lat="44.762651591615366" lon="8.493457184300278"><ele>243.0</ele><time>2026-05-02T09:25:19Z</time></trkpt><trkpt lat="44.762562535910945" lon="8.493362350612026"><ele>243.2</ele><time>2026-05-02T09:25:20Z</time></trkpt><trkpt lat="44.76249153010693" lon="8.493262049954394"><ele>243.4</ele><time>2026-05-02T09:25:21Z</time></trkpt><trkpt lat="44.762393573286964" lon="8.493153958176698"><ele>243.59999999999997</ele><time>2026-05-02T09:25:22Z</time></trkpt><trkpt lat="44.762308125111055" lon="8.493078581809396"><ele>243.79999999999998</ele><time>2026-05-02T09:25:23Z</time></trkpt><trkpt lat="44.76222796143329" lon="8.49296745986813"><ele>244.0</ele><time>2026-05-02T09:25:24Z</time></trkpt><trkpt lat="44.76210477317885" lon="8.492829025439704"><ele>244.2</ele><time>2026-05-02T09:25:26Z</time></trkpt><trkpt lat="44.76199727882664" lon="8.492755246554022"><ele>244.39999999999998</ele><time>2026-05-02T09:25:27Z</time></trkpt><trkpt lat="44.76191611533435" lon="8.49267869835411"><ele>244.6</ele><time>2026-05-02T09:25:28Z</time></trkpt><trkpt lat="44.76185633737564" lon="8.492616184338017"><ele>244.8</ele><time>2026-05-02T09:25:29Z</time></trkpt><trkpt lat="44.76181156715694" lon="8.492549532935145"><ele>245.0</ele><time>2026-05-02T09:25:30Z</time></trkpt><trkpt lat="44.76172315133562" lon="8.492448043712878"><ele>245.0</ele><time>2026-05-02T09:25:31Z</time></trkpt><trkpt lat="44.76163943380892" lon="8.492400141929"><ele>245.0</ele><time>2026-05-02T09:25:32Z</time></trkpt><trkpt lat="44.76148911879461" lon="8.49224245249731"><ele>245.0</ele><time>2026-05-02T09:25:34Z</time></trkpt><trkpt lat="44.761419572366876" lon="8.492133912719481"><ele>245.0</ele><time>2026-05-02T09:25:35Z</time></trkpt><trkpt lat="44.76135901421399" lon="8.492047544325965"><ele>245.8</ele><time>2026-05-02T09:25:36Z</time></trkpt><trkpt lat="44.76130679633973" lon="8.491960749446894"><ele>246.6</ele><time>2026-05-02T09:25:37Z</time></trkpt><trkpt lat="44.761268149480294" lon="8.491803113809981"><ele>247.39999999999998</ele><time>2026-05-02T09:25:39Z</time></trkpt><trkpt lat="44.76115309570474" lon="8.491746167358563"><ele>248.2</ele><time>2026-05-02T09:25:41Z</time></trkpt><trkpt lat="44.76109271912971" lon="8.491688737678054"><ele>249.0</ele><time>2026-05-02T09:25:42Z</time></trkpt><trkpt lat="44.76101173753285" lon="8.49162457439902"><ele>249.0</ele><time>2026-05-02T09:25:44Z</time></trkpt><trkpt lat="44.76088562346002" lon="8.491420493699518"><ele>249.0</ele><time>2026-05-02T09:25:46Z</time></trkpt><trkpt lat="44.760840010525506" lon="8.491296351410334"><ele>249.0</ele><time>2026-05-02T09:25:47Z</time></trkpt><trkpt lat="44.76079593147749" lon="8.491200795119246"><ele>249.0</ele><time>2026-05-02T09:25:48Z</time></trkpt><trkpt lat="44.760700364939304" lon="8.491096992353702"><ele>249.39999999999998</ele><time>2026-05-02T09:25:50Z</time></trkpt><trkpt lat="44.76062096490678" lon="8.49107774412768"><ele>249.79999999999998</ele><time>2026-05-02T09:25:53Z</time></trkpt><trkpt lat="44.76053244360233" lon="8.491101065210334"><ele>250.20000000000002</ele><time>2026-05-02T09:25:56Z</time></trkpt><trkpt lat="44.760459062072215" lon="8.49107674299835"><ele>250.60000000000002</ele><time>2026-05-02T09:25:57Z</time></trkpt><trkpt lat="44.760382234767825" lon="8.490981595121943"><ele>251.0</ele><time>2026-05-02T09:25:58Z</time></trkpt><trkpt lat="44.76029164362772" lon="8.490892107771577"><ele>252.5</ele><time>2026-05-02T09:25:59Z</time></trkpt><trkpt lat="44.76018323865777" lon="8.490881394546117"><ele>254.0</ele><time>2026-05-02T09:26:00Z</time></trkpt><trkpt lat="44.760073538640015" lon="8.490798083284645"><ele>255.5</ele><time>2026-05-02T09:26:01Z</time></trkpt><trkpt lat="44.759967609174055" lon="8.490695679177408"><ele>257.0</ele><time>2026-05-02T09:26:02Z</time></trkpt><trkpt lat="44.75986202494615" lon="8.490647183085375"><ele>257.0</ele><time>2026-05-02T09:26:03Z</time></trkpt><trkpt lat="44.75976309431237" lon="8.490609082275295"><ele>257.0</ele><time>2026-05-02T09:26:04Z</time></trkpt><trkpt lat="44.75968768056112" lon="8.490550284570357"><ele>257.0</ele><time>2026-05-02T09:26:05Z</time></trkpt><trkpt lat="44.75962579170816" lon="8.490478947514962"><ele>257.0</ele><time>2026-05-02T09:26:06Z</time></trkpt><trkpt lat="44.75955732971827" lon="8.49042879375329"><ele>257.0</ele><time>2026-05-02T09:26:07Z</time></trkpt><trkpt lat="44.759486689576086" lon="8.490386710154736"><ele>257.0</ele><time>2026-05-02T09:26:08Z</time></trkpt><trkpt lat="44.759417713986636" lon="8.490291273374787"><ele>257.2</ele><time>2026-05-02T09:26:09Z</time></trkpt><trkpt lat="44.75932407260159" lon="8.490260154998936"><ele>257.4</ele><time>2026-05-02T09:26:10Z</time></trkpt><trkpt lat="44.759210692256936" lon="8.490135889111373"><ele>257.6</ele><time>2026-05-02T09:26:11Z</time></trkpt><trkpt lat="44.75910556837869" lon="8.4900526223863"><ele>257.8</ele><time>2026-05-02T09:26:12Z</time></trkpt><trkpt lat="44.75905100574667" lon="8.489988422109484"><ele>258.0</ele><time>2026-05-02T09:26:13Z</time></trkpt><trkpt lat="44.759001113469495" lon="8.489905594988358"><ele>258.0</ele><time>2026-05-02T09:26:14Z</time></trkpt><trkpt lat="44.7589523853201" lon="8.489793009310016"><ele>258.0</ele><time>2026-05-02T09:26:15Z</time></trkpt><trkpt lat="44.75887783498356" lon="8.489663446313072"><ele>258.0</ele><time>2026-05-02T09:26:16Z</time></trkpt><trkpt lat="44.758796031346854" lon="8.489560983267094"><ele>258.0</ele><time>2026-05-02T09:26:17Z</time></trkpt><trkpt lat="44.75870023439119" lon="8.489512655278723"><ele>258.0</ele><time>2026-05-02T09:26:18Z</time></trkpt><trkpt lat="44.75863125669985" lon="8.489495491083805"><ele>258.6</ele><time>2026-05-02T09:26:19Z</time></trkpt><trkpt lat="44.75856820279868" lon="8.489480280616485"><ele>259.20000000000005</ele><time>2026-05-02T09:26:20Z</time></trkpt><trkpt lat="44.75842242907277" lon="8.489417351955913"><ele>259.8</ele><time>2026-05-02T09:26:22Z</time></trkpt><trkpt lat="44.75834164462648" lon="8.489381896868792"><ele>260.40000000000003</ele><time>2026-05-02T09:26:23.001Z</time></trkpt><trkpt lat="44.758251951400965" lon="8.48931169724792"><ele>261.0</ele><time>2026-05-02T09:26:24.001Z</time></trkpt><trkpt lat="44.758105871676996" lon="8.489285001351227"><ele>261.0</ele><time>2026-05-02T09:26:26.001Z</time></trkpt><trkpt lat="44.75799197107812" lon="8.489222682172832"><ele>261.0</ele><time>2026-05-02T09:26:28.001Z</time></trkpt><trkpt lat="44.75794736407941" lon="8.489152895746125"><ele>261.0</ele><time>2026-05-02T09:26:29.001Z</time></trkpt><trkpt lat="44.75793289353528" lon="8.48900952808478"><ele>261.0</ele><time>2026-05-02T09:26:31.001Z</time></trkpt><trkpt lat="44.75793369946025" lon="8.488878915201136"><ele>261.0</ele><time>2026-05-02T09:26:32.001Z</time></trkpt><trkpt lat="44.75788290829812" lon="8.488741371974445"><ele>261.0</ele><time>2026-05-02T09:26:34.001Z</time></trkpt><trkpt lat="44.757823561906015" lon="8.488650178456304"><ele>261.0</ele><time>2026-05-02T09:26:36.001Z</time></trkpt><trkpt lat="44.75781606901858" lon="8.488556906518067"><ele>261.0</ele><time>2026-05-02T09:26:37.001Z</time></trkpt><trkpt lat="44.757803470191014" lon="8.488462516222198"><ele>261.0</ele><time>2026-05-02T09:26:38.001Z</time></trkpt><trkpt lat="44.75776791407402" lon="8.488380696841542"><ele>261.0</ele><time>2026-05-02T09:26:39.001Z</time></trkpt><trkpt lat="44.75770912598723" lon="8.48834768362554"><ele>261.0</ele><time>2026-05-02T09:26:40.001Z</time></trkpt><trkpt lat="44.757653930555335" lon="8.488296058853676"><ele>261.0</ele><time>2026-05-02T09:26:41.001Z</time></trkpt><trkpt lat="44.75758144163916" lon="8.488240540935575"><ele>261.0</ele><time>2026-05-02T09:26:42.001Z</time></trkpt><trkpt lat="44.75751066820561" lon="8.48817046767778"><ele>261.0</ele><time>2026-05-02T09:26:43.001Z</time></trkpt><trkpt lat="44.75743424343863" lon="8.488098654017724"><ele>261.0</ele><time>2026-05-02T09:26:44.001Z</time></trkpt><trkpt lat="44.75737839782504" lon="8.488021664774577"><ele>261.0</ele><time>2026-05-02T09:26:45.001Z</time></trkpt><trkpt lat="44.75733666729824" lon="8.487949328546602"><ele>261.0</ele><time>2026-05-02T09:26:46.001Z</time></trkpt><trkpt lat="44.757290747461674" lon="8.48786491244271"><ele>261.0</ele><time>2026-05-02T09:26:47.001Z</time></trkpt><trkpt lat="44.757262959087086" lon="8.487780729719002"><ele>261.0</ele><time>2026-05-02T09:26:48.001Z</time></trkpt><trkpt lat="44.75722159002813" lon="8.487687804772413"><ele>261.0</ele><time>2026-05-02T09:26:49.001Z</time></trkpt><trkpt lat="44.75713947844874" lon="8.487576455559136"><ele>261.0</ele><time>2026-05-02T09:26:51.001Z</time></trkpt><trkpt lat="44.75704531232634" lon="8.487493926114455"><ele>261.0</ele><time>2026-05-02T09:26:53.001Z</time></trkpt><trkpt lat="44.756945720331444" lon="8.487462221161925"><ele>261.0</ele><time>2026-05-02T09:26:55.001Z</time></trkpt><trkpt lat="44.75687580391385" lon="8.487444967208337"><ele>261.5</ele><time>2026-05-02T09:26:57.001Z</time></trkpt><trkpt lat="44.75684189480939" lon="8.487364766111602"><ele>262.0</ele><time>2026-05-02T09:27:04.001Z</time></trkpt><trkpt lat="44.756762189164974" lon="8.487306570492983"><ele>262.5</ele><time>2026-05-02T09:27:44Z</time></trkpt><trkpt lat="44.75669320132584" lon="8.48725606808308"><ele>263.0</ele><time>2026-05-02T09:27:45Z</time></trkpt><trkpt lat="44.75660115376633" lon="8.487189844035385"><ele>263.5</ele><time>2026-05-02T09:27:47Z</time></trkpt><trkpt lat="44.75652852224166" lon="8.48707398446861"><ele>264.0</ele><time>2026-05-02T09:27:49Z</time></trkpt><trkpt lat="44.75649117011674" lon="8.486992914047264"><ele>265.3333333333333</ele><time>2026-05-02T09:27:50Z</time></trkpt><trkpt lat="44.75644483885366" lon="8.486869516164548"><ele>266.6666666666667</ele><time>2026-05-02T09:27:52Z</time></trkpt><trkpt lat="44.75642656516554" lon="8.48677363271382"><ele>268.0</ele><time>2026-05-02T09:27:54Z</time></trkpt><trkpt lat="44.75638401873453" lon="8.486704263699217"><ele>269.33333333333337</ele><time>2026-05-02T09:27:58Z</time></trkpt><trkpt lat="44.75643416374939" lon="8.486629410986557"><ele>270.6666666666667</ele><time>2026-05-02T09:28:10Z</time></trkpt><trkpt lat="44.75651430094165" lon="8.486531636337213"><ele>272.0</ele><time>2026-05-02T09:28:12Z</time></trkpt><trkpt lat="44.75666671071098" lon="8.486466847304175"><ele>272.0</ele><time>2026-05-02T09:28:15.001Z</time></trkpt><trkpt lat="44.75676432385662" lon="8.48640769275438"><ele>272.0</ele><time>2026-05-02T09:28:17.001Z</time></trkpt><trkpt lat="44.75690733582772" lon="8.486348417222779"><ele>272.0</ele><time>2026-05-02T09:28:19.001Z</time></trkpt><trkpt lat="44.75697710926471" lon="8.486254689453098"><ele>272.0</ele><time>2026-05-02T09:28:21.001Z</time></trkpt><trkpt lat="44.75701853335016" lon="8.486123642957809"><ele>268.25</ele><time>2026-05-02T09:28:23.001Z</time></trkpt><trkpt lat="44.75707109110124" lon="8.486064398318588"><ele>264.5</ele><time>2026-05-02T09:28:24.001Z</time></trkpt><trkpt lat="44.75713059899038" lon="8.485991157089376"><ele>260.75</ele><time>2026-05-02T09:28:26.001Z</time></trkpt><trkpt lat="44.75727661634551" lon="8.485950235375622"><ele>257.0</ele><time>2026-05-02T09:28:29.001Z</time></trkpt><trkpt lat="44.75743273797035" lon="8.485935738024194"><ele>257.0</ele><time>2026-05-02T09:28:32.001Z</time></trkpt><trkpt lat="44.75760459737732" lon="8.485945719661643"><ele>257.0</ele><time>2026-05-02T09:28:34.001Z</time></trkpt><trkpt lat="44.757679031090355" lon="8.485955478175375"><ele>257.0</ele><time>2026-05-02T09:28:35.001Z</time></trkpt><trkpt lat="44.75783111743601" lon="8.485960351877456"><ele>257.0</ele><time>2026-05-02T09:28:37.001Z</time></trkpt><trkpt lat="44.75790979015882" lon="8.485931990272496"><ele>257.4</ele><time>2026-05-02T09:28:38.001Z</time></trkpt><trkpt lat="44.757986174533556" lon="8.485893854381084"><ele>257.79999999999995</ele><time>2026-05-02T09:28:40.001Z</time></trkpt><trkpt lat="44.75809502727348" lon="8.485777462958428"><ele>258.2</ele><time>2026-05-02T09:28:42.001Z</time></trkpt><trkpt lat="44.75816078374204" lon="8.48573037274917"><ele>258.59999999999997</ele><time>2026-05-02T09:28:43.001Z</time></trkpt><trkpt lat="44.758282590884384" lon="8.48566688279521"><ele>259.0</ele><time>2026-05-02T09:28:44.001Z</time></trkpt><trkpt lat="44.75836580498422" lon="8.485652574183677"><ele>259.0</ele><time>2026-05-02T09:28:45.001Z</time></trkpt><trkpt lat="44.75848608556316" lon="8.485692674114143"><ele>259.0</ele><time>2026-05-02T09:28:47.001Z</time></trkpt><trkpt lat="44.75861161856915" lon="8.485801884024584"><ele>259.0</ele><time>2026-05-02T09:28:49.001Z</time></trkpt><trkpt lat="44.758678534577676" lon="8.485861276789496"><ele>259.0</ele><time>2026-05-02T09:28:51.001Z</time></trkpt><trkpt lat="44.75873543561462" lon="8.485922678210805"><ele>259.0</ele><time>2026-05-02T09:28:53.001Z</time></trkpt><trkpt lat="44.758673431437735" lon="8.485859625915744"><ele>259.0</ele><time>2026-05-02T09:29:22Z</time></trkpt><trkpt lat="44.75863774182767" lon="8.485961779337066"><ele>259.0</ele><time>2026-05-02T09:29:30Z</time></trkpt><trkpt lat="44.75854956635711" lon="8.485986885753926"><ele>259.0</ele><time>2026-05-02T09:29:34Z</time></trkpt><trkpt lat="44.75848542357385" lon="8.485999372250324"><ele>259.0</ele><time>2026-05-02T09:29:36Z</time></trkpt><trkpt lat="44.758511919636" lon="8.486090069683897"><ele>259.0</ele><time>2026-05-02T09:29:39Z</time></trkpt><trkpt lat="44.758576354351725" lon="8.486016914698656"><ele>259.0</ele><time>2026-05-02T09:31:47Z</time></trkpt><trkpt lat="44.75860373205835" lon="8.48592801691271"><ele>259.0</ele><time>2026-05-02T09:31:49Z</time></trkpt><trkpt lat="44.75858019731479" lon="8.485805915572195"><ele>259.0</ele><time>2026-05-02T09:31:53Z</time></trkpt><trkpt lat="44.75853417157067" lon="8.48570156918954"><ele>259.0</ele><time>2026-05-02T09:31:55Z</time></trkpt><trkpt lat="44.75852719138281" lon="8.48560228515203"><ele>259.0</ele><time>2026-05-02T09:31:59Z</time></trkpt><trkpt lat="44.75858134257046" lon="8.485516744706409"><ele>259.0</ele><time>2026-05-02T09:32:03Z</time></trkpt><trkpt lat="44.758604195827324" lon="8.485396071380777"><ele>259.0</ele><time>2026-05-02T09:32:06Z</time></trkpt><trkpt lat="44.758614021098374" lon="8.485298469468136"><ele>259.0</ele><time>2026-05-02T09:32:08Z</time></trkpt><trkpt lat="44.75862354413918" lon="8.48540638910425"><ele>259.0</ele><time>2026-05-02T09:32:36.001Z</time></trkpt><trkpt lat="44.75860388400787" lon="8.485513095610656"><ele>259.0</ele><time>2026-05-02T09:32:40.001Z</time></trkpt><trkpt lat="44.75856035324858" lon="8.485593239472438"><ele>259.0</ele><time>2026-05-02T09:32:43.001Z</time></trkpt><trkpt lat="44.75846574731826" lon="8.485640200500672"><ele>259.0</ele><time>2026-05-02T09:32:46.001Z</time></trkpt><trkpt lat="44.75838397728079" lon="8.485687690945126"><ele>259.0</ele><time>2026-05-02T09:32:48.001Z</time></trkpt><trkpt lat="44.758313081702525" lon="8.485795803507875"><ele>259.0</ele><time>2026-05-02T09:32:50.001Z</time></trkpt><trkpt lat="44.75823714040365" lon="8.48588745944876"><ele>259.0</ele><time>2026-05-02T09:32:52.001Z</time></trkpt><trkpt lat="44.75807032908297" lon="8.485965988062775"><ele>259.0</ele><time>2026-05-02T09:32:54.001Z</time></trkpt><trkpt lat="44.75799744193281" lon="8.48600080182112"><ele>259.0</ele><time>2026-05-02T09:32:55.001Z</time></trkpt><trkpt lat="44.75790637858629" lon="8.486026563133619"><ele>259.0</ele><time>2026-05-02T09:32:56.001Z</time></trkpt><trkpt lat="44.7578349769762" lon="8.486041994997725"><ele>259.0</ele><time>2026-05-02T09:32:57.001Z</time></trkpt><trkpt lat="44.75772763610238" lon="8.486017720253368"><ele>259.0</ele><time>2026-05-02T09:32:59.001Z</time></trkpt><trkpt lat="44.7576167592683" lon="8.485936671478047"><ele>259.0</ele><time>2026-05-02T09:33:01.001Z</time></trkpt><trkpt lat="44.75754543689998" lon="8.485931361641535"><ele>259.0</ele><time>2026-05-02T09:33:03.001Z</time></trkpt><trkpt lat="44.75743290198699" lon="8.485899052139663"><ele>259.0</ele><time>2026-05-02T09:33:05.001Z</time></trkpt><trkpt lat="44.757364690373045" lon="8.485889741450082"><ele>258.59999999999997</ele><time>2026-05-02T09:33:06.001Z</time></trkpt><trkpt lat="44.75725081973224" lon="8.4859378444655"><ele>258.2</ele><time>2026-05-02T09:33:08.001Z</time></trkpt><trkpt lat="44.75713649043222" lon="8.486007774146918"><ele>257.79999999999995</ele><time>2026-05-02T09:33:10.001Z</time></trkpt><trkpt lat="44.75707909684633" lon="8.486081907582408"><ele>257.4</ele><time>2026-05-02T09:33:11.001Z</time></trkpt><trkpt lat="44.75703060440095" lon="8.486155919522227"><ele>257.0</ele><time>2026-05-02T09:33:12.001Z</time></trkpt><trkpt lat="44.75696806477504" lon="8.4862033274642"><ele>257.0</ele><time>2026-05-02T09:33:13.001Z</time></trkpt><trkpt lat="44.756925607319914" lon="8.486346479592973"><ele>257.0</ele><time>2026-05-02T09:33:15.001Z</time></trkpt><trkpt lat="44.75686073139686" lon="8.486400182570979"><ele>257.0</ele><time>2026-05-02T09:33:17.001Z</time></trkpt><trkpt lat="44.756769011773386" lon="8.486394499212816"><ele>257.0</ele><time>2026-05-02T09:33:19.001Z</time></trkpt><trkpt lat="44.75668473791521" lon="8.486403902946513"><ele>257.0</ele><time>2026-05-02T09:33:21.001Z</time></trkpt><trkpt lat="44.756585062292416" lon="8.486545996123162"><ele>260.0</ele><time>2026-05-02T09:33:23.001Z</time></trkpt><trkpt lat="44.75655485379967" lon="8.486629697126398"><ele>263.0</ele><time>2026-05-02T09:33:24.001Z</time></trkpt><trkpt lat="44.75647885152323" lon="8.486695624930803"><ele>266.0</ele><time>2026-05-02T09:33:26.001Z</time></trkpt><trkpt lat="44.75639130684073" lon="8.486712840917367"><ele>269.0</ele><time>2026-05-02T09:33:29.001Z</time></trkpt><trkpt lat="44.75628291208905" lon="8.48668754965151"><ele>272.0</ele><time>2026-05-02T09:33:31.001Z</time></trkpt><trkpt lat="44.7561744396027" lon="8.48665472650618"><ele>272.0</ele><time>2026-05-02T09:33:33.001Z</time></trkpt><trkpt lat="44.75604553674824" lon="8.486560552106404"><ele>272.0</ele><time>2026-05-02T09:33:34Z</time></trkpt><trkpt lat="44.75597853658719" lon="8.48655649991382"><ele>272.0</ele><time>2026-05-02T09:33:35Z</time></trkpt><trkpt lat="44.755901972273875" lon="8.48657662494848"><ele>272.0</ele><time>2026-05-02T09:33:36Z</time></trkpt><trkpt lat="44.75582949857515" lon="8.486558216332112"><ele>272.0</ele><time>2026-05-02T09:33:37Z</time></trkpt><trkpt lat="44.755762560039265" lon="8.486483444610775"><ele>272.0</ele><time>2026-05-02T09:33:39Z</time></trkpt><trkpt lat="44.75569993260275" lon="8.486372796738886"><ele>273.83333333333337</ele><time>2026-05-02T09:33:40Z</time></trkpt><trkpt lat="44.75563707698257" lon="8.486313546279222"><ele>275.6666666666667</ele><time>2026-05-02T09:33:41Z</time></trkpt><trkpt lat="44.75552740041905" lon="8.486239910914394"><ele>277.5</ele><time>2026-05-02T09:33:43Z</time></trkpt><trkpt lat="44.75544768748936" lon="8.486162814846375"><ele>279.3333333333333</ele><time>2026-05-02T09:33:44Z</time></trkpt><trkpt lat="44.75539418454049" lon="8.48611161793265"><ele>281.16666666666663</ele><time>2026-05-02T09:33:45Z</time></trkpt><trkpt lat="44.7553349634598" lon="8.48603873024617"><ele>283.0</ele><time>2026-05-02T09:33:46Z</time></trkpt><trkpt lat="44.755251804364114" lon="8.48597423870994"><ele>284.2</ele><time>2026-05-02T09:33:47Z</time></trkpt><trkpt lat="44.75517331936769" lon="8.485884748297993"><ele>285.4</ele><time>2026-05-02T09:33:48Z</time></trkpt><trkpt lat="44.75511518125783" lon="8.485807849181873"><ele>286.59999999999997</ele><time>2026-05-02T09:33:49Z</time></trkpt><trkpt lat="44.755043531108434" lon="8.485699343571545"><ele>287.8</ele><time>2026-05-02T09:33:51Z</time></trkpt><trkpt lat="44.75498485910926" lon="8.485815052420925"><ele>289.0</ele><time>2026-05-02T09:34:14Z</time></trkpt><trkpt lat="44.75495159829061" lon="8.485959284277197"><ele>289.0</ele><time>2026-05-02T09:34:15Z</time></trkpt><trkpt lat="44.754953082761546" lon="8.486084187035903"><ele>289.0</ele><time>2026-05-02T09:34:17Z</time></trkpt><trkpt lat="44.75495247048877" lon="8.486204111240207"><ele>289.0</ele><time>2026-05-02T09:34:20Z</time></trkpt><trkpt lat="44.754924376421194" lon="8.486299964942539"><ele>289.0</ele><time>2026-05-02T09:34:22Z</time></trkpt><trkpt lat="44.75490512565699" lon="8.486436593171826"><ele>289.0</ele><time>2026-05-02T09:34:24Z</time></trkpt><trkpt lat="44.754865048742005" lon="8.486564225262569"><ele>289.0</ele><time>2026-05-02T09:34:26Z</time></trkpt><trkpt lat="44.7548346339181" lon="8.486712514601036"><ele>288.0</ele><time>2026-05-02T09:34:29Z</time></trkpt><trkpt lat="44.75484457078093" lon="8.486830539603927"><ele>287.0</ele><time>2026-05-02T09:34:31Z</time></trkpt><trkpt lat="44.75485152609263" lon="8.486938010962927"><ele>286.0</ele><time>2026-05-02T09:34:33Z</time></trkpt><trkpt lat="44.75486829413666" lon="8.487068790352687"><ele>285.0</ele><time>2026-05-02T09:34:35.001Z</time></trkpt><trkpt lat="44.75487924196447" lon="8.487229506515003"><ele>284.0</ele><time>2026-05-02T09:34:37.001Z</time></trkpt><trkpt lat="44.75491104407738" lon="8.487379700070218"><ele>282.83333333333337</ele><time>2026-05-02T09:34:39.001Z</time></trkpt><trkpt lat="44.75494854128878" lon="8.487451304082208"><ele>281.6666666666667</ele><time>2026-05-02T09:34:41.001Z</time></trkpt><trkpt lat="44.754994237297794" lon="8.487548477881083"><ele>280.5</ele><time>2026-05-02T09:34:43.001Z</time></trkpt><trkpt lat="44.755067585171886" lon="8.487635576174693"><ele>279.3333333333333</ele><time>2026-05-02T09:34:45.001Z</time></trkpt><trkpt lat="44.75512253837584" lon="8.487720960915288"><ele>278.16666666666663</ele><time>2026-05-02T09:34:47.001Z</time></trkpt><trkpt lat="44.75517864483273" lon="8.487811981714072"><ele>277.0</ele><time>2026-05-02T09:34:49.001Z</time></trkpt><trkpt lat="44.75521137170545" lon="8.487910983626215"><ele>274.8333333333333</ele><time>2026-05-02T09:34:51.001Z</time></trkpt><trkpt lat="44.75525873423259" lon="8.487974998630483"><ele>272.66666666666663</ele><time>2026-05-02T09:34:53.001Z</time></trkpt><trkpt lat="44.755326383547896" lon="8.488042543137572"><ele>270.5</ele><time>2026-05-02T09:34:54.001Z</time></trkpt><trkpt lat="44.7553918467076" lon="8.488084314950155"><ele>268.3333333333333</ele><time>2026-05-02T09:34:55.001Z</time></trkpt><trkpt lat="44.75545892927328" lon="8.488192984013045"><ele>266.1666666666667</ele><time>2026-05-02T09:34:57.001Z</time></trkpt><trkpt lat="44.755495957264394" lon="8.488265767950928"><ele>264.0</ele><time>2026-05-02T09:34:59.001Z</time></trkpt><trkpt lat="44.755513428621185" lon="8.48841440505944"><ele>264.0</ele><time>2026-05-02T09:35:02.001Z</time></trkpt><trkpt lat="44.75553660927678" lon="8.48853361350912"><ele>264.0</ele><time>2026-05-02T09:35:04.001Z</time></trkpt><trkpt lat="44.75560865787742" lon="8.488667315815723"><ele>264.0</ele><time>2026-05-02T09:35:06.001Z</time></trkpt><trkpt lat="44.75566795245039" lon="8.488726722585808"><ele>264.0</ele><time>2026-05-02T09:35:08.001Z</time></trkpt><trkpt lat="44.75571973566754" lon="8.48880602574035"><ele>264.0</ele><time>2026-05-02T09:35:10.001Z</time></trkpt><trkpt lat="44.75577430276352" lon="8.48889803524353"><ele>264.0</ele><time>2026-05-02T09:35:13.001Z</time></trkpt><trkpt lat="44.75580332706972" lon="8.48898281275317"><ele>262.1666666666667</ele><time>2026-05-02T09:35:17.001Z</time></trkpt><trkpt lat="44.755772314441735" lon="8.48907195392359"><ele>260.3333333333333</ele><time>2026-05-02T09:35:19.001Z</time></trkpt><trkpt lat="44.75583023850783" lon="8.489165895276145"><ele>258.5</ele><time>2026-05-02T09:35:22.001Z</time></trkpt><trkpt lat="44.75586965902668" lon="8.489263737900973"><ele>256.66666666666663</ele><time>2026-05-02T09:35:25.001Z</time></trkpt><trkpt lat="44.755918106605186" lon="8.48932483386309"><ele>254.83333333333331</ele><time>2026-05-02T09:35:30.001Z</time></trkpt><trkpt lat="44.755878031039025" lon="8.489219737280063"><ele>253.0</ele><time>2026-05-02T09:35:59Z</time></trkpt><trkpt lat="44.75582807926133" lon="8.48914232673677"><ele>252.99999999999997</ele><time>2026-05-02T09:36:02Z</time></trkpt><trkpt lat="44.75584029938074" lon="8.489055312710818"><ele>253.0</ele><time>2026-05-02T09:36:09Z</time></trkpt><trkpt lat="44.75579806718882" lon="8.488933900754251"><ele>253.0</ele><time>2026-05-02T09:36:14Z</time></trkpt><trkpt lat="44.755738468363525" lon="8.488849110135272"><ele>253.0</ele><time>2026-05-02T09:36:18Z</time></trkpt><trkpt lat="44.75566800662288" lon="8.48874749060546"><ele>252.99999999999997</ele><time>2026-05-02T09:36:21Z</time></trkpt><trkpt lat="44.75562515279818" lon="8.488667149518681"><ele>253.0</ele><time>2026-05-02T09:36:22Z</time></trkpt><trkpt lat="44.75557457890129" lon="8.48858232963665"><ele>254.83333333333331</ele><time>2026-05-02T09:36:23Z</time></trkpt><trkpt lat="44.755504704943974" lon="8.488532685642044"><ele>256.66666666666663</ele><time>2026-05-02T09:36:25Z</time></trkpt><trkpt lat="44.75547753786412" lon="8.488422090834918"><ele>258.5</ele><time>2026-05-02T09:36:27Z</time></trkpt><trkpt lat="44.755490031474686" lon="8.48832118716665"><ele>260.3333333333333</ele><time>2026-05-02T09:36:29Z</time></trkpt><trkpt lat="44.7554090752447" lon="8.48824450398725"><ele>262.1666666666667</ele><time>2026-05-02T09:36:31Z</time></trkpt><trkpt lat="44.75535856665633" lon="8.488169905434297"><ele>264.0</ele><time>2026-05-02T09:36:32Z</time></trkpt><trkpt lat="44.75530048766637" lon="8.488081929549763"><ele>264.0</ele><time>2026-05-02T09:36:35Z</time></trkpt><trkpt lat="44.7552735064097" lon="8.487955712960678"><ele>264.0</ele><time>2026-05-02T09:36:38.001Z</time></trkpt><trkpt lat="44.75522567139504" lon="8.487894342657327"><ele>264.0</ele><time>2026-05-02T09:36:40.001Z</time></trkpt><trkpt lat="44.75513550892408" lon="8.487811598877636"><ele>264.0</ele><time>2026-05-02T09:36:42.001Z</time></trkpt><trkpt lat="44.75506900467037" lon="8.48769716628194"><ele>264.0</ele><time>2026-05-02T09:36:44.001Z</time></trkpt><trkpt lat="44.75498604676979" lon="8.487532852587387"><ele>266.1666666666667</ele><time>2026-05-02T09:36:46.001Z</time></trkpt><trkpt lat="44.75494014195838" lon="8.48744125351942"><ele>268.3333333333333</ele><time>2026-05-02T09:36:47.001Z</time></trkpt><trkpt lat="44.75490429434064" lon="8.487343062334938"><ele>270.5</ele><time>2026-05-02T09:36:48.001Z</time></trkpt><trkpt lat="44.754882756778855" lon="8.48725476014719"><ele>272.66666666666663</ele><time>2026-05-02T09:36:49.001Z</time></trkpt><trkpt lat="44.754864018580186" lon="8.487108077711909"><ele>274.8333333333333</ele><time>2026-05-02T09:36:51.001Z</time></trkpt><trkpt lat="44.754867739271255" lon="8.486985510573348"><ele>277.0</ele><time>2026-05-02T09:36:53.001Z</time></trkpt><trkpt lat="44.75485277290567" lon="8.486894852402099"><ele>278.16666666666663</ele><time>2026-05-02T09:36:54.001Z</time></trkpt><trkpt lat="44.75484727920838" lon="8.486805612941712"><ele>279.3333333333333</ele><time>2026-05-02T09:36:56.001Z</time></trkpt><trkpt lat="44.75484259430101" lon="8.48668058647892"><ele>280.5</ele><time>2026-05-02T09:36:58.001Z</time></trkpt><trkpt lat="44.7548664104451" lon="8.486515305873006"><ele>281.6666666666667</ele><time>2026-05-02T09:37:00.001Z</time></trkpt><trkpt lat="44.75489607152707" lon="8.486427927035686"><ele>282.83333333333337</ele><time>2026-05-02T09:37:01.001Z</time></trkpt><trkpt lat="44.7548991912522" lon="8.486293343420211"><ele>284.0</ele><time>2026-05-02T09:37:03.001Z</time></trkpt><trkpt lat="44.75491759816712" lon="8.486200515966765"><ele>284.83333333333337</ele><time>2026-05-02T09:37:04.001Z</time></trkpt><trkpt lat="44.754935503928536" lon="8.48606023866855"><ele>285.6666666666667</ele><time>2026-05-02T09:37:06.001Z</time></trkpt><trkpt lat="44.75495906649562" lon="8.485969401422311"><ele>286.5</ele><time>2026-05-02T09:37:07.001Z</time></trkpt><trkpt lat="44.75497823161252" lon="8.485827117355205"><ele>287.3333333333333</ele><time>2026-05-02T09:37:09.001Z</time></trkpt><trkpt lat="44.75496044001238" lon="8.485713516062612"><ele>288.16666666666663</ele><time>2026-05-02T09:37:11.001Z</time></trkpt><trkpt lat="44.75492238250909" lon="8.485639591611557"><ele>289.0</ele><time>2026-05-02T09:37:12.001Z</time></trkpt><trkpt lat="44.75485828756785" lon="8.485547959614516"><ele>289.4</ele><time>2026-05-02T09:37:13.001Z</time></trkpt><trkpt lat="44.754789838457704" lon="8.485383272821734"><ele>289.79999999999995</ele><time>2026-05-02T09:37:14.001Z</time></trkpt><trkpt lat="44.75472473577409" lon="8.485287475802954"><ele>290.20000000000005</ele><time>2026-05-02T09:37:15.001Z</time></trkpt><trkpt lat="44.75463939854305" lon="8.485199836990855"><ele>290.6</ele><time>2026-05-02T09:37:16.001Z</time></trkpt><trkpt lat="44.754573359072374" lon="8.485100031773694"><ele>291.0</ele><time>2026-05-02T09:37:17.001Z</time></trkpt><trkpt lat="44.75451196444485" lon="8.484959912665042"><ele>291.0</ele><time>2026-05-02T09:37:19.001Z</time></trkpt><trkpt lat="44.75447461272537" lon="8.484779802667939"><ele>291.0</ele><time>2026-05-02T09:37:22.001Z</time></trkpt><trkpt lat="44.75446857595884" lon="8.484605967042013"><ele>291.0</ele><time>2026-05-02T09:37:24.001Z</time></trkpt><trkpt lat="44.75446713621182" lon="8.48450075407976"><ele>291.0</ele><time>2026-05-02T09:37:25.001Z</time></trkpt><trkpt lat="44.75447699384738" lon="8.484349795242188"><ele>291.0</ele><time>2026-05-02T09:37:27.001Z</time></trkpt><trkpt lat="44.754482244084905" lon="8.484157337706598"><ele>291.0</ele><time>2026-05-02T09:37:29.001Z</time></trkpt><trkpt lat="44.75449150015254" lon="8.483997939900169"><ele>291.0</ele><time>2026-05-02T09:37:30.001Z</time></trkpt><trkpt lat="44.754477069153296" lon="8.483903574330686"><ele>291.0</ele><time>2026-05-02T09:37:31.001Z</time></trkpt><trkpt lat="44.75447312827685" lon="8.48380884074805"><ele>291.0</ele><time>2026-05-02T09:37:32.001Z</time></trkpt><trkpt lat="44.754481590939015" lon="8.4837027700791"><ele>291.0</ele><time>2026-05-02T09:37:34.001Z</time></trkpt><trkpt lat="44.7544752633723" lon="8.48358848665708"><ele>291.0</ele><time>2026-05-02T09:37:35.001Z</time></trkpt><trkpt lat="44.75448424924418" lon="8.483422136802336"><ele>292.75</ele><time>2026-05-02T09:37:37.001Z</time></trkpt><trkpt lat="44.75446712792774" lon="8.483325332447754"><ele>294.5</ele><time>2026-05-02T09:37:39.001Z</time></trkpt><trkpt lat="44.75440368356442" lon="8.48318219594638"><ele>296.25</ele><time>2026-05-02T09:37:41.001Z</time></trkpt><trkpt lat="44.754325509308416" lon="8.483039466795523"><ele>298.0</ele><time>2026-05-02T09:37:43.001Z</time></trkpt><trkpt lat="44.75438186158164" lon="8.482863114951138"><ele>299.6</ele><time>2026-05-02T09:37:44.001Z</time></trkpt><trkpt lat="44.754335358847264" lon="8.482771603805581"><ele>301.20000000000005</ele><time>2026-05-02T09:37:45.001Z</time></trkpt><trkpt lat="44.754287996007115" lon="8.482657752710304"><ele>302.8</ele><time>2026-05-02T09:37:46Z</time></trkpt><trkpt lat="44.75424096703733" lon="8.48254057716381"><ele>304.40000000000003</ele><time>2026-05-02T09:37:47Z</time></trkpt><trkpt lat="44.75418814142593" lon="8.482427724273329"><ele>306.0</ele><time>2026-05-02T09:37:48Z</time></trkpt><trkpt lat="44.75412726511709" lon="8.482340461849056"><ele>306.0</ele><time>2026-05-02T09:37:49Z</time></trkpt><trkpt lat="44.754054612180006" lon="8.48226484250206"><ele>306.0</ele><time>2026-05-02T09:37:50Z</time></trkpt><trkpt lat="44.75399576329003" lon="8.482209547929541"><ele>306.0</ele><time>2026-05-02T09:37:51Z</time></trkpt><trkpt lat="44.753893458341054" lon="8.482136437618863"><ele>306.0</ele><time>2026-05-02T09:37:52Z</time></trkpt><trkpt lat="44.753845712932616" lon="8.482071804831326"><ele>306.0</ele><time>2026-05-02T09:37:53Z</time></trkpt><trkpt lat="44.75379605584938" lon="8.482015697108181"><ele>306.0</ele><time>2026-05-02T09:37:54Z</time></trkpt><trkpt lat="44.7537119214341" lon="8.481932809060904"><ele>304.8</ele><time>2026-05-02T09:37:56Z</time></trkpt><trkpt lat="44.7536193371904" lon="8.481826377146753"><ele>303.6</ele><time>2026-05-02T09:37:57Z</time></trkpt><trkpt lat="44.753558917065334" lon="8.48176801763796"><ele>302.4</ele><time>2026-05-02T09:37:58Z</time></trkpt><trkpt lat="44.75346596427577" lon="8.481629482322713"><ele>301.2</ele><time>2026-05-02T09:38:00Z</time></trkpt><trkpt lat="44.753397956983456" lon="8.481539069901935"><ele>300.0</ele><time>2026-05-02T09:38:01Z</time></trkpt><trkpt lat="44.753381380252335" lon="8.481396141961623"><ele>299.1666666666667</ele><time>2026-05-02T09:38:02Z</time></trkpt><trkpt lat="44.753338687731805" lon="8.481325510381538"><ele>298.3333333333333</ele><time>2026-05-02T09:38:03Z</time></trkpt><trkpt lat="44.75328009544476" lon="8.481246607501394"><ele>297.5</ele><time>2026-05-02T09:38:04Z</time></trkpt><trkpt lat="44.75319812318643" lon="8.481157638031592"><ele>296.66666666666663</ele><time>2026-05-02T09:38:06Z</time></trkpt><trkpt lat="44.753154641513696" lon="8.481058546844835"><ele>295.8333333333333</ele><time>2026-05-02T09:38:07Z</time></trkpt><trkpt lat="44.75311335946655" lon="8.48094552194065"><ele>295.0</ele><time>2026-05-02T09:38:08Z</time></trkpt><trkpt lat="44.75304107775646" lon="8.48081568536755"><ele>293.75</ele><time>2026-05-02T09:38:09Z</time></trkpt><trkpt lat="44.75297083032282" lon="8.480698562354199"><ele>292.5</ele><time>2026-05-02T09:38:10Z</time></trkpt><trkpt lat="44.75288889017606" lon="8.480567806949244"><ele>291.25</ele><time>2026-05-02T09:38:11Z</time></trkpt><trkpt lat="44.752802728082315" lon="8.480439695360914"><ele>290.0</ele><time>2026-05-02T09:38:12Z</time></trkpt><trkpt lat="44.75272125762691" lon="8.480348427525733"><ele>289.2</ele><time>2026-05-02T09:38:13Z</time></trkpt><trkpt lat="44.75265511121114" lon="8.480262026274902"><ele>288.4</ele><time>2026-05-02T09:38:14Z</time></trkpt><trkpt lat="44.75258922518977" lon="8.480184229205195"><ele>287.6</ele><time>2026-05-02T09:38:15Z</time></trkpt><trkpt lat="44.752533075422434" lon="8.480127545379823"><ele>286.8</ele><time>2026-05-02T09:38:16Z</time></trkpt><trkpt lat="44.7524541716473" lon="8.480038826943517"><ele>286.0</ele><time>2026-05-02T09:38:18Z</time></trkpt><trkpt lat="44.7523589066938" lon="8.479929102899439"><ele>286.0</ele><time>2026-05-02T09:38:20Z</time></trkpt><trkpt lat="44.752308744314725" lon="8.47984245386588"><ele>286.0</ele><time>2026-05-02T09:38:21Z</time></trkpt><trkpt lat="44.75225058791869" lon="8.479749753737872"><ele>286.0</ele><time>2026-05-02T09:38:22Z</time></trkpt><trkpt lat="44.75218622626187" lon="8.479657112671498"><ele>286.0</ele><time>2026-05-02T09:38:23Z</time></trkpt><trkpt lat="44.75211877622579" lon="8.479562446937706"><ele>286.0</ele><time>2026-05-02T09:38:24Z</time></trkpt><trkpt lat="44.752036688503246" lon="8.479474970528933"><ele>287.25</ele><time>2026-05-02T09:38:25Z</time></trkpt><trkpt lat="44.751948885036526" lon="8.479395005441933"><ele>288.5</ele><time>2026-05-02T09:38:26Z</time></trkpt><trkpt lat="44.75185184977579" lon="8.479329273526822"><ele>289.75</ele><time>2026-05-02T09:38:27Z</time></trkpt><trkpt lat="44.751743939795766" lon="8.47925778612225"><ele>291.0</ele><time>2026-05-02T09:38:28Z</time></trkpt><trkpt lat="44.75163349737319" lon="8.479193685332538"><ele>291.0</ele><time>2026-05-02T09:38:29Z</time></trkpt><trkpt lat="44.7515321760187" lon="8.479106129978122"><ele>291.0</ele><time>2026-05-02T09:38:30Z</time></trkpt><trkpt lat="44.75141684011447" lon="8.479035955281162"><ele>291.0</ele><time>2026-05-02T09:38:31Z</time></trkpt><trkpt lat="44.75129860701782" lon="8.478966837482716"><ele>291.0</ele><time>2026-05-02T09:38:32Z</time></trkpt><trkpt lat="44.75118036049736" lon="8.478902032268142"><ele>291.0</ele><time>2026-05-02T09:38:33Z</time></trkpt><trkpt lat="44.751048857766214" lon="8.478853154094404"><ele>291.0</ele><time>2026-05-02T09:38:34Z</time></trkpt><trkpt lat="44.75092039078828" lon="8.478807914173839"><ele>291.0</ele><time>2026-05-02T09:38:35Z</time></trkpt><trkpt lat="44.750808621153446" lon="8.478769393757606"><ele>291.0</ele><time>2026-05-02T09:38:36Z</time></trkpt><trkpt lat="44.750719619604354" lon="8.478762459091993"><ele>290.6666666666667</ele><time>2026-05-02T09:38:37Z</time></trkpt><trkpt lat="44.75062967177074" lon="8.478749537209593"><ele>290.3333333333333</ele><time>2026-05-02T09:38:38Z</time></trkpt><trkpt lat="44.7505537197545" lon="8.478743212474352"><ele>290.0</ele><time>2026-05-02T09:38:39Z</time></trkpt><trkpt lat="44.750486539187634" lon="8.478711589304078"><ele>289.66666666666663</ele><time>2026-05-02T09:38:40Z</time></trkpt><trkpt lat="44.75042964956377" lon="8.478658657286003"><ele>289.3333333333333</ele><time>2026-05-02T09:38:41Z</time></trkpt><trkpt lat="44.75037298866473" lon="8.478589899757312"><ele>289.0</ele><time>2026-05-02T09:38:42Z</time></trkpt><trkpt lat="44.750308755681964" lon="8.478519391627238"><ele>289.0</ele><time>2026-05-02T09:38:43Z</time></trkpt><trkpt lat="44.75022318924587" lon="8.478429076822202"><ele>289.0</ele><time>2026-05-02T09:38:44Z</time></trkpt><trkpt lat="44.75013694392276" lon="8.478323421023921"><ele>289.0</ele><time>2026-05-02T09:38:45Z</time></trkpt><trkpt lat="44.75005951836959" lon="8.478224948948041"><ele>289.0</ele><time>2026-05-02T09:38:46Z</time></trkpt><trkpt lat="44.74998528336684" lon="8.478132205766311"><ele>289.0</ele><time>2026-05-02T09:38:47Z</time></trkpt><trkpt lat="44.7499059407758" lon="8.478038366202686"><ele>288.8</ele><time>2026-05-02T09:38:48Z</time></trkpt><trkpt lat="44.74982046927033" lon="8.477946974405066"><ele>288.59999999999997</ele><time>2026-05-02T09:38:49Z</time></trkpt><trkpt lat="44.74972537990843" lon="8.477861896482576"><ele>288.4</ele><time>2026-05-02T09:38:50Z</time></trkpt><trkpt lat="44.74963458488787" lon="8.477770824670868"><ele>288.2</ele><time>2026-05-02T09:38:51Z</time></trkpt><trkpt lat="44.74957202439671" lon="8.477666123128996"><ele>288.0</ele><time>2026-05-02T09:38:52Z</time></trkpt><trkpt lat="44.749508423687125" lon="8.47756562081791"><ele>286.5</ele><time>2026-05-02T09:38:53Z</time></trkpt><trkpt lat="44.749449420364385" lon="8.477441203911024"><ele>285.0</ele><time>2026-05-02T09:38:54Z</time></trkpt><trkpt lat="44.74937457756776" lon="8.477309695061756"><ele>283.5</ele><time>2026-05-02T09:38:55Z</time></trkpt><trkpt lat="44.7493179974588" lon="8.47715697211449"><ele>282.0</ele><time>2026-05-02T09:38:56Z</time></trkpt><trkpt lat="44.749250657225645" lon="8.477006828251763"><ele>280.5</ele><time>2026-05-02T09:38:57.001Z</time></trkpt><trkpt lat="44.749177690435104" lon="8.476855739420682"><ele>279.0</ele><time>2026-05-02T09:38:58.001Z</time></trkpt><trkpt lat="44.74910788960668" lon="8.47671613217858"><ele>277.5</ele><time>2026-05-02T09:38:59.001Z</time></trkpt><trkpt lat="44.74903983760726" lon="8.476564668771175"><ele>276.0</ele><time>2026-05-02T09:39:00.001Z</time></trkpt><trkpt lat="44.748981400273244" lon="8.47639893144735"><ele>275.75</ele><time>2026-05-02T09:39:01.001Z</time></trkpt><trkpt lat="44.748942858314805" lon="8.476226184525926"><ele>275.5</ele><time>2026-05-02T09:39:02.001Z</time></trkpt><trkpt lat="44.7489241887556" lon="8.476047685126957"><ele>275.25</ele><time>2026-05-02T09:39:03.001Z</time></trkpt><trkpt lat="44.748901818807816" lon="8.475865329203488"><ele>275.0</ele><time>2026-05-02T09:39:04.001Z</time></trkpt><trkpt lat="44.748875450800284" lon="8.475684258253924"><ele>275.0</ele><time>2026-05-02T09:39:05.001Z</time></trkpt><trkpt lat="44.748849592312396" lon="8.475499454233537"><ele>275.0</ele><time>2026-05-02T09:39:06.001Z</time></trkpt><trkpt lat="44.74885232561495" lon="8.47532936437735"><ele>275.0</ele><time>2026-05-02T09:39:07.001Z</time></trkpt><trkpt lat="44.74883105270444" lon="8.47515553682313"><ele>275.0</ele><time>2026-05-02T09:39:08.001Z</time></trkpt><trkpt lat="44.748825730464596" lon="8.474995525101539"><ele>275.0</ele><time>2026-05-02T09:39:09.001Z</time></trkpt><trkpt lat="44.748810084594915" lon="8.47484946179592"><ele>275.0</ele><time>2026-05-02T09:39:10.001Z</time></trkpt><trkpt lat="44.74878205675317" lon="8.474739356685195"><ele>275.0</ele><time>2026-05-02T09:39:11.001Z</time></trkpt><trkpt lat="44.74873939580545" lon="8.474640611445592"><ele>275.0</ele><time>2026-05-02T09:39:12.001Z</time></trkpt><trkpt lat="44.74868111282958" lon="8.474537119202125"><ele>275.0</ele><time>2026-05-02T09:39:13.001Z</time></trkpt><trkpt lat="44.74860495767286" lon="8.474422355660357"><ele>277.2</ele><time>2026-05-02T09:39:14.001Z</time></trkpt><trkpt lat="44.748532695943034" lon="8.474301719217943"><ele>279.4</ele><time>2026-05-02T09:39:15.001Z</time></trkpt><trkpt lat="44.74847611376648" lon="8.474156650299419"><ele>281.6</ele><time>2026-05-02T09:39:16.001Z</time></trkpt><trkpt lat="44.748421094775566" lon="8.47403636635096"><ele>283.8</ele><time>2026-05-02T09:39:17.001Z</time></trkpt><trkpt lat="44.748365473810246" lon="8.47392127876586"><ele>286.0</ele><time>2026-05-02T09:39:18.001Z</time></trkpt><trkpt lat="44.74835198507484" lon="8.47378746729575"><ele>284.2</ele><time>2026-05-02T09:39:19.001Z</time></trkpt><trkpt lat="44.7483400497993" lon="8.4736684447592"><ele>282.40000000000003</ele><time>2026-05-02T09:39:20.001Z</time></trkpt><trkpt lat="44.748311799273296" lon="8.473525299331026"><ele>280.6</ele><time>2026-05-02T09:39:21.001Z</time></trkpt><trkpt lat="44.74827028281032" lon="8.47340604458586"><ele>278.8</ele><time>2026-05-02T09:39:22.001Z</time></trkpt><trkpt lat="44.7482194181492" lon="8.47326268720287"><ele>277.0</ele><time>2026-05-02T09:39:23.001Z</time></trkpt><trkpt lat="44.74812880700626" lon="8.473143720384229"><ele>277.0</ele><time>2026-05-02T09:39:24.001Z</time></trkpt><trkpt lat="44.74805225186452" lon="8.473030780574504"><ele>277.0</ele><time>2026-05-02T09:39:25.001Z</time></trkpt><trkpt lat="44.74800661560365" lon="8.472907329550651"><ele>277.0</ele><time>2026-05-02T09:39:26.001Z</time></trkpt><trkpt lat="44.747968650338095" lon="8.47276487496791"><ele>277.0</ele><time>2026-05-02T09:39:27.001Z</time></trkpt><trkpt lat="44.74793709017492" lon="8.472620459732147"><ele>277.0</ele><time>2026-05-02T09:39:28.001Z</time></trkpt><trkpt lat="44.74791802802344" lon="8.472468834146504"><ele>276.4</ele><time>2026-05-02T09:39:29.001Z</time></trkpt><trkpt lat="44.747901889155784" lon="8.472303623101201"><ele>275.79999999999995</ele><time>2026-05-02T09:39:30.001Z</time></trkpt><trkpt lat="44.74788846313098" lon="8.472154841601954"><ele>275.2</ele><time>2026-05-02T09:39:31.001Z</time></trkpt><trkpt lat="44.747885098019495" lon="8.472000179409596"><ele>274.59999999999997</ele><time>2026-05-02T09:39:32.001Z</time></trkpt><trkpt lat="44.74789298043883" lon="8.471841661672757"><ele>274.0</ele><time>2026-05-02T09:39:33.001Z</time></trkpt><trkpt lat="44.7479055160484" lon="8.471684352111843"><ele>274.0</ele><time>2026-05-02T09:39:34.001Z</time></trkpt><trkpt lat="44.747919331649385" lon="8.471513975788518"><ele>274.0</ele><time>2026-05-02T09:39:35.001Z</time></trkpt><trkpt lat="44.74793366385211" lon="8.471342139961017"><ele>274.0</ele><time>2026-05-02T09:39:36.001Z</time></trkpt><trkpt lat="44.74793760084016" lon="8.471165065973773"><ele>274.0</ele><time>2026-05-02T09:39:37.001Z</time></trkpt><trkpt lat="44.74796035903243" lon="8.470982713090859"><ele>274.25</ele><time>2026-05-02T09:39:38.001Z</time></trkpt><trkpt lat="44.74795328195264" lon="8.4708041042306"><ele>274.5</ele><time>2026-05-02T09:39:39.001Z</time></trkpt><trkpt lat="44.74796497820655" lon="8.470627368266484"><ele>274.75</ele><time>2026-05-02T09:39:40.001Z</time></trkpt><trkpt lat="44.74795374157658" lon="8.47044245445703"><ele>275.0</ele><time>2026-05-02T09:39:41.001Z</time></trkpt><trkpt lat="44.74794116736488" lon="8.47028482104895"><ele>277.0</ele><time>2026-05-02T09:39:42.001Z</time></trkpt><trkpt lat="44.74791543595507" lon="8.470138003348564"><ele>279.0</ele><time>2026-05-02T09:39:43.001Z</time></trkpt><trkpt lat="44.747875916602034" lon="8.470004715793197"><ele>281.0</ele><time>2026-05-02T09:39:44.001Z</time></trkpt><trkpt lat="44.74782515987654" lon="8.469873807767115"><ele>283.0</ele><time>2026-05-02T09:39:45.001Z</time></trkpt><trkpt lat="44.74777185324804" lon="8.469740676302331"><ele>285.0</ele><time>2026-05-02T09:39:46.001Z</time></trkpt><trkpt lat="44.747723631557065" lon="8.46963055962659"><ele>284.6666666666667</ele><time>2026-05-02T09:39:47.001Z</time></trkpt><trkpt lat="44.747686791096456" lon="8.46951857101929"><ele>284.3333333333333</ele><time>2026-05-02T09:39:48.001Z</time></trkpt><trkpt lat="44.74765253033878" lon="8.46940867252916"><ele>284.0</ele><time>2026-05-02T09:39:49.001Z</time></trkpt><trkpt lat="44.74761144787879" lon="8.469303287519827"><ele>283.66666666666663</ele><time>2026-05-02T09:39:50.001Z</time></trkpt><trkpt lat="44.74758729876544" lon="8.46921821915704"><ele>283.3333333333333</ele><time>2026-05-02T09:39:52Z</time></trkpt><trkpt lat="44.74754938253891" lon="8.469143859293247"><ele>283.0</ele><time>2026-05-02T09:39:55Z</time></trkpt><trkpt lat="44.7475019650148" lon="8.46907715650024"><ele>283.0</ele><time>2026-05-02T09:40:07Z</time></trkpt><trkpt lat="44.747366679576" lon="8.468986956035813"><ele>283.0</ele><time>2026-05-02T09:40:42.001Z</time></trkpt><trkpt lat="44.74730808573647" lon="8.468925046536135"><ele>283.0</ele><time>2026-05-02T09:40:43.001Z</time></trkpt><trkpt lat="44.74723509194485" lon="8.46884726902214"><ele>283.0</ele><time>2026-05-02T09:40:44.001Z</time></trkpt><trkpt lat="44.747154496061306" lon="8.468785446326468"><ele>283.0</ele><time>2026-05-02T09:40:45.001Z</time></trkpt><trkpt lat="44.747072848012415" lon="8.468697208577346"><ele>283.6</ele><time>2026-05-02T09:40:46.001Z</time></trkpt><trkpt lat="44.74697331510625" lon="8.468622840934255"><ele>284.20000000000005</ele><time>2026-05-02T09:40:47.001Z</time></trkpt><trkpt lat="44.74687347834785" lon="8.468556997103686"><ele>284.8</ele><time>2026-05-02T09:40:48.001Z</time></trkpt><trkpt lat="44.74677436957722" lon="8.468516964447963"><ele>285.40000000000003</ele><time>2026-05-02T09:40:49.001Z</time></trkpt><trkpt lat="44.74667468729912" lon="8.468451512623949"><ele>286.0</ele><time>2026-05-02T09:40:50.001Z</time></trkpt><trkpt lat="44.74658379375065" lon="8.468404307017185"><ele>286.0</ele><time>2026-05-02T09:40:51.001Z</time></trkpt><trkpt lat="44.746508659445006" lon="8.468361546239276"><ele>286.0</ele><time>2026-05-02T09:40:52.001Z</time></trkpt><trkpt lat="44.74642896517253" lon="8.468310718753116"><ele>286.0</ele><time>2026-05-02T09:40:53.001Z</time></trkpt><trkpt lat="44.74635530815597" lon="8.468281119674154"><ele>286.0</ele><time>2026-05-02T09:40:54.001Z</time></trkpt><trkpt lat="44.74627883215538" lon="8.468262106156825"><ele>286.0</ele><time>2026-05-02T09:40:55.001Z</time></trkpt><trkpt lat="44.74619655278921" lon="8.468250893419153"><ele>286.0</ele><time>2026-05-02T09:40:56.001Z</time></trkpt><trkpt lat="44.74611367993626" lon="8.468242958046162"><ele>285.99999999999994</ele><time>2026-05-02T09:40:57.001Z</time></trkpt><trkpt lat="44.74602718847723" lon="8.468241076409816"><ele>286.0</ele><time>2026-05-02T09:40:58.001Z</time></trkpt><trkpt lat="44.74594617753786" lon="8.468245734985391"><ele>286.0</ele><time>2026-05-02T09:40:59.001Z</time></trkpt><trkpt lat="44.74587196915522" lon="8.468252868519476"><ele>286.0</ele><time>2026-05-02T09:41:00.001Z</time></trkpt><trkpt lat="44.74580819515794" lon="8.468258644557043"><ele>286.0</ele><time>2026-05-02T09:41:01.001Z</time></trkpt><trkpt lat="44.745739059386615" lon="8.468262475003275"><ele>285.99999999999994</ele><time>2026-05-02T09:41:02.001Z</time></trkpt><trkpt lat="44.74567113250097" lon="8.4682690697965"><ele>286.0</ele><time>2026-05-02T09:41:03.001Z</time></trkpt><trkpt lat="44.74559406795435" lon="8.468278059380973"><ele>286.0</ele><time>2026-05-02T09:41:04.001Z</time></trkpt><trkpt lat="44.74551695129662" lon="8.468269030503405"><ele>286.0</ele><time>2026-05-02T09:41:05.001Z</time></trkpt><trkpt lat="44.745440029333864" lon="8.46830546625798"><ele>286.0</ele><time>2026-05-02T09:41:06.001Z</time></trkpt><trkpt lat="44.745360663624744" lon="8.468296405780105"><ele>286.0</ele><time>2026-05-02T09:41:07.001Z</time></trkpt><trkpt lat="44.7452813203893" lon="8.468333260968908"><ele>286.0</ele><time>2026-05-02T09:41:08.001Z</time></trkpt><trkpt lat="44.74519679615227" lon="8.468353226976697"><ele>286.0</ele><time>2026-05-02T09:41:09.001Z</time></trkpt><trkpt lat="44.745109976377314" lon="8.468375625897812"><ele>286.8</ele><time>2026-05-02T09:41:10.001Z</time></trkpt><trkpt lat="44.74501251017641" lon="8.468394204901273"><ele>287.6</ele><time>2026-05-02T09:41:11.001Z</time></trkpt><trkpt lat="44.74490673529555" lon="8.468410454988803"><ele>288.4</ele><time>2026-05-02T09:41:12.001Z</time></trkpt><trkpt lat="44.74479708517096" lon="8.46839989784436"><ele>289.2</ele><time>2026-05-02T09:41:13.001Z</time></trkpt><trkpt lat="44.74468403488489" lon="8.468409545011832"><ele>290.0</ele><time>2026-05-02T09:41:14.001Z</time></trkpt><trkpt lat="44.7445669541403" lon="8.468416863857456"><ele>290.0</ele><time>2026-05-02T09:41:15.001Z</time></trkpt><trkpt lat="44.744448911499795" lon="8.468442160969904"><ele>290.0</ele><time>2026-05-02T09:41:16.001Z</time></trkpt><trkpt lat="44.7443372313117" lon="8.46845474383005"><ele>290.0</ele><time>2026-05-02T09:41:17.001Z</time></trkpt><trkpt lat="44.74422331392178" lon="8.468476816628216"><ele>290.0</ele><time>2026-05-02T09:41:18.001Z</time></trkpt><trkpt lat="44.74410766116406" lon="8.46847671653932"><ele>291.2</ele><time>2026-05-02T09:41:19.001Z</time></trkpt><trkpt lat="44.743995957473835" lon="8.468498369004404"><ele>292.4</ele><time>2026-05-02T09:41:20.001Z</time></trkpt><trkpt lat="44.74389187758827" lon="8.468537526790197"><ele>293.6</ele><time>2026-05-02T09:41:21.001Z</time></trkpt><trkpt lat="44.743788720754935" lon="8.468521359405601"><ele>294.8</ele><time>2026-05-02T09:41:22.001Z</time></trkpt><trkpt lat="44.74368397927441" lon="8.468512339517261"><ele>296.0</ele><time>2026-05-02T09:41:23.001Z</time></trkpt><trkpt lat="44.74357319016795" lon="8.468496639442531"><ele>296.2</ele><time>2026-05-02T09:41:24.001Z</time></trkpt><trkpt lat="44.74346920794816" lon="8.468473155672076"><ele>296.40000000000003</ele><time>2026-05-02T09:41:25.001Z</time></trkpt><trkpt lat="44.74336495290191" lon="8.468448888178317"><ele>296.6</ele><time>2026-05-02T09:41:26.001Z</time></trkpt><trkpt lat="44.743267460047264" lon="8.468429483304424"><ele>296.8</ele><time>2026-05-02T09:41:27.001Z</time></trkpt><trkpt lat="44.74316580960166" lon="8.468410167951022"><ele>297.0</ele><time>2026-05-02T09:41:28.001Z</time></trkpt><trkpt lat="44.74305414279073" lon="8.468375960476328"><ele>297.0</ele><time>2026-05-02T09:41:29.001Z</time></trkpt><trkpt lat="44.74294915860519" lon="8.468327979751756"><ele>297.0</ele><time>2026-05-02T09:41:30.001Z</time></trkpt><trkpt lat="44.74284159863522" lon="8.468274881351531"><ele>297.0</ele><time>2026-05-02T09:41:31.001Z</time></trkpt><trkpt lat="44.74273001054415" lon="8.468240994168166"><ele>297.0</ele><time>2026-05-02T09:41:32.001Z</time></trkpt><trkpt lat="44.74263041211876" lon="8.46819282765652"><ele>297.0</ele><time>2026-05-02T09:41:33.001Z</time></trkpt><trkpt lat="44.74253533092916" lon="8.468145545905275"><ele>295.8</ele><time>2026-05-02T09:41:34.001Z</time></trkpt><trkpt lat="44.74244251621364" lon="8.468098886958787"><ele>294.6</ele><time>2026-05-02T09:41:35.001Z</time></trkpt><trkpt lat="44.74234468591052" lon="8.468051941851847"><ele>293.40000000000003</ele><time>2026-05-02T09:41:36.001Z</time></trkpt><trkpt lat="44.74224048597903" lon="8.468001079198594"><ele>292.2</ele><time>2026-05-02T09:41:37.001Z</time></trkpt><trkpt lat="44.74214980349282" lon="8.467949329759069"><ele>291.0</ele><time>2026-05-02T09:41:38.001Z</time></trkpt><trkpt lat="44.74206866985329" lon="8.467902420106833"><ele>290.0</ele><time>2026-05-02T09:41:39.001Z</time></trkpt><trkpt lat="44.74198389388564" lon="8.467855839563825"><ele>289.0</ele><time>2026-05-02T09:41:40.001Z</time></trkpt><trkpt lat="44.74190091482162" lon="8.467814688758994"><ele>288.0</ele><time>2026-05-02T09:41:41.001Z</time></trkpt><trkpt lat="44.741822429032275" lon="8.467772423601591"><ele>287.0</ele><time>2026-05-02T09:41:42.001Z</time></trkpt><trkpt lat="44.741744255032174" lon="8.46773431766542"><ele>286.0</ele><time>2026-05-02T09:41:43.001Z</time></trkpt><trkpt lat="44.741673269768015" lon="8.467697869774856"><ele>285.0</ele><time>2026-05-02T09:41:44.001Z</time></trkpt><trkpt lat="44.74157704872652" lon="8.467649398694967"><ele>285.0</ele><time>2026-05-02T09:41:46.001Z</time></trkpt><trkpt lat="44.74151499596264" lon="8.467603005325918"><ele>285.0</ele><time>2026-05-02T09:41:48.001Z</time></trkpt><trkpt lat="44.74141584509998" lon="8.467589829651184"><ele>285.0</ele><time>2026-05-02T09:41:55.001Z</time></trkpt><trkpt lat="44.74128367081627" lon="8.46758241013275"><ele>285.0</ele><time>2026-05-02T09:41:57.001Z</time></trkpt><trkpt lat="44.74120732449429" lon="8.467602386193292"><ele>285.0</ele><time>2026-05-02T09:41:58Z</time></trkpt><trkpt lat="44.741130560272865" lon="8.467624054241266"><ele>285.0</ele><time>2026-05-02T09:41:59Z</time></trkpt><trkpt lat="44.74105839155763" lon="8.467611760522152"><ele>285.0</ele><time>2026-05-02T09:42:00Z</time></trkpt><trkpt lat="44.74099492221555" lon="8.467639402171372"><ele>285.0</ele><time>2026-05-02T09:42:01Z</time></trkpt><trkpt lat="44.74091559794534" lon="8.467613201376126"><ele>285.0</ele><time>2026-05-02T09:42:03Z</time></trkpt><trkpt lat="44.740898685983176" lon="8.467464631027466"><ele>285.0</ele><time>2026-05-02T09:42:04Z</time></trkpt><trkpt lat="44.74087198583717" lon="8.467382431284507"><ele>285.0</ele><time>2026-05-02T09:42:05Z</time></trkpt><trkpt lat="44.74083553303953" lon="8.46728933872999"><ele>286.6</ele><time>2026-05-02T09:42:06Z</time></trkpt><trkpt lat="44.74077273610725" lon="8.467206130061724"><ele>288.2</ele><time>2026-05-02T09:42:07Z</time></trkpt><trkpt lat="44.74071447143505" lon="8.467117914467996"><ele>289.8</ele><time>2026-05-02T09:42:08Z</time></trkpt><trkpt lat="44.74063226905007" lon="8.467022645096295"><ele>291.4</ele><time>2026-05-02T09:42:09Z</time></trkpt><trkpt lat="44.7405644116313" lon="8.466915374570743"><ele>293.0</ele><time>2026-05-02T09:42:10Z</time></trkpt><trkpt lat="44.740482603225615" lon="8.466807702896194"><ele>293.25</ele><time>2026-05-02T09:42:11Z</time></trkpt><trkpt lat="44.74039227395705" lon="8.466684986573727"><ele>293.5</ele><time>2026-05-02T09:42:12Z</time></trkpt><trkpt lat="44.740296522710814" lon="8.466545397213826"><ele>293.75</ele><time>2026-05-02T09:42:13Z</time></trkpt><trkpt lat="44.74022493909331" lon="8.466424989242746"><ele>294.0</ele><time>2026-05-02T09:42:14Z</time></trkpt><trkpt lat="44.74016239062786" lon="8.466302499182193"><ele>295.75</ele><time>2026-05-02T09:42:15Z</time></trkpt><trkpt lat="44.74009889838157" lon="8.46616555380706"><ele>297.5</ele><time>2026-05-02T09:42:16Z</time></trkpt><trkpt lat="44.74003941958611" lon="8.466041120161092"><ele>299.25</ele><time>2026-05-02T09:42:17Z</time></trkpt><trkpt lat="44.739963158081444" lon="8.465917089993606"><ele>301.0</ele><time>2026-05-02T09:42:18Z</time></trkpt><trkpt lat="44.739900153546174" lon="8.465760339201328"><ele>301.0</ele><time>2026-05-02T09:42:19Z</time></trkpt><trkpt lat="44.739830120377555" lon="8.465632906064842"><ele>301.0</ele><time>2026-05-02T09:42:20Z</time></trkpt><trkpt lat="44.739757533346385" lon="8.465493425882949"><ele>301.0</ele><time>2026-05-02T09:42:21Z</time></trkpt><trkpt lat="44.73968162761756" lon="8.465346343093657"><ele>301.0</ele><time>2026-05-02T09:42:22Z</time></trkpt><trkpt lat="44.7396063231145" lon="8.465197057466273"><ele>302.5</ele><time>2026-05-02T09:42:23Z</time></trkpt><trkpt lat="44.73953612417196" lon="8.465061087403832"><ele>304.0</ele><time>2026-05-02T09:42:24Z</time></trkpt><trkpt lat="44.739451471232975" lon="8.464934901163183"><ele>305.5</ele><time>2026-05-02T09:42:25Z</time></trkpt><trkpt lat="44.73935590330134" lon="8.464858922001048"><ele>307.0</ele><time>2026-05-02T09:42:26Z</time></trkpt><trkpt lat="44.7392515503183" lon="8.464770880803627"><ele>307.0</ele><time>2026-05-02T09:42:27Z</time></trkpt><trkpt lat="44.739147990935116" lon="8.464700045221615"><ele>307.0</ele><time>2026-05-02T09:42:28Z</time></trkpt><trkpt lat="44.73905183381215" lon="8.464628699403097"><ele>307.0</ele><time>2026-05-02T09:42:29Z</time></trkpt><trkpt lat="44.7389716198908" lon="8.464578632603038"><ele>307.0</ele><time>2026-05-02T09:42:30Z</time></trkpt><trkpt lat="44.73889760206925" lon="8.464576298611297"><ele>307.0</ele><time>2026-05-02T09:42:31Z</time></trkpt><trkpt lat="44.738808192180976" lon="8.464582387987807"><ele>307.6</ele><time>2026-05-02T09:42:32Z</time></trkpt><trkpt lat="44.73871354260805" lon="8.4645779903493"><ele>308.2</ele><time>2026-05-02T09:42:33Z</time></trkpt><trkpt lat="44.73862180616143" lon="8.464560471624601"><ele>308.8</ele><time>2026-05-02T09:42:34Z</time></trkpt><trkpt lat="44.73851762371173" lon="8.464517384832101"><ele>309.4</ele><time>2026-05-02T09:42:35Z</time></trkpt><trkpt lat="44.73840830700716" lon="8.464457649258074"><ele>310.0</ele><time>2026-05-02T09:42:36Z</time></trkpt><trkpt lat="44.738302821546526" lon="8.464408898690976"><ele>310.0</ele><time>2026-05-02T09:42:37Z</time></trkpt><trkpt lat="44.73820046182865" lon="8.464326980390158"><ele>310.0</ele><time>2026-05-02T09:42:38Z</time></trkpt><trkpt lat="44.73811409976173" lon="8.464237255884196"><ele>310.0</ele><time>2026-05-02T09:42:39Z</time></trkpt><trkpt lat="44.7380579289383" lon="8.464151703156015"><ele>310.0</ele><time>2026-05-02T09:42:40Z</time></trkpt><trkpt lat="44.73805428056449" lon="8.463967231557632"><ele>310.0</ele><time>2026-05-02T09:42:42Z</time></trkpt><trkpt lat="44.73803070837162" lon="8.463842132836323"><ele>310.2</ele><time>2026-05-02T09:42:43Z</time></trkpt><trkpt lat="44.73804027616621" lon="8.463702642301742"><ele>310.4</ele><time>2026-05-02T09:42:44Z</time></trkpt><trkpt lat="44.73802461274083" lon="8.463555136045645"><ele>310.6</ele><time>2026-05-02T09:42:45Z</time></trkpt><trkpt lat="44.73798276127069" lon="8.463419355840976"><ele>310.8</ele><time>2026-05-02T09:42:46Z</time></trkpt><trkpt lat="44.737947589109204" lon="8.463264716005682"><ele>311.0</ele><time>2026-05-02T09:42:47Z</time></trkpt><trkpt lat="44.7378680416184" lon="8.463124074973276"><ele>311.0</ele><time>2026-05-02T09:42:48Z</time></trkpt><trkpt lat="44.737790163600515" lon="8.462983293832876"><ele>311.0</ele><time>2026-05-02T09:42:49Z</time></trkpt><trkpt lat="44.73772216278471" lon="8.46285282398179"><ele>311.0</ele><time>2026-05-02T09:42:50Z</time></trkpt><trkpt lat="44.73765444985136" lon="8.462735949246552"><ele>311.0</ele><time>2026-05-02T09:42:51Z</time></trkpt><trkpt lat="44.737571608045116" lon="8.462637024586911"><ele>314.25</ele><time>2026-05-02T09:42:52Z</time></trkpt><trkpt lat="44.73748441844133" lon="8.46255442127128"><ele>317.5</ele><time>2026-05-02T09:42:53Z</time></trkpt><trkpt lat="44.73741279239475" lon="8.462434062500956"><ele>320.75</ele><time>2026-05-02T09:42:54Z</time></trkpt><trkpt lat="44.73732177581726" lon="8.462332316237948"><ele>324.0</ele><time>2026-05-02T09:42:55Z</time></trkpt><trkpt lat="44.73724237091465" lon="8.46219254913924"><ele>323.0</ele><time>2026-05-02T09:42:56Z</time></trkpt><trkpt lat="44.73716012079354" lon="8.462056398309748"><ele>322.0</ele><time>2026-05-02T09:42:57Z</time></trkpt><trkpt lat="44.737075744834506" lon="8.461915197881567"><ele>321.0</ele><time>2026-05-02T09:42:58Z</time></trkpt><trkpt lat="44.73698582054124" lon="8.461774216344105"><ele>320.0</ele><time>2026-05-02T09:42:59Z</time></trkpt><trkpt lat="44.73691774266491" lon="8.461611855338825"><ele>322.5</ele><time>2026-05-02T09:43:00Z</time></trkpt><trkpt lat="44.73684149912782" lon="8.461467841186789"><ele>325.0</ele><time>2026-05-02T09:43:01Z</time></trkpt><trkpt lat="44.7367919660627" lon="8.46129416640468"><ele>327.5</ele><time>2026-05-02T09:43:02Z</time></trkpt><trkpt lat="44.73678108419879" lon="8.46113364380157"><ele>330.0</ele><time>2026-05-02T09:43:03Z</time></trkpt><trkpt lat="44.73674143703014" lon="8.460960861439546"><ele>330.0</ele><time>2026-05-02T09:43:04Z</time></trkpt><trkpt lat="44.73672723755919" lon="8.460824143434369"><ele>330.0</ele><time>2026-05-02T09:43:05Z</time></trkpt><trkpt lat="44.736714320941466" lon="8.460722164866919"><ele>330.0</ele><time>2026-05-02T09:43:06Z</time></trkpt><trkpt lat="44.736702229599295" lon="8.460599609358002"><ele>330.0</ele><time>2026-05-02T09:43:08.001Z</time></trkpt><trkpt lat="44.73677269785658" lon="8.460480241632549"><ele>330.0</ele><time>2026-05-02T09:43:11.001Z</time></trkpt><trkpt lat="44.736799705445584" lon="8.460396032394549"><ele>330.0</ele><time>2026-05-02T09:43:12.001Z</time></trkpt><trkpt lat="44.73684284626378" lon="8.460287524653294"><ele>330.2</ele><time>2026-05-02T09:43:13.001Z</time></trkpt><trkpt lat="44.73689394835524" lon="8.460168154265572"><ele>330.4</ele><time>2026-05-02T09:43:14.001Z</time></trkpt><trkpt lat="44.736950101343155" lon="8.460057993771644"><ele>330.6</ele><time>2026-05-02T09:43:15.001Z</time></trkpt><trkpt lat="44.73702079455939" lon="8.459976318881408"><ele>330.8</ele><time>2026-05-02T09:43:16.001Z</time></trkpt><trkpt lat="44.73709937644109" lon="8.45992272029992"><ele>331.0</ele><time>2026-05-02T09:43:17.001Z</time></trkpt><trkpt lat="44.73719991189957" lon="8.459935239749203"><ele>331.0</ele><time>2026-05-02T09:43:18.001Z</time></trkpt><trkpt lat="44.73731229750399" lon="8.459912655833552"><ele>331.0</ele><time>2026-05-02T09:43:19.001Z</time></trkpt><trkpt lat="44.73745482269518" lon="8.459885611574963"><ele>331.0</ele><time>2026-05-02T09:43:20.001Z</time></trkpt><trkpt lat="44.73758664143756" lon="8.459857078571606"><ele>331.0</ele><time>2026-05-02T09:43:21.001Z</time></trkpt><trkpt lat="44.7377336270591" lon="8.459818880283404"><ele>327.0</ele><time>2026-05-02T09:43:22.001Z</time></trkpt><trkpt lat="44.73787761475393" lon="8.460032599717062"><ele>323.0</ele><time>2026-05-02T09:43:23.001Z</time></trkpt><trkpt lat="44.73811975236646" lon="8.460003852223961"><ele>323.0</ele><time>2026-05-02T09:43:25.001Z</time></trkpt><trkpt lat="44.73822120134276" lon="8.45999180781515"><ele>323.0</ele><time>2026-05-02T09:43:26.001Z</time></trkpt><trkpt lat="44.738309561993916" lon="8.459714022888136"><ele>323.0</ele><time>2026-05-02T09:43:27.001Z</time></trkpt><trkpt lat="44.73841691125438" lon="8.459723051406055"><ele>323.0</ele><time>2026-05-02T09:43:28.001Z</time></trkpt><trkpt lat="44.73852109869359" lon="8.459735298396955"><ele>322.79999999999995</ele><time>2026-05-02T09:43:29.001Z</time></trkpt><trkpt lat="44.73861482869723" lon="8.459738918675782"><ele>322.6</ele><time>2026-05-02T09:43:30.001Z</time></trkpt><trkpt lat="44.73870598252101" lon="8.459720947361271"><ele>322.4</ele><time>2026-05-02T09:43:31.001Z</time></trkpt><trkpt lat="44.7388023461794" lon="8.459678422251251"><ele>322.20000000000005</ele><time>2026-05-02T09:43:32.001Z</time></trkpt><trkpt lat="44.738900792039" lon="8.459607844969222"><ele>322.0</ele><time>2026-05-02T09:43:33.001Z</time></trkpt><trkpt lat="44.738988206449044" lon="8.45953131495165"><ele>322.0</ele><time>2026-05-02T09:43:34.001Z</time></trkpt><trkpt lat="44.73908335316075" lon="8.459462596515332"><ele>322.0</ele><time>2026-05-02T09:43:35.001Z</time></trkpt><trkpt lat="44.739172829620344" lon="8.459402780236026"><ele>322.0</ele><time>2026-05-02T09:43:36.001Z</time></trkpt><trkpt lat="44.73924240056243" lon="8.459347682440573"><ele>322.0</ele><time>2026-05-02T09:43:37.001Z</time></trkpt><trkpt lat="44.739299964861225" lon="8.459295588822425"><ele>322.0</ele><time>2026-05-02T09:43:38.001Z</time></trkpt><trkpt lat="44.73936894889253" lon="8.459235695647113"><ele>322.0</ele><time>2026-05-02T09:43:39.001Z</time></trkpt><trkpt lat="44.73943086804055" lon="8.459168955226625"><ele>322.0</ele><time>2026-05-02T09:43:40.001Z</time></trkpt><trkpt lat="44.73948778317105" lon="8.4590855746373"><ele>322.0</ele><time>2026-05-02T09:43:41.001Z</time></trkpt><trkpt lat="44.739548386962895" lon="8.458985562699283"><ele>322.0</ele><time>2026-05-02T09:43:42.001Z</time></trkpt><trkpt lat="44.73961523374815" lon="8.458875662400242"><ele>322.0</ele><time>2026-05-02T09:43:43.001Z</time></trkpt><trkpt lat="44.73968134557117" lon="8.458753411930623"><ele>322.0</ele><time>2026-05-02T09:43:44.001Z</time></trkpt><trkpt lat="44.73973405769022" lon="8.458612604812572"><ele>322.25</ele><time>2026-05-02T09:43:45.001Z</time></trkpt><trkpt lat="44.739781211408996" lon="8.458459479132319"><ele>322.5</ele><time>2026-05-02T09:43:46.001Z</time></trkpt><trkpt lat="44.73983019480407" lon="8.458297396602193"><ele>322.75</ele><time>2026-05-02T09:43:47.001Z</time></trkpt><trkpt lat="44.73987881027047" lon="8.458141324557033"><ele>323.0</ele><time>2026-05-02T09:43:48.001Z</time></trkpt><trkpt lat="44.73992739497068" lon="8.458007231815234"><ele>321.83333333333337</ele><time>2026-05-02T09:43:49.001Z</time></trkpt><trkpt lat="44.73998386947605" lon="8.4578866853625"><ele>320.6666666666667</ele><time>2026-05-02T09:43:50.001Z</time></trkpt><trkpt lat="44.740051976396046" lon="8.457774304744287"><ele>319.5</ele><time>2026-05-02T09:43:51.001Z</time></trkpt><trkpt lat="44.740124517131235" lon="8.457682658064305"><ele>318.3333333333333</ele><time>2026-05-02T09:43:52.001Z</time></trkpt><trkpt lat="44.74018754538225" lon="8.45762758390301"><ele>317.16666666666663</ele><time>2026-05-02T09:43:53.001Z</time></trkpt><trkpt lat="44.74025194040523" lon="8.457612602281737"><ele>316.0</ele><time>2026-05-02T09:43:54.001Z</time></trkpt><trkpt lat="44.740319449170215" lon="8.457630742046936"><ele>314.8333333333333</ele><time>2026-05-02T09:43:55.001Z</time></trkpt><trkpt lat="44.7403847407135" lon="8.457692262303382"><ele>313.66666666666663</ele><time>2026-05-02T09:43:56.001Z</time></trkpt><trkpt lat="44.740456064739284" lon="8.457754451333482"><ele>312.5</ele><time>2026-05-02T09:43:57.001Z</time></trkpt><trkpt lat="44.74053107097477" lon="8.457793283205193"><ele>311.3333333333333</ele><time>2026-05-02T09:43:58.001Z</time></trkpt><trkpt lat="44.74062407203854" lon="8.457836122742105"><ele>310.1666666666667</ele><time>2026-05-02T09:43:59.001Z</time></trkpt><trkpt lat="44.74071873986765" lon="8.45789188154371"><ele>309.0</ele><time>2026-05-02T09:44:00.001Z</time></trkpt><trkpt lat="44.740803617348064" lon="8.457950747939034"><ele>309.8333333333333</ele><time>2026-05-02T09:44:01.001Z</time></trkpt><trkpt lat="44.74088476077026" lon="8.457988673234018"><ele>310.6666666666667</ele><time>2026-05-02T09:44:02.001Z</time></trkpt><trkpt lat="44.740960509803266" lon="8.4580030566799"><ele>311.5</ele><time>2026-05-02T09:44:03.001Z</time></trkpt><trkpt lat="44.74104738970803" lon="8.457994055940919"><ele>312.33333333333337</ele><time>2026-05-02T09:44:04Z</time></trkpt><trkpt lat="44.741130458442214" lon="8.457944806051547"><ele>313.1666666666667</ele><time>2026-05-02T09:44:05Z</time></trkpt><trkpt lat="44.74119976604345" lon="8.457859645057411"><ele>314.0</ele><time>2026-05-02T09:44:06Z</time></trkpt><trkpt lat="44.74125210468737" lon="8.457778469042864"><ele>311.33333333333337</ele><time>2026-05-02T09:44:07Z</time></trkpt><trkpt lat="44.74130696911506" lon="8.457724674475184"><ele>308.6666666666667</ele><time>2026-05-02T09:44:08Z</time></trkpt><trkpt lat="44.74138049247823" lon="8.457630628438357"><ele>306.0</ele><time>2026-05-02T09:44:10Z</time></trkpt><trkpt lat="44.74127733081315" lon="8.457736118241343"><ele>303.3333333333333</ele><time>2026-05-02T09:45:15.001Z</time></trkpt><trkpt lat="44.741215502848235" lon="8.457786038635817"><ele>300.66666666666663</ele><time>2026-05-02T09:45:16.001Z</time></trkpt><trkpt lat="44.741161202218734" lon="8.457863273648755"><ele>298.0</ele><time>2026-05-02T09:45:17.001Z</time></trkpt><trkpt lat="44.74110130841892" lon="8.457945795971682"><ele>300.2</ele><time>2026-05-02T09:45:18.001Z</time></trkpt><trkpt lat="44.741029824876854" lon="8.457995936797474"><ele>302.4</ele><time>2026-05-02T09:45:19.001Z</time></trkpt><trkpt lat="44.74096710177107" lon="8.458056648027249"><ele>304.59999999999997</ele><time>2026-05-02T09:45:20.001Z</time></trkpt><trkpt lat="44.74088327571182" lon="8.458086166410785"><ele>306.8</ele><time>2026-05-02T09:45:21.001Z</time></trkpt><trkpt lat="44.74076417031105" lon="8.458001154377202"><ele>309.0</ele><time>2026-05-02T09:45:22.001Z</time></trkpt><trkpt lat="44.74065647073635" lon="8.457926070416203"><ele>309.0</ele><time>2026-05-02T09:45:23.001Z</time></trkpt><trkpt lat="44.74055007786576" lon="8.45775710323311"><ele>309.0</ele><time>2026-05-02T09:45:24.001Z</time></trkpt><trkpt lat="44.74043871752974" lon="8.457642731072008"><ele>309.0</ele><time>2026-05-02T09:45:25.001Z</time></trkpt><trkpt lat="44.74034731618756" lon="8.457590499487766"><ele>309.0</ele><time>2026-05-02T09:45:26.001Z</time></trkpt><trkpt lat="44.740267299114876" lon="8.457587507880064"><ele>310.1666666666667</ele><time>2026-05-02T09:45:27.001Z</time></trkpt><trkpt lat="44.740193602034175" lon="8.4576047271477"><ele>311.3333333333333</ele><time>2026-05-02T09:45:28.001Z</time></trkpt><trkpt lat="44.74012362991776" lon="8.457659624626084"><ele>312.5</ele><time>2026-05-02T09:45:29.001Z</time></trkpt><trkpt lat="44.74006398185314" lon="8.457735707320818"><ele>313.66666666666663</ele><time>2026-05-02T09:45:30.001Z</time></trkpt><trkpt lat="44.73999988482023" lon="8.45782951010845"><ele>314.8333333333333</ele><time>2026-05-02T09:45:31.001Z</time></trkpt><trkpt lat="44.73994224078664" lon="8.457948083271836"><ele>316.0</ele><time>2026-05-02T09:45:32.001Z</time></trkpt><trkpt lat="44.73989266359753" lon="8.458082089581094"><ele>317.4</ele><time>2026-05-02T09:45:33.001Z</time></trkpt><trkpt lat="44.739849113548516" lon="8.458222792101354"><ele>318.8</ele><time>2026-05-02T09:45:34.001Z</time></trkpt><trkpt lat="44.73980922363087" lon="8.458353297541931"><ele>320.2</ele><time>2026-05-02T09:45:35.001Z</time></trkpt><trkpt lat="44.73977511790745" lon="8.458463209887114"><ele>321.59999999999997</ele><time>2026-05-02T09:45:36.001Z</time></trkpt><trkpt lat="44.73974290481412" lon="8.458595093773333"><ele>323.0</ele><time>2026-05-02T09:45:38.001Z</time></trkpt><trkpt lat="44.73982976831522" lon="8.458668392710912"><ele>323.0</ele><time>2026-05-02T09:45:40.001Z</time></trkpt><trkpt lat="44.73990067036477" lon="8.458699774631807"><ele>323.0</ele><time>2026-05-02T09:45:41.001Z</time></trkpt><trkpt lat="44.739969023385825" lon="8.458770064806007"><ele>323.0</ele><time>2026-05-02T09:45:42.001Z</time></trkpt><trkpt lat="44.740015371640986" lon="8.458836115261269"><ele>323.0</ele><time>2026-05-02T09:45:43.001Z</time></trkpt><trkpt lat="44.740087991271956" lon="8.458865034150593"><ele>323.0</ele><time>2026-05-02T09:45:45.001Z</time></trkpt><trkpt lat="44.74017984509627" lon="8.45877343294247"><ele>323.0</ele><time>2026-05-02T09:45:47.001Z</time></trkpt><trkpt lat="44.740233848688725" lon="8.458822568424349"><ele>320.59999999999997</ele><time>2026-05-02T09:45:48.001Z</time></trkpt><trkpt lat="44.74029982714606" lon="8.458921000569333"><ele>318.2</ele><time>2026-05-02T09:45:49.001Z</time></trkpt><trkpt lat="44.74036884366054" lon="8.459005814367602"><ele>315.8</ele><time>2026-05-02T09:45:50.001Z</time></trkpt><trkpt lat="44.740426897595896" lon="8.459061906593343"><ele>313.4</ele><time>2026-05-02T09:45:51.001Z</time></trkpt><trkpt lat="44.74049457310917" lon="8.459168295392793"><ele>311.0</ele><time>2026-05-02T09:45:53.001Z</time></trkpt><trkpt lat="44.74048056237323" lon="8.459362625747723"><ele>311.0</ele><time>2026-05-02T09:45:55.001Z</time></trkpt><trkpt lat="44.740480534306855" lon="8.459496707144423"><ele>311.0</ele><time>2026-05-02T09:45:56.001Z</time></trkpt><trkpt lat="44.7404825878273" lon="8.459586965859444"><ele>311.0</ele><time>2026-05-02T09:45:57.001Z</time></trkpt><trkpt lat="44.74050764263033" lon="8.459669712931749"><ele>311.0</ele><time>2026-05-02T09:45:59.001Z</time></trkpt><trkpt lat="44.740597673620925" lon="8.459720289539506"><ele>311.0</ele><time>2026-05-02T09:46:01.001Z</time></trkpt><trkpt lat="44.740687942839465" lon="8.459722643159486"><ele>311.0</ele><time>2026-05-02T09:46:02.001Z</time></trkpt><trkpt lat="44.74078403389309" lon="8.459722469251817"><ele>309.25</ele><time>2026-05-02T09:46:03.001Z</time></trkpt><trkpt lat="44.74090047887509" lon="8.459748779822808"><ele>307.5</ele><time>2026-05-02T09:46:04.001Z</time></trkpt><trkpt lat="44.741025718364796" lon="8.45978241521027"><ele>305.75</ele><time>2026-05-02T09:46:05.001Z</time></trkpt><trkpt lat="44.74116137970303" lon="8.459819935633615"><ele>304.0</ele><time>2026-05-02T09:46:06.001Z</time></trkpt><trkpt lat="44.74129716346646" lon="8.459856287070023"><ele>302.4</ele><time>2026-05-02T09:46:07.001Z</time></trkpt><trkpt lat="44.741409490567705" lon="8.459894074651308"><ele>300.79999999999995</ele><time>2026-05-02T09:46:08.001Z</time></trkpt><trkpt lat="44.74150057271209" lon="8.459928748904035"><ele>299.20000000000005</ele><time>2026-05-02T09:46:09.001Z</time></trkpt><trkpt lat="44.74157938714592" lon="8.459955105957434"><ele>297.6</ele><time>2026-05-02T09:46:10Z</time></trkpt><trkpt lat="44.74164986175847" lon="8.459990863171912"><ele>296.0</ele><time>2026-05-02T09:46:11Z</time></trkpt><trkpt lat="44.741734573540334" lon="8.46009039920827"><ele>296.0</ele><time>2026-05-02T09:46:13Z</time></trkpt><trkpt lat="44.741739516213634" lon="8.460195583600841"><ele>296.0</ele><time>2026-05-02T09:46:14Z</time></trkpt><trkpt lat="44.74172220111668" lon="8.460327409650617"><ele>296.0</ele><time>2026-05-02T09:46:15Z</time></trkpt><trkpt lat="44.741709889534164" lon="8.46046021697023"><ele>296.0</ele><time>2026-05-02T09:46:16Z</time></trkpt><trkpt lat="44.74172434209292" lon="8.460567357664964"><ele>296.0</ele><time>2026-05-02T09:46:17Z</time></trkpt><trkpt lat="44.74178302310112" lon="8.460700552980677"><ele>294.6</ele><time>2026-05-02T09:46:18Z</time></trkpt><trkpt lat="44.74185852177037" lon="8.460814119516712"><ele>293.20000000000005</ele><time>2026-05-02T09:46:19Z</time></trkpt><trkpt lat="44.741928316193665" lon="8.460893052225911"><ele>291.79999999999995</ele><time>2026-05-02T09:46:20Z</time></trkpt><trkpt lat="44.74202171776034" lon="8.460931984225592"><ele>290.4</ele><time>2026-05-02T09:46:21Z</time></trkpt><trkpt lat="44.7421462566869" lon="8.460957026907735"><ele>289.0</ele><time>2026-05-02T09:46:22Z</time></trkpt><trkpt lat="44.742277919662484" lon="8.460967441806378"><ele>288.25</ele><time>2026-05-02T09:46:23Z</time></trkpt><trkpt lat="44.742413869500375" lon="8.460990559037675"><ele>287.5</ele><time>2026-05-02T09:46:24Z</time></trkpt><trkpt lat="44.74254544189554" lon="8.46102337962905"><ele>286.75</ele><time>2026-05-02T09:46:25Z</time></trkpt><trkpt lat="44.74265571817594" lon="8.461058348293022"><ele>286.0</ele><time>2026-05-02T09:46:26Z</time></trkpt><trkpt lat="44.74275080539922" lon="8.461097427336389"><ele>285.66666666666663</ele><time>2026-05-02T09:46:27Z</time></trkpt><trkpt lat="44.74282470793118" lon="8.461138510102463"><ele>285.3333333333333</ele><time>2026-05-02T09:46:28Z</time></trkpt><trkpt lat="44.7428797516292" lon="8.461202515694564"><ele>285.0</ele><time>2026-05-02T09:46:29Z</time></trkpt><trkpt lat="44.74292644592034" lon="8.461305610808424"><ele>284.6666666666667</ele><time>2026-05-02T09:46:30Z</time></trkpt><trkpt lat="44.74295614772672" lon="8.461437928490438"><ele>284.33333333333337</ele><time>2026-05-02T09:46:31Z</time></trkpt><trkpt lat="44.74300061149898" lon="8.461568659634676"><ele>284.0</ele><time>2026-05-02T09:46:32Z</time></trkpt><trkpt lat="44.74306318975499" lon="8.461702140364586"><ele>284.0</ele><time>2026-05-02T09:46:33Z</time></trkpt><trkpt lat="44.74313798524719" lon="8.461835927665325"><ele>284.0</ele><time>2026-05-02T09:46:34Z</time></trkpt><trkpt lat="44.74320321875261" lon="8.461968435866925"><ele>284.0</ele><time>2026-05-02T09:46:35Z</time></trkpt><trkpt lat="44.743260375008624" lon="8.462095609552607"><ele>284.0</ele><time>2026-05-02T09:46:36Z</time></trkpt><trkpt lat="44.74331810144566" lon="8.462217404464964"><ele>284.0</ele><time>2026-05-02T09:46:37Z</time></trkpt><trkpt lat="44.74337393703941" lon="8.462314700844939"><ele>281.59999999999997</ele><time>2026-05-02T09:46:38Z</time></trkpt><trkpt lat="44.74344538173494" lon="8.462409792607431"><ele>279.2</ele><time>2026-05-02T09:46:39Z</time></trkpt><trkpt lat="44.74352583151468" lon="8.4624929117375"><ele>276.79999999999995</ele><time>2026-05-02T09:46:40Z</time></trkpt><trkpt lat="44.743604442178075" lon="8.462568902512475"><ele>274.4</ele><time>2026-05-02T09:46:41Z</time></trkpt><trkpt lat="44.743678311552785" lon="8.462613149705573"><ele>272.0</ele><time>2026-05-02T09:46:42Z</time></trkpt><trkpt lat="44.74377881183428" lon="8.462647070047819"><ele>271.0</ele><time>2026-05-02T09:46:43Z</time></trkpt><trkpt lat="44.74389080693383" lon="8.462646776779888"><ele>270.0</ele><time>2026-05-02T09:46:44Z</time></trkpt><trkpt lat="44.74400869446321" lon="8.462633779674883"><ele>269.0</ele><time>2026-05-02T09:46:45Z</time></trkpt><trkpt lat="44.74414093838082" lon="8.462604324278919"><ele>268.0</ele><time>2026-05-02T09:46:46Z</time></trkpt><trkpt lat="44.74427912102765" lon="8.462559201772905"><ele>265.75</ele><time>2026-05-02T09:46:47Z</time></trkpt><trkpt lat="44.744420357640514" lon="8.462507474649037"><ele>263.5</ele><time>2026-05-02T09:46:48Z</time></trkpt><trkpt lat="44.7445521864561" lon="8.46246548552166"><ele>261.25</ele><time>2026-05-02T09:46:49Z</time></trkpt><trkpt lat="44.7446837402615" lon="8.462438244890402"><ele>259.0</ele><time>2026-05-02T09:46:50Z</time></trkpt><trkpt lat="44.744815345315764" lon="8.462438830558748"><ele>259.0</ele><time>2026-05-02T09:46:51Z</time></trkpt><trkpt lat="44.744947555785906" lon="8.462458218485436"><ele>259.0</ele><time>2026-05-02T09:46:52Z</time></trkpt><trkpt lat="44.74507588273583" lon="8.462477220259514"><ele>259.0</ele><time>2026-05-02T09:46:53Z</time></trkpt><trkpt lat="44.745184451742176" lon="8.462507096956706"><ele>259.0</ele><time>2026-05-02T09:46:54Z</time></trkpt><trkpt lat="44.74526372292852" lon="8.462535743472257"><ele>259.0</ele><time>2026-05-02T09:46:55Z</time></trkpt><trkpt lat="44.745326790107335" lon="8.462560524749762"><ele>259.0</ele><time>2026-05-02T09:46:56Z</time></trkpt><trkpt lat="44.74539217972454" lon="8.462567159452282"><ele>259.0</ele><time>2026-05-02T09:46:58Z</time></trkpt><trkpt lat="44.745560706999086" lon="8.46262579344234"><ele>259.0</ele><time>2026-05-02T09:47:52.001Z</time></trkpt><trkpt lat="44.745659266559315" lon="8.462645063818432"><ele>259.0</ele><time>2026-05-02T09:47:53.001Z</time></trkpt><trkpt lat="44.745756448352594" lon="8.462656796830759"><ele>259.0</ele><time>2026-05-02T09:47:54.001Z</time></trkpt><trkpt lat="44.74587328538683" lon="8.46269021741497"><ele>259.0</ele><time>2026-05-02T09:47:55.001Z</time></trkpt><trkpt lat="44.74599165820125" lon="8.462711132147081"><ele>259.0</ele><time>2026-05-02T09:47:56.001Z</time></trkpt><trkpt lat="44.74611188683794" lon="8.462734933793797"><ele>259.0</ele><time>2026-05-02T09:47:57.001Z</time></trkpt><trkpt lat="44.74622821643085" lon="8.462761709789174"><ele>258.4</ele><time>2026-05-02T09:47:58.001Z</time></trkpt><trkpt lat="44.74632720944586" lon="8.462776897508638"><ele>257.79999999999995</ele><time>2026-05-02T09:47:59.001Z</time></trkpt><trkpt lat="44.74643465149489" lon="8.462790516829193"><ele>257.20000000000005</ele><time>2026-05-02T09:48:00.001Z</time></trkpt><trkpt lat="44.7465470053868" lon="8.462812782249086"><ele>256.6</ele><time>2026-05-02T09:48:01.001Z</time></trkpt><trkpt lat="44.74665914288307" lon="8.462841310016552"><ele>256.0</ele><time>2026-05-02T09:48:02.001Z</time></trkpt><trkpt lat="44.74677147064725" lon="8.462872738286807"><ele>255.25</ele><time>2026-05-02T09:48:03.001Z</time></trkpt><trkpt lat="44.7468894417993" lon="8.462899205175944"><ele>254.5</ele><time>2026-05-02T09:48:04.001Z</time></trkpt><trkpt lat="44.747016060778435" lon="8.462935205141092"><ele>253.75</ele><time>2026-05-02T09:48:05.001Z</time></trkpt><trkpt lat="44.74712965934165" lon="8.462959298517454"><ele>253.0</ele><time>2026-05-02T09:48:06.001Z</time></trkpt><trkpt lat="44.747227820340534" lon="8.462980917268956"><ele>253.0</ele><time>2026-05-02T09:48:07.001Z</time></trkpt><trkpt lat="44.74733592481854" lon="8.463008678584341"><ele>253.0</ele><time>2026-05-02T09:48:08.001Z</time></trkpt><trkpt lat="44.7474408553272" lon="8.463033647424892"><ele>253.0</ele><time>2026-05-02T09:48:09.001Z</time></trkpt><trkpt lat="44.7475299557569" lon="8.463054276429437"><ele>253.0</ele><time>2026-05-02T09:48:10.001Z</time></trkpt><trkpt lat="44.74759602488195" lon="8.4630816873221"><ele>253.0</ele><time>2026-05-02T09:48:11.001Z</time></trkpt><trkpt lat="44.74767525573055" lon="8.463110999911668"><ele>252.99999999999997</ele><time>2026-05-02T09:48:13.001Z</time></trkpt><trkpt lat="44.747733517440466" lon="8.463155523280184"><ele>253.0</ele><time>2026-05-02T09:48:14.001Z</time></trkpt><trkpt lat="44.747803816266554" lon="8.463217693033185"><ele>253.0</ele><time>2026-05-02T09:48:15.001Z</time></trkpt><trkpt lat="44.74787888900481" lon="8.463290572151344"><ele>253.0</ele><time>2026-05-02T09:48:16Z</time></trkpt><trkpt lat="44.7479661234499" lon="8.46335989088019"><ele>252.99999999999997</ele><time>2026-05-02T09:48:17Z</time></trkpt><trkpt lat="44.74804412587148" lon="8.463428428747942"><ele>253.0</ele><time>2026-05-02T09:48:18Z</time></trkpt><trkpt lat="44.74812050671444" lon="8.463494315178487"><ele>253.0</ele><time>2026-05-02T09:48:19Z</time></trkpt><trkpt lat="44.74819974387872" lon="8.463569920587839"><ele>253.0</ele><time>2026-05-02T09:48:20Z</time></trkpt><trkpt lat="44.74827147439568" lon="8.463630186038158"><ele>253.0</ele><time>2026-05-02T09:48:21Z</time></trkpt><trkpt lat="44.74833199781653" lon="8.463673204495365"><ele>253.0</ele><time>2026-05-02T09:48:22Z</time></trkpt><trkpt lat="44.74842608036458" lon="8.463737133759837"><ele>253.0</ele><time>2026-05-02T09:48:24Z</time></trkpt><trkpt lat="44.74851439461478" lon="8.463810404989175"><ele>251.99999999999997</ele><time>2026-05-02T09:48:26Z</time></trkpt><trkpt lat="44.74859564174074" lon="8.463882280467917"><ele>251.0</ele><time>2026-05-02T09:48:28Z</time></trkpt><trkpt lat="44.74866798168733" lon="8.46393078664675"><ele>250.0</ele><time>2026-05-02T09:48:29Z</time></trkpt><trkpt lat="44.74874717034789" lon="8.463958910617217"><ele>249.0</ele><time>2026-05-02T09:48:30Z</time></trkpt><trkpt lat="44.74883409086142" lon="8.46397631797383"><ele>247.99999999999997</ele><time>2026-05-02T09:48:31Z</time></trkpt><trkpt lat="44.74892599592957" lon="8.464012500947607"><ele>247.0</ele><time>2026-05-02T09:48:32Z</time></trkpt><trkpt lat="44.74900652902459" lon="8.464043226726032"><ele>246.99999999999997</ele><time>2026-05-02T09:48:33Z</time></trkpt><trkpt lat="44.74909187054824" lon="8.464065364107467"><ele>247.0</ele><time>2026-05-02T09:48:34Z</time></trkpt><trkpt lat="44.74918737327318" lon="8.464091430630011"><ele>247.0</ele><time>2026-05-02T09:48:35Z</time></trkpt><trkpt lat="44.74927463792049" lon="8.464112486896838"><ele>247.0</ele><time>2026-05-02T09:48:36Z</time></trkpt><trkpt lat="44.74936109958618" lon="8.464147373088066"><ele>246.99999999999997</ele><time>2026-05-02T09:48:37Z</time></trkpt><trkpt lat="44.74942938000346" lon="8.464177756784741"><ele>247.0</ele><time>2026-05-02T09:48:38Z</time></trkpt><trkpt lat="44.7494966849652" lon="8.464214533933195"><ele>244.99999999999997</ele><time>2026-05-02T09:48:40Z</time></trkpt><trkpt lat="44.74952316520651" lon="8.464120373903727"><ele>243.0</ele><time>2026-05-02T09:48:46Z</time></trkpt><trkpt lat="44.74952602353909" lon="8.463995921861596"><ele>241.0</ele><time>2026-05-02T09:48:47Z</time></trkpt><trkpt lat="44.749543627158815" lon="8.46388531399297"><ele>239.0</ele><time>2026-05-02T09:48:48Z</time></trkpt><trkpt lat="44.74956892460761" lon="8.463784254059423"><ele>236.99999999999997</ele><time>2026-05-02T09:48:49Z</time></trkpt><trkpt lat="44.749590067636795" lon="8.463695445134832"><ele>235.0</ele><time>2026-05-02T09:48:50Z</time></trkpt><trkpt lat="44.74961447326162" lon="8.46359326666374"><ele>234.6</ele><time>2026-05-02T09:48:51Z</time></trkpt><trkpt lat="44.74961376343851" lon="8.46345898608477"><ele>234.2</ele><time>2026-05-02T09:48:52Z</time></trkpt><trkpt lat="44.74960547503615" lon="8.463316121694866"><ele>233.8</ele><time>2026-05-02T09:48:53Z</time></trkpt><trkpt lat="44.74959034000801" lon="8.463167814782864"><ele>233.4</ele><time>2026-05-02T09:48:54Z</time></trkpt><trkpt lat="44.74957654394921" lon="8.46301326037263"><ele>233.0</ele><time>2026-05-02T09:48:55Z</time></trkpt><trkpt lat="44.74956802344834" lon="8.462871303195051"><ele>232.66666666666669</ele><time>2026-05-02T09:48:56Z</time></trkpt><trkpt lat="44.74955453647611" lon="8.462749212049417"><ele>232.33333333333334</ele><time>2026-05-02T09:48:57Z</time></trkpt><trkpt lat="44.74953200916191" lon="8.462613188648554"><ele>232.0</ele><time>2026-05-02T09:48:59Z</time></trkpt><trkpt lat="44.749557453506064" lon="8.462509772239533"><ele>231.66666666666669</ele><time>2026-05-02T09:49:01Z</time></trkpt><trkpt lat="44.749604370740975" lon="8.462448685851198"><ele>231.33333333333334</ele><time>2026-05-02T09:49:02Z</time></trkpt><trkpt lat="44.74968236554031" lon="8.462396561463462"><ele>231.0</ele><time>2026-05-02T09:49:03Z</time></trkpt><trkpt lat="44.74977872780978" lon="8.4623428485399"><ele>231.0</ele><time>2026-05-02T09:49:04Z</time></trkpt><trkpt lat="44.74988176579576" lon="8.462284284036445"><ele>231.00000000000003</ele><time>2026-05-02T09:49:05Z</time></trkpt><trkpt lat="44.74997435951046" lon="8.462226179127816"><ele>231.00000000000003</ele><time>2026-05-02T09:49:06Z</time></trkpt><trkpt lat="44.7500522821465" lon="8.462167269479032"><ele>231.0</ele><time>2026-05-02T09:49:07Z</time></trkpt><trkpt lat="44.75013319966348" lon="8.462115521404534"><ele>231.0</ele><time>2026-05-02T09:49:08Z</time></trkpt><trkpt lat="44.7502216739669" lon="8.462067676797314"><ele>227.8</ele><time>2026-05-02T09:49:09Z</time></trkpt><trkpt lat="44.75031195267514" lon="8.46203054155607"><ele>224.60000000000002</ele><time>2026-05-02T09:49:10Z</time></trkpt><trkpt lat="44.75039488297864" lon="8.46200200564311"><ele>221.4</ele><time>2026-05-02T09:49:11Z</time></trkpt><trkpt lat="44.75049724505468" lon="8.461990576021252"><ele>218.2</ele><time>2026-05-02T09:49:12Z</time></trkpt><trkpt lat="44.75059063773025" lon="8.461967759477448"><ele>215.0</ele><time>2026-05-02T09:49:13Z</time></trkpt><trkpt lat="44.75067176471942" lon="8.461957167049071"><ele>215.00000000000003</ele><time>2026-05-02T09:49:14Z</time></trkpt><trkpt lat="44.75075597683479" lon="8.461956875133883"><ele>215.0</ele><time>2026-05-02T09:49:15Z</time></trkpt><trkpt lat="44.750841516156065" lon="8.461963347536978"><ele>215.0</ele><time>2026-05-02T09:49:16Z</time></trkpt><trkpt lat="44.750933757224814" lon="8.461960633343097"><ele>215.0</ele><time>2026-05-02T09:49:17Z</time></trkpt><trkpt lat="44.75100783043681" lon="8.461961472716897"><ele>215.00000000000003</ele><time>2026-05-02T09:49:18Z</time></trkpt><trkpt lat="44.75107405682071" lon="8.461960614827694"><ele>215.0</ele><time>2026-05-02T09:49:19Z</time></trkpt><trkpt lat="44.75113991809748" lon="8.461975614894417"><ele>215.0</ele><time>2026-05-02T09:49:21Z</time></trkpt><trkpt lat="44.750993068690896" lon="8.461927227709232"><ele>215.0</ele><time>2026-05-02T09:50:12.001Z</time></trkpt><trkpt lat="44.7509201668538" lon="8.46193895439515"><ele>215.0</ele><time>2026-05-02T09:50:13.001Z</time></trkpt><trkpt lat="44.75084474997141" lon="8.461949613394244"><ele>215.0</ele><time>2026-05-02T09:50:14.001Z</time></trkpt><trkpt lat="44.75075891380609" lon="8.461943999363633"><ele>215.0</ele><time>2026-05-02T09:50:15.001Z</time></trkpt><trkpt lat="44.750668965707725" lon="8.461944860102756"><ele>215.0</ele><time>2026-05-02T09:50:16.001Z</time></trkpt><trkpt lat="44.750569060077815" lon="8.461950612334165"><ele>215.0</ele><time>2026-05-02T09:50:17.001Z</time></trkpt><trkpt lat="44.75045709542713" lon="8.461970534547778"><ele>215.0</ele><time>2026-05-02T09:50:18.001Z</time></trkpt><trkpt lat="44.75033776254122" lon="8.462002778909266"><ele>215.0</ele><time>2026-05-02T09:50:19.001Z</time></trkpt><trkpt lat="44.75021980346592" lon="8.462053136995268"><ele>219.0</ele><time>2026-05-02T09:50:20.001Z</time></trkpt><trkpt lat="44.75009820629263" lon="8.462125414389494"><ele>223.0</ele><time>2026-05-02T09:50:21.001Z</time></trkpt><trkpt lat="44.74997745307744" lon="8.46220182572035"><ele>227.0</ele><time>2026-05-02T09:50:22Z</time></trkpt><trkpt lat="44.749884023884896" lon="8.462265373399253"><ele>231.0</ele><time>2026-05-02T09:50:23Z</time></trkpt><trkpt lat="44.749788073136436" lon="8.462323004969416"><ele>231.0</ele><time>2026-05-02T09:50:24Z</time></trkpt><trkpt lat="44.74968507882879" lon="8.462382863290937"><ele>231.00000000000003</ele><time>2026-05-02T09:50:25Z</time></trkpt><trkpt lat="44.749614835209876" lon="8.462436919826212"><ele>231.00000000000003</ele><time>2026-05-02T09:50:26Z</time></trkpt><trkpt lat="44.74956127919385" lon="8.462495761928428"><ele>231.0</ele><time>2026-05-02T09:50:27Z</time></trkpt><trkpt lat="44.749507997414874" lon="8.46261399080586"><ele>231.0</ele><time>2026-05-02T09:50:29Z</time></trkpt><trkpt lat="44.74940745542042" lon="8.46259848121358"><ele>233.0</ele><time>2026-05-02T09:50:31Z</time></trkpt><trkpt lat="44.74934199771152" lon="8.462540862214649"><ele>235.00000000000003</ele><time>2026-05-02T09:50:32Z</time></trkpt><trkpt lat="44.749274753966496" lon="8.46248064685587"><ele>237.00000000000003</ele><time>2026-05-02T09:50:33Z</time></trkpt><trkpt lat="44.74920167210232" lon="8.462391893125359"><ele>239.0</ele><time>2026-05-02T09:50:34Z</time></trkpt><trkpt lat="44.749119365346495" lon="8.462276457261941"><ele>241.0</ele><time>2026-05-02T09:50:35Z</time></trkpt><trkpt lat="44.749018587474154" lon="8.462155532945829"><ele>239.0</ele><time>2026-05-02T09:50:36Z</time></trkpt><trkpt lat="44.748928460365086" lon="8.462032624066248"><ele>237.00000000000003</ele><time>2026-05-02T09:50:37Z</time></trkpt><trkpt lat="44.74885528893222" lon="8.461901825944418"><ele>235.00000000000003</ele><time>2026-05-02T09:50:38Z</time></trkpt><trkpt lat="44.7487934783612" lon="8.461801209372169"><ele>233.0</ele><time>2026-05-02T09:50:39Z</time></trkpt><trkpt lat="44.748727217241836" lon="8.46169882055335"><ele>231.0</ele><time>2026-05-02T09:50:40Z</time></trkpt><trkpt lat="44.748656986368275" lon="8.461580952957933"><ele>231.0</ele><time>2026-05-02T09:50:41Z</time></trkpt><trkpt lat="44.748585647955444" lon="8.461481977896693"><ele>231.00000000000003</ele><time>2026-05-02T09:50:42Z</time></trkpt><trkpt lat="44.748538245048465" lon="8.461395164302724"><ele>231.00000000000003</ele><time>2026-05-02T09:50:43Z</time></trkpt><trkpt lat="44.74853080440375" lon="8.461294369639555"><ele>231.0</ele><time>2026-05-02T09:50:44Z</time></trkpt><trkpt lat="44.74856448790067" lon="8.46114465108148"><ele>231.0</ele><time>2026-05-02T09:50:45Z</time></trkpt><trkpt lat="44.74860533014657" lon="8.461020144265698"><ele>229.83333333333334</ele><time>2026-05-02T09:50:46Z</time></trkpt><trkpt lat="44.74862136653768" lon="8.46092145981766"><ele>228.66666666666669</ele><time>2026-05-02T09:50:47Z</time></trkpt><trkpt lat="44.74862951051703" lon="8.460770871999921"><ele>227.5</ele><time>2026-05-02T09:50:49Z</time></trkpt><trkpt lat="44.748652005045244" lon="8.460663211731761"><ele>226.33333333333334</ele><time>2026-05-02T09:50:50Z</time></trkpt><trkpt lat="44.74866846296118" lon="8.460537901577636"><ele>225.16666666666669</ele><time>2026-05-02T09:50:51Z</time></trkpt><trkpt lat="44.74868592602464" lon="8.46042226020301"><ele>224.0</ele><time>2026-05-02T09:50:52Z</time></trkpt><trkpt lat="44.74872971153528" lon="8.460287288239712"><ele>223.0</ele><time>2026-05-02T09:50:54Z</time></trkpt><trkpt lat="44.748788939747186" lon="8.460200650153537"><ele>221.99999999999997</ele><time>2026-05-02T09:50:55Z</time></trkpt><trkpt lat="44.74886311257867" lon="8.460098962686834"><ele>220.99999999999997</ele><time>2026-05-02T09:50:56Z</time></trkpt><trkpt lat="44.74894185649444" lon="8.459993156877083"><ele>220.0</ele><time>2026-05-02T09:50:57Z</time></trkpt><trkpt lat="44.74900363517637" lon="8.459905090252594"><ele>219.0</ele><time>2026-05-02T09:50:58Z</time></trkpt><trkpt lat="44.749066738358636" lon="8.459819900974232"><ele>219.0</ele><time>2026-05-02T09:50:59Z</time></trkpt><trkpt lat="44.74913179244123" lon="8.45974148293466"><ele>219.0</ele><time>2026-05-02T09:51:00Z</time></trkpt><trkpt lat="44.74921275135603" lon="8.459675035937556"><ele>219.0</ele><time>2026-05-02T09:51:01Z</time></trkpt><trkpt lat="44.74929366639289" lon="8.45960111636615"><ele>219.0</ele><time>2026-05-02T09:51:02Z</time></trkpt><trkpt lat="44.7493555443615" lon="8.459535940728786"><ele>219.0</ele><time>2026-05-02T09:51:03Z</time></trkpt><trkpt lat="44.74941181827909" lon="8.459480882935308"><ele>219.0</ele><time>2026-05-02T09:51:04Z</time></trkpt><trkpt lat="44.749478697518484" lon="8.459398291763437"><ele>219.0</ele><time>2026-05-02T09:51:06Z</time></trkpt><trkpt lat="44.74935694721906" lon="8.459545413203593"><ele>219.0</ele><time>2026-05-02T09:51:38.001Z</time></trkpt><trkpt lat="44.74923787531041" lon="8.459678529050302"><ele>219.0</ele><time>2026-05-02T09:51:40.001Z</time></trkpt><trkpt lat="44.74916087826101" lon="8.459754436461468"><ele>219.0</ele><time>2026-05-02T09:51:41.001Z</time></trkpt><trkpt lat="44.749079129340295" lon="8.459841371720513"><ele>219.0</ele><time>2026-05-02T09:51:42.001Z</time></trkpt><trkpt lat="44.74899163594187" lon="8.459941890878918"><ele>218.99999999999997</ele><time>2026-05-02T09:51:43.001Z</time></trkpt><trkpt lat="44.7489189779294" lon="8.460039756330929"><ele>218.99999999999997</ele><time>2026-05-02T09:51:44.001Z</time></trkpt><trkpt lat="44.748828834889316" lon="8.460162744479296"><ele>219.0</ele><time>2026-05-02T09:51:45.001Z</time></trkpt><trkpt lat="44.748757413293724" lon="8.460269950466248"><ele>219.0</ele><time>2026-05-02T09:51:46.001Z</time></trkpt><trkpt lat="44.748709862288194" lon="8.460341303435824"><ele>219.0</ele><time>2026-05-02T09:51:47.001Z</time></trkpt><trkpt lat="44.748662584604986" lon="8.460447834972712"><ele>219.0</ele><time>2026-05-02T09:51:49.001Z</time></trkpt><trkpt lat="44.74866120948025" lon="8.460546158638687"><ele>219.0</ele><time>2026-05-02T09:51:50.001Z</time></trkpt><trkpt lat="44.74865674194552" lon="8.460642460179477"><ele>219.0</ele><time>2026-05-02T09:51:51.001Z</time></trkpt><trkpt lat="44.74863823948017" lon="8.460742275835354"><ele>219.0</ele><time>2026-05-02T09:51:52.001Z</time></trkpt><trkpt lat="44.74860571971879" lon="8.460891013986984"><ele>219.0</ele><time>2026-05-02T09:51:54.001Z</time></trkpt><trkpt lat="44.74867499093318" lon="8.460889215706734"><ele>219.83333333333334</ele><time>2026-05-02T09:52:03.001Z</time></trkpt><trkpt lat="44.74874863085759" lon="8.460893824782831"><ele>220.66666666666669</ele><time>2026-05-02T09:52:06.001Z</time></trkpt><trkpt lat="44.74881932293189" lon="8.46093133346571"><ele>221.5</ele><time>2026-05-02T09:52:09.001Z</time></trkpt><trkpt lat="44.74890701076909" lon="8.460947902208174"><ele>222.33333333333334</ele><time>2026-05-02T09:52:12.001Z</time></trkpt><trkpt lat="44.748974019569346" lon="8.460972779724496"><ele>223.16666666666669</ele><time>2026-05-02T09:52:14.001Z</time></trkpt><trkpt lat="44.749039655916526" lon="8.461003136893758"><ele>224.0</ele><time>2026-05-02T09:52:16.001Z</time></trkpt><trkpt lat="44.749116685498" lon="8.461049974859494"><ele>224.0</ele><time>2026-05-02T09:52:19.001Z</time></trkpt><trkpt lat="44.74898346409906" lon="8.4609762950916"><ele>223.99999999999997</ele><time>2026-05-02T09:52:45Z</time></trkpt><trkpt lat="44.7489182821598" lon="8.460958703026629"><ele>223.99999999999997</ele><time>2026-05-02T09:52:46Z</time></trkpt><trkpt lat="44.7488485441357" lon="8.460932285224116"><ele>224.0</ele><time>2026-05-02T09:52:47Z</time></trkpt><trkpt lat="44.7487817051651" lon="8.460901909817016"><ele>224.0</ele><time>2026-05-02T09:52:48Z</time></trkpt><trkpt lat="44.74867810802305" lon="8.460865150872918"><ele>224.00000000000003</ele><time>2026-05-02T09:52:50Z</time></trkpt><trkpt lat="44.74860296329149" lon="8.460917145311605"><ele>224.0</ele><time>2026-05-02T09:52:52Z</time></trkpt><trkpt lat="44.74858537431903" lon="8.46101238828709"><ele>224.0</ele><time>2026-05-02T09:52:53Z</time></trkpt><trkpt lat="44.74858243635455" lon="8.461129750633667"><ele>224.0</ele><time>2026-05-02T09:52:54Z</time></trkpt><trkpt lat="44.74857144899673" lon="8.4612562140008"><ele>224.00000000000003</ele><time>2026-05-02T09:52:55Z</time></trkpt><trkpt lat="44.748559805758944" lon="8.461379052157472"><ele>224.0</ele><time>2026-05-02T09:52:56Z</time></trkpt><trkpt lat="44.74856592525322" lon="8.461485796438083"><ele>225.39999999999998</ele><time>2026-05-02T09:52:57Z</time></trkpt><trkpt lat="44.74860552811184" lon="8.461563396993535"><ele>226.79999999999998</ele><time>2026-05-02T09:52:58Z</time></trkpt><trkpt lat="44.74867610779995" lon="8.461645358243631"><ele>228.20000000000002</ele><time>2026-05-02T09:52:59Z</time></trkpt><trkpt lat="44.74875962175371" lon="8.46174421641678"><ele>229.60000000000002</ele><time>2026-05-02T09:53:00Z</time></trkpt><trkpt lat="44.74883717465618" lon="8.461867162054538"><ele>231.0</ele><time>2026-05-02T09:53:01Z</time></trkpt><trkpt lat="44.74890584072258" lon="8.46198085402701"><ele>231.0</ele><time>2026-05-02T09:53:02Z</time></trkpt><trkpt lat="44.7489831267886" lon="8.462104498246754"><ele>231.0</ele><time>2026-05-02T09:53:03Z</time></trkpt><trkpt lat="44.749064810713726" lon="8.462228744749702"><ele>231.0</ele><time>2026-05-02T09:53:04Z</time></trkpt><trkpt lat="44.749148650394154" lon="8.462330751476669"><ele>231.0</ele><time>2026-05-02T09:53:05Z</time></trkpt><trkpt lat="44.74923420924663" lon="8.462431131355412"><ele>231.0</ele><time>2026-05-02T09:53:06Z</time></trkpt><trkpt lat="44.74930299431595" lon="8.462506647198135"><ele>231.00000000000003</ele><time>2026-05-02T09:53:07Z</time></trkpt><trkpt lat="44.74940072451118" lon="8.462593092777478"><ele>231.00000000000003</ele><time>2026-05-02T09:53:09Z</time></trkpt><trkpt lat="44.74951198513801" lon="8.462594667787007"><ele>231.0</ele><time>2026-05-02T09:53:11Z</time></trkpt><trkpt lat="44.74956151235065" lon="8.462724112497801"><ele>231.0</ele><time>2026-05-02T09:53:13Z</time></trkpt><trkpt lat="44.74957017039332" lon="8.4628301618397"><ele>231.4</ele><time>2026-05-02T09:53:14Z</time></trkpt><trkpt lat="44.749570691481786" lon="8.462955344423928"><ele>231.8</ele><time>2026-05-02T09:53:15Z</time></trkpt><trkpt lat="44.74957682610171" lon="8.463091514981476"><ele>232.20000000000002</ele><time>2026-05-02T09:53:16Z</time></trkpt><trkpt lat="44.74958171476432" lon="8.463224109740942"><ele>232.60000000000002</ele><time>2026-05-02T09:53:17Z</time></trkpt><trkpt lat="44.74958589410104" lon="8.46336416656424"><ele>233.0</ele><time>2026-05-02T09:53:18Z</time></trkpt><trkpt lat="44.74958969182886" lon="8.463528714344045"><ele>233.00000000000003</ele><time>2026-05-02T09:53:19Z</time></trkpt><trkpt lat="44.74958941085149" lon="8.463654708232479"><ele>233.0</ele><time>2026-05-02T09:53:20Z</time></trkpt><trkpt lat="44.749567611229274" lon="8.463777039647393"><ele>233.0</ele><time>2026-05-02T09:53:21Z</time></trkpt><trkpt lat="44.74953586126124" lon="8.463884910374876"><ele>233.0</ele><time>2026-05-02T09:53:22Z</time></trkpt><trkpt lat="44.74950296683068" lon="8.463995896458467"><ele>233.00000000000003</ele><time>2026-05-02T09:53:23Z</time></trkpt><trkpt lat="44.749485744594864" lon="8.464094475064938"><ele>233.0</ele><time>2026-05-02T09:53:24Z</time></trkpt><trkpt lat="44.749514626823455" lon="8.464235861123823"><ele>233.4</ele><time>2026-05-02T09:53:26Z</time></trkpt><trkpt lat="44.74957585323758" lon="8.46430687902632"><ele>233.8</ele><time>2026-05-02T09:53:27Z</time></trkpt><trkpt lat="44.7496627843367" lon="8.464359080086119"><ele>234.2</ele><time>2026-05-02T09:53:28Z</time></trkpt><trkpt lat="44.74976660047446" lon="8.464411863295357"><ele>234.6</ele><time>2026-05-02T09:53:29Z</time></trkpt><trkpt lat="44.74987469359463" lon="8.464485698758478"><ele>235.0</ele><time>2026-05-02T09:53:30Z</time></trkpt><trkpt lat="44.749985587402094" lon="8.464574501340248"><ele>235.25</ele><time>2026-05-02T09:53:31Z</time></trkpt><trkpt lat="44.75009548027912" lon="8.464644684988588"><ele>235.5</ele><time>2026-05-02T09:53:32Z</time></trkpt><trkpt lat="44.75019419768378" lon="8.464695784031216"><ele>235.75</ele><time>2026-05-02T09:53:33Z</time></trkpt><trkpt lat="44.75023912631298" lon="8.464970906939644"><ele>236.0</ele><time>2026-05-02T09:53:34Z</time></trkpt><trkpt lat="44.750304596707956" lon="8.464994060378897"><ele>234.8</ele><time>2026-05-02T09:53:35Z</time></trkpt><trkpt lat="44.75037360743742" lon="8.465018998983167"><ele>233.60000000000002</ele><time>2026-05-02T09:53:36Z</time></trkpt><trkpt lat="44.75044076683328" lon="8.465043531437752"><ele>232.4</ele><time>2026-05-02T09:53:37Z</time></trkpt><trkpt lat="44.75053997600385" lon="8.46506014757726"><ele>231.2</ele><time>2026-05-02T09:53:39Z</time></trkpt><trkpt lat="44.75066047520264" lon="8.465146230324093"><ele>230.0</ele><time>2026-05-02T09:53:41Z</time></trkpt><trkpt lat="44.75075072085484" lon="8.465185379166732"><ele>230.0</ele><time>2026-05-02T09:53:42Z</time></trkpt><trkpt lat="44.75084929895256" lon="8.465228025248981"><ele>230.0</ele><time>2026-05-02T09:53:43Z</time></trkpt><trkpt lat="44.75095631870042" lon="8.465268341870576"><ele>230.0</ele><time>2026-05-02T09:53:44Z</time></trkpt><trkpt lat="44.751068488189645" lon="8.465287322502974"><ele>230.0</ele><time>2026-05-02T09:53:45Z</time></trkpt><trkpt lat="44.751165781958264" lon="8.46530299191044"><ele>230.0</ele><time>2026-05-02T09:53:46Z</time></trkpt><trkpt lat="44.75125288524198" lon="8.465338404316618"><ele>229.8</ele><time>2026-05-02T09:53:47Z</time></trkpt><trkpt lat="44.75133985301083" lon="8.465371577691279"><ele>229.6</ele><time>2026-05-02T09:53:48Z</time></trkpt><trkpt lat="44.75142981460257" lon="8.465404931422322"><ele>229.39999999999998</ele><time>2026-05-02T09:53:49Z</time></trkpt><trkpt lat="44.751531574914495" lon="8.465440968666725"><ele>229.2</ele><time>2026-05-02T09:53:50Z</time></trkpt><trkpt lat="44.75162381419347" lon="8.46547622690033"><ele>229.0</ele><time>2026-05-02T09:53:51Z</time></trkpt><trkpt lat="44.751705527145184" lon="8.465518712598858"><ele>229.85714285714283</ele><time>2026-05-02T09:53:52Z</time></trkpt><trkpt lat="44.75177103181861" lon="8.46554484360131"><ele>230.71428571428572</ele><time>2026-05-02T09:53:53Z</time></trkpt><trkpt lat="44.75184090536892" lon="8.465559424064896"><ele>231.57142857142856</ele><time>2026-05-02T09:53:54Z</time></trkpt><trkpt lat="44.75191213825387" lon="8.465581067371113"><ele>232.42857142857142</ele><time>2026-05-02T09:53:55.001Z</time></trkpt><trkpt lat="44.75197356461428" lon="8.465614362461126"><ele>233.28571428571428</ele><time>2026-05-02T09:53:56.001Z</time></trkpt><trkpt lat="44.752037012207836" lon="8.465623467527607"><ele>234.14285714285714</ele><time>2026-05-02T09:53:59.001Z</time></trkpt><trkpt lat="44.75194131366927" lon="8.465577101616427"><ele>235.0</ele><time>2026-05-02T09:54:02.001Z</time></trkpt><trkpt lat="44.751875183146886" lon="8.465527438716062"><ele>234.99999999999997</ele><time>2026-05-02T09:54:03.001Z</time></trkpt><trkpt lat="44.75178994904979" lon="8.46547782022156"><ele>235.0</ele><time>2026-05-02T09:54:04.001Z</time></trkpt><trkpt lat="44.751694827755685" lon="8.465439707839861"><ele>235.0</ele><time>2026-05-02T09:54:05.001Z</time></trkpt><trkpt lat="44.751609080918506" lon="8.465422218929605"><ele>235.0</ele><time>2026-05-02T09:54:06.001Z</time></trkpt><trkpt lat="44.75153989165983" lon="8.465410923034591"><ele>234.99999999999997</ele><time>2026-05-02T09:54:07.001Z</time></trkpt><trkpt lat="44.75148508722322" lon="8.465355823929379"><ele>235.0</ele><time>2026-05-02T09:54:09.001Z</time></trkpt><trkpt lat="44.75157603553824" lon="8.46525003916837"><ele>233.99999999999997</ele><time>2026-05-02T09:54:13.001Z</time></trkpt><trkpt lat="44.75163650020271" lon="8.46519293681184"><ele>233.0</ele><time>2026-05-02T09:54:15.001Z</time></trkpt><trkpt lat="44.751727500542934" lon="8.465144748059167"><ele>232.0</ele><time>2026-05-02T09:54:17.001Z</time></trkpt><trkpt lat="44.751802385614496" lon="8.465108353089526"><ele>231.0</ele><time>2026-05-02T09:54:20.001Z</time></trkpt><trkpt lat="44.751875221884795" lon="8.46507241997906"><ele>229.99999999999997</ele><time>2026-05-02T09:54:25.001Z</time></trkpt><trkpt lat="44.75196566806898" lon="8.465049668117947"><ele>229.0</ele><time>2026-05-02T09:54:27.001Z</time></trkpt><trkpt lat="44.752194119392364" lon="8.465079209601267"><ele>228.49999999999997</ele><time>2026-05-02T09:54:32.001Z</time></trkpt><trkpt lat="44.752255649141226" lon="8.465113882742827"><ele>228.0</ele><time>2026-05-02T09:54:33.001Z</time></trkpt><trkpt lat="44.75233665491942" lon="8.46515611787022"><ele>227.5</ele><time>2026-05-02T09:54:35Z</time></trkpt><trkpt lat="44.75242797003254" lon="8.465181511570977"><ele>227.0</ele><time>2026-05-02T09:54:37Z</time></trkpt><trkpt lat="44.75249535989242" lon="8.465214980704785"><ele>226.49999999999997</ele><time>2026-05-02T09:54:39Z</time></trkpt><trkpt lat="44.75255265191111" lon="8.465294827868641"><ele>226.0</ele><time>2026-05-02T09:54:43Z</time></trkpt><trkpt lat="44.75257975471153" lon="8.465377389339123"><ele>226.0</ele><time>2026-05-02T09:54:54Z</time></trkpt><trkpt lat="44.75240681481015" lon="8.465157116628896"><ele>226.0</ele><time>2026-05-02T09:55:08Z</time></trkpt><trkpt lat="44.75233432945953" lon="8.465123121819868"><ele>226.0</ele><time>2026-05-02T09:55:09Z</time></trkpt><trkpt lat="44.7522588436292" lon="8.46508901140981"><ele>226.0</ele><time>2026-05-02T09:55:10Z</time></trkpt><trkpt lat="44.75219767603197" lon="8.465063156911489"><ele>226.0</ele><time>2026-05-02T09:55:11Z</time></trkpt><trkpt lat="44.75209702747917" lon="8.465023415666504"><ele>226.00000000000003</ele><time>2026-05-02T09:55:13Z</time></trkpt><trkpt lat="44.7519986039227" lon="8.465049144430111"><ele>226.00000000000003</ele><time>2026-05-02T09:55:15Z</time></trkpt><trkpt lat="44.75189368388187" lon="8.465074990862579"><ele>226.0</ele><time>2026-05-02T09:55:17Z</time></trkpt><trkpt lat="44.75183078934533" lon="8.465102970317568"><ele>226.0</ele><time>2026-05-02T09:55:20Z</time></trkpt><trkpt lat="44.75175233675453" lon="8.465146474927643"><ele>226.49999999999997</ele><time>2026-05-02T09:55:22Z</time></trkpt><trkpt lat="44.75168259336779" lon="8.465214482693904"><ele>227.0</ele><time>2026-05-02T09:55:24Z</time></trkpt><trkpt lat="44.75162645145792" lon="8.465285216614468"><ele>227.5</ele><time>2026-05-02T09:55:26Z</time></trkpt><trkpt lat="44.75155268179884" lon="8.465337844773568"><ele>228.0</ele><time>2026-05-02T09:55:28Z</time></trkpt><trkpt lat="44.75151511309066" lon="8.465415150695726"><ele>228.49999999999997</ele><time>2026-05-02T09:55:32Z</time></trkpt><trkpt lat="44.75163213717652" lon="8.46548076509348"><ele>229.0</ele><time>2026-05-02T09:55:34Z</time></trkpt><trkpt lat="44.75172244232225" lon="8.465516464984104"><ele>230.2</ele><time>2026-05-02T09:55:35Z</time></trkpt><trkpt lat="44.751822863291586" lon="8.465537620511595"><ele>231.39999999999998</ele><time>2026-05-02T09:55:36Z</time></trkpt><trkpt lat="44.75192888033178" lon="8.465588734129497"><ele>232.6</ele><time>2026-05-02T09:55:37Z</time></trkpt><trkpt lat="44.75203419138759" lon="8.465635396349963"><ele>233.8</ele><time>2026-05-02T09:55:38Z</time></trkpt><trkpt lat="44.752125064627386" lon="8.465714361115623"><ele>235.0</ele><time>2026-05-02T09:55:39Z</time></trkpt><trkpt lat="44.752214118279134" lon="8.46580753724627"><ele>235.8</ele><time>2026-05-02T09:55:40Z</time></trkpt><trkpt lat="44.752290685387024" lon="8.465917287535106"><ele>236.6</ele><time>2026-05-02T09:55:41Z</time></trkpt><trkpt lat="44.752360955190674" lon="8.466009481167635"><ele>237.39999999999998</ele><time>2026-05-02T09:55:42Z</time></trkpt><trkpt lat="44.752417073218425" lon="8.466097465266797"><ele>238.2</ele><time>2026-05-02T09:55:43Z</time></trkpt><trkpt lat="44.752472259695395" lon="8.466196040818854"><ele>239.0</ele><time>2026-05-02T09:55:44Z</time></trkpt><trkpt lat="44.752509287444" lon="8.466319909497992"><ele>239.0</ele><time>2026-05-02T09:55:45Z</time></trkpt><trkpt lat="44.752555054027425" lon="8.466440797968547"><ele>238.99999999999997</ele><time>2026-05-02T09:55:46Z</time></trkpt><trkpt lat="44.75262150352083" lon="8.466554902292948"><ele>238.99999999999997</ele><time>2026-05-02T09:55:47Z</time></trkpt><trkpt lat="44.752699062587105" lon="8.466654852611448"><ele>239.0</ele><time>2026-05-02T09:55:48Z</time></trkpt><trkpt lat="44.75278773704428" lon="8.466739700823808"><ele>239.0</ele><time>2026-05-02T09:55:49Z</time></trkpt><trkpt lat="44.752890989044964" lon="8.466808661895286"><ele>241.25</ele><time>2026-05-02T09:55:50Z</time></trkpt><trkpt lat="44.75300363244858" lon="8.466873653948216"><ele>243.5</ele><time>2026-05-02T09:55:51Z</time></trkpt><trkpt lat="44.75311606302428" lon="8.46693256314799"><ele>245.75</ele><time>2026-05-02T09:55:52Z</time></trkpt><trkpt lat="44.75322444260885" lon="8.466973441908946"><ele>248.0</ele><time>2026-05-02T09:55:53Z</time></trkpt><trkpt lat="44.75333239358699" lon="8.467019368574933"><ele>248.0</ele><time>2026-05-02T09:55:54Z</time></trkpt><trkpt lat="44.75344737691563" lon="8.46708527873878"><ele>248.0</ele><time>2026-05-02T09:55:55Z</time></trkpt><trkpt lat="44.753553012031354" lon="8.467136204536697"><ele>248.0</ele><time>2026-05-02T09:55:56Z</time></trkpt><trkpt lat="44.75365025908001" lon="8.467201890021752"><ele>248.0</ele><time>2026-05-02T09:55:57Z</time></trkpt><trkpt lat="44.75373190539255" lon="8.46727903991934"><ele>248.0</ele><time>2026-05-02T09:55:58Z</time></trkpt><trkpt lat="44.75378791503442" lon="8.467379675275618"><ele>247.60000000000002</ele><time>2026-05-02T09:55:59Z</time></trkpt><trkpt lat="44.75384741778764" lon="8.467486017582823"><ele>247.20000000000002</ele><time>2026-05-02T09:56:00.001Z</time></trkpt><trkpt lat="44.753892349800694" lon="8.46760061262051"><ele>246.8</ele><time>2026-05-02T09:56:01.001Z</time></trkpt><trkpt lat="44.75394813467818" lon="8.467720409074337"><ele>246.4</ele><time>2026-05-02T09:56:02.001Z</time></trkpt><trkpt lat="44.754000776480495" lon="8.467842948077221"><ele>246.0</ele><time>2026-05-02T09:56:03.001Z</time></trkpt><trkpt lat="44.754053123076424" lon="8.467959783731043"><ele>246.0</ele><time>2026-05-02T09:56:04.001Z</time></trkpt><trkpt lat="44.75410346723517" lon="8.468060884231786"><ele>246.00000000000003</ele><time>2026-05-02T09:56:05.001Z</time></trkpt><trkpt lat="44.75415743931999" lon="8.468161153594732"><ele>246.00000000000003</ele><time>2026-05-02T09:56:06.001Z</time></trkpt><trkpt lat="44.754203004139505" lon="8.468252386948134"><ele>246.0</ele><time>2026-05-02T09:56:07.001Z</time></trkpt><trkpt lat="44.754248389555485" lon="8.468371841389576"><ele>246.0</ele><time>2026-05-02T09:56:09.001Z</time></trkpt><trkpt lat="44.754142857514026" lon="8.468162948854276"><ele>246.0</ele><time>2026-05-02T09:56:17.001Z</time></trkpt><trkpt lat="44.75408556162584" lon="8.467951097675433"><ele>246.0</ele><time>2026-05-02T09:56:18.001Z</time></trkpt><trkpt lat="44.75401400056022" lon="8.467818908899742"><ele>246.0</ele><time>2026-05-02T09:56:19.001Z</time></trkpt><trkpt lat="44.75394991111932" lon="8.467648199358916"><ele>246.0</ele><time>2026-05-02T09:56:20.001Z</time></trkpt><trkpt lat="44.75388731167755" lon="8.46752717697383"><ele>245.83333333333334</ele><time>2026-05-02T09:56:21.001Z</time></trkpt><trkpt lat="44.753848989509905" lon="8.46742342922234"><ele>245.66666666666669</ele><time>2026-05-02T09:56:22.001Z</time></trkpt><trkpt lat="44.753807540747786" lon="8.467342688760073"><ele>245.5</ele><time>2026-05-02T09:56:23.001Z</time></trkpt><trkpt lat="44.753749633278545" lon="8.467267618632233"><ele>245.33333333333334</ele><time>2026-05-02T09:56:25.001Z</time></trkpt><trkpt lat="44.75379029179713" lon="8.467159756863394"><ele>245.16666666666669</ele><time>2026-05-02T09:56:28.001Z</time></trkpt><trkpt lat="44.75384544829932" lon="8.46709527801448"><ele>245.0</ele><time>2026-05-02T09:56:30.001Z</time></trkpt><trkpt lat="44.75388297311783" lon="8.467009569597963"><ele>245.0</ele><time>2026-05-02T09:56:32.001Z</time></trkpt><trkpt lat="44.753823383049" lon="8.466839930036771"><ele>245.0</ele><time>2026-05-02T09:56:34.001Z</time></trkpt><trkpt lat="44.75395885223334" lon="8.467024731896542"><ele>245.0</ele><time>2026-05-02T09:56:37.001Z</time></trkpt><trkpt lat="44.75403031733937" lon="8.467138175023733"><ele>245.0</ele><time>2026-05-02T09:56:39.001Z</time></trkpt><trkpt lat="44.75410349311584" lon="8.467226662387437"><ele>245.6</ele><time>2026-05-02T09:56:40Z</time></trkpt><trkpt lat="44.75416812136315" lon="8.467328204720422"><ele>246.2</ele><time>2026-05-02T09:56:41Z</time></trkpt><trkpt lat="44.754235889212644" lon="8.46741133475071"><ele>246.8</ele><time>2026-05-02T09:56:42Z</time></trkpt><trkpt lat="44.75430885418119" lon="8.46750069432692"><ele>247.4</ele><time>2026-05-02T09:56:43Z</time></trkpt><trkpt lat="44.75438198013033" lon="8.467586643159759"><ele>248.0</ele><time>2026-05-02T09:56:44Z</time></trkpt><trkpt lat="44.7544542208637" lon="8.467677003920231"><ele>248.0</ele><time>2026-05-02T09:56:45Z</time></trkpt><trkpt lat="44.75451988217775" lon="8.467755075362087"><ele>248.0</ele><time>2026-05-02T09:56:46Z</time></trkpt><trkpt lat="44.75459307266898" lon="8.467838972283353"><ele>248.0</ele><time>2026-05-02T09:56:47Z</time></trkpt><trkpt lat="44.754668416040495" lon="8.467916181440819"><ele>248.0</ele><time>2026-05-02T09:56:48Z</time></trkpt><trkpt lat="44.75473759428374" lon="8.467992975166593"><ele>248.0</ele><time>2026-05-02T09:56:49Z</time></trkpt><trkpt lat="44.75480789725044" lon="8.46807044685901"><ele>249.83333333333334</ele><time>2026-05-02T09:56:50Z</time></trkpt><trkpt lat="44.75487296243803" lon="8.4681521557436"><ele>251.66666666666669</ele><time>2026-05-02T09:56:51Z</time></trkpt><trkpt lat="44.75493273249715" lon="8.468232852871232"><ele>253.5</ele><time>2026-05-02T09:56:52Z</time></trkpt><trkpt lat="44.75498635872266" lon="8.468288026299986"><ele>255.33333333333331</ele><time>2026-05-02T09:56:53Z</time></trkpt><trkpt lat="44.7550351573851" lon="8.468370585740432"><ele>257.16666666666663</ele><time>2026-05-02T09:56:54Z</time></trkpt><trkpt lat="44.75507715300328" lon="8.468493294118682"><ele>259.0</ele><time>2026-05-02T09:56:55Z</time></trkpt><trkpt lat="44.7551366302869" lon="8.468631149582263"><ele>259.0</ele><time>2026-05-02T09:56:56Z</time></trkpt><trkpt lat="44.75519766039868" lon="8.468744544769772"><ele>259.0</ele><time>2026-05-02T09:56:57Z</time></trkpt><trkpt lat="44.75526264431308" lon="8.468866319587153"><ele>259.0</ele><time>2026-05-02T09:56:58Z</time></trkpt><trkpt lat="44.75532250241868" lon="8.468974391623927"><ele>259.0</ele><time>2026-05-02T09:56:59Z</time></trkpt><trkpt lat="44.755365458644015" lon="8.469069594716634"><ele>259.0</ele><time>2026-05-02T09:57:00Z</time></trkpt><trkpt lat="44.7554330345352" lon="8.46919100854175"><ele>260.59999999999997</ele><time>2026-05-02T09:57:01Z</time></trkpt><trkpt lat="44.755504275724476" lon="8.469311518973717"><ele>262.2</ele><time>2026-05-02T09:57:02Z</time></trkpt><trkpt lat="44.75559256806932" lon="8.46941141575347"><ele>263.79999999999995</ele><time>2026-05-02T09:57:03Z</time></trkpt><trkpt lat="44.75566881230384" lon="8.469535657242986"><ele>265.4</ele><time>2026-05-02T09:57:04Z</time></trkpt><trkpt lat="44.755737651303974" lon="8.469652409231129"><ele>267.0</ele><time>2026-05-02T09:57:05Z</time></trkpt><trkpt lat="44.755800358523075" lon="8.469771116441308"><ele>267.0</ele><time>2026-05-02T09:57:06Z</time></trkpt><trkpt lat="44.7558626053523" lon="8.46989456043904"><ele>267.0</ele><time>2026-05-02T09:57:07Z</time></trkpt><trkpt lat="44.755910792576465" lon="8.470015854353806"><ele>267.0</ele><time>2026-05-02T09:57:08Z</time></trkpt><trkpt lat="44.755951091032514" lon="8.470136864028165"><ele>267.0</ele><time>2026-05-02T09:57:09Z</time></trkpt><trkpt lat="44.755992174373645" lon="8.470271688086807"><ele>267.0</ele><time>2026-05-02T09:57:10Z</time></trkpt><trkpt lat="44.7560235848475" lon="8.470408579758624"><ele>265.6666666666667</ele><time>2026-05-02T09:57:11Z</time></trkpt><trkpt lat="44.75606582024062" lon="8.470513337080975"><ele>264.3333333333333</ele><time>2026-05-02T09:57:12Z</time></trkpt><trkpt lat="44.75610093005612" lon="8.470602371633232"><ele>263.0</ele><time>2026-05-02T09:57:13Z</time></trkpt><trkpt lat="44.756141227709854" lon="8.470704293263884"><ele>261.66666666666663</ele><time>2026-05-02T09:57:14Z</time></trkpt><trkpt lat="44.756185816924145" lon="8.470805739928407"><ele>260.3333333333333</ele><time>2026-05-02T09:57:15Z</time></trkpt><trkpt lat="44.75623549930691" lon="8.470910436756345"><ele>259.0</ele><time>2026-05-02T09:57:16Z</time></trkpt><trkpt lat="44.75629044754776" lon="8.471030014478389"><ele>259.0</ele><time>2026-05-02T09:57:17Z</time></trkpt><trkpt lat="44.75634717945695" lon="8.471137379592436"><ele>259.0</ele><time>2026-05-02T09:57:18Z</time></trkpt><trkpt lat="44.7563992963613" lon="8.471236327643675"><ele>259.0</ele><time>2026-05-02T09:57:19Z</time></trkpt><trkpt lat="44.75644914664175" lon="8.4713413592853"><ele>259.0</ele><time>2026-05-02T09:57:20Z</time></trkpt><trkpt lat="44.7564975057576" lon="8.471433059795197"><ele>259.0</ele><time>2026-05-02T09:57:21Z</time></trkpt><trkpt lat="44.75654619186265" lon="8.471516717145537"><ele>259.0</ele><time>2026-05-02T09:57:22Z</time></trkpt><trkpt lat="44.75659412737835" lon="8.471613548077123"><ele>259.16666666666663</ele><time>2026-05-02T09:57:23Z</time></trkpt><trkpt lat="44.75664537304772" lon="8.47171969632936"><ele>259.3333333333333</ele><time>2026-05-02T09:57:24Z</time></trkpt><trkpt lat="44.756695405213065" lon="8.471817740985035"><ele>259.5</ele><time>2026-05-02T09:57:25Z</time></trkpt><trkpt lat="44.75674653068783" lon="8.471918684230584"><ele>259.6666666666667</ele><time>2026-05-02T09:57:26Z</time></trkpt><trkpt lat="44.756798517159226" lon="8.472026920258694"><ele>259.83333333333337</ele><time>2026-05-02T09:57:27Z</time></trkpt><trkpt lat="44.756849447559674" lon="8.472133997309227"><ele>260.0</ele><time>2026-05-02T09:57:28Z</time></trkpt><trkpt lat="44.75690293544534" lon="8.472233833403013"><ele>258.33333333333337</ele><time>2026-05-02T09:57:29Z</time></trkpt><trkpt lat="44.756954207497216" lon="8.472323773450405"><ele>256.6666666666667</ele><time>2026-05-02T09:57:30Z</time></trkpt><trkpt lat="44.756997153929966" lon="8.472400227095124"><ele>255.0</ele><time>2026-05-02T09:57:31Z</time></trkpt><trkpt lat="44.757051465985995" lon="8.472512641904506"><ele>253.33333333333331</ele><time>2026-05-02T09:57:33Z</time></trkpt><trkpt lat="44.75707477620956" lon="8.472605165187472"><ele>251.66666666666666</ele><time>2026-05-02T09:57:35Z</time></trkpt><trkpt lat="44.75707873118997" lon="8.472697615465455"><ele>250.0</ele><time>2026-05-02T09:57:38Z</time></trkpt><trkpt lat="44.757172748796286" lon="8.472836135559405"><ele>250.0</ele><time>2026-05-02T09:57:40Z</time></trkpt><trkpt lat="44.75722207340608" lon="8.472924805434763"><ele>250.0</ele><time>2026-05-02T09:57:41Z</time></trkpt><trkpt lat="44.75727582286161" lon="8.47301204968578"><ele>250.0</ele><time>2026-05-02T09:57:42Z</time></trkpt><trkpt lat="44.757319452137914" lon="8.473125896545957"><ele>250.0</ele><time>2026-05-02T09:57:43Z</time></trkpt><trkpt lat="44.75737045538028" lon="8.473245811327075"><ele>250.0</ele><time>2026-05-02T09:57:44Z</time></trkpt><trkpt lat="44.75742433719842" lon="8.473374623586142"><ele>250.0</ele><time>2026-05-02T09:57:45Z</time></trkpt><trkpt lat="44.75748292473203" lon="8.473482609252597"><ele>250.0</ele><time>2026-05-02T09:57:46Z</time></trkpt><trkpt lat="44.75751470031802" lon="8.47361508750816"><ele>250.0</ele><time>2026-05-02T09:57:47Z</time></trkpt><trkpt lat="44.7575574345664" lon="8.473730128124538"><ele>250.0</ele><time>2026-05-02T09:57:48Z</time></trkpt><trkpt lat="44.757603024404006" lon="8.473837897327408"><ele>250.0</ele><time>2026-05-02T09:57:49Z</time></trkpt><trkpt lat="44.757640997717765" lon="8.473943638690239"><ele>249.49999999999997</ele><time>2026-05-02T09:57:50Z</time></trkpt><trkpt lat="44.75767337028394" lon="8.474062085448127"><ele>249.0</ele><time>2026-05-02T09:57:51Z</time></trkpt><trkpt lat="44.757713302817365" lon="8.474148961418834"><ele>248.5</ele><time>2026-05-02T09:57:52Z</time></trkpt><trkpt lat="44.75777191990089" lon="8.474194484953257"><ele>248.0</ele><time>2026-05-02T09:57:53Z</time></trkpt><trkpt lat="44.757847499840715" lon="8.474192836566138"><ele>247.49999999999997</ele><time>2026-05-02T09:57:54Z</time></trkpt><trkpt lat="44.75793842538896" lon="8.474146134745842"><ele>247.0</ele><time>2026-05-02T09:57:55Z</time></trkpt><trkpt lat="44.75803643372777" lon="8.474060981669904"><ele>246.6</ele><time>2026-05-02T09:57:56Z</time></trkpt><trkpt lat="44.75813593540138" lon="8.473986633846424"><ele>246.2</ele><time>2026-05-02T09:57:57Z</time></trkpt><trkpt lat="44.75822587522709" lon="8.473903983845263"><ele>245.8</ele><time>2026-05-02T09:57:58Z</time></trkpt><trkpt lat="44.758304191860546" lon="8.473817917931111"><ele>245.4</ele><time>2026-05-02T09:57:59Z</time></trkpt><trkpt lat="44.75834968094779" lon="8.473725569157246"><ele>245.0</ele><time>2026-05-02T09:58:00Z</time></trkpt><trkpt lat="44.75839626062549" lon="8.473591558722113"><ele>243.75</ele><time>2026-05-02T09:58:01Z</time></trkpt><trkpt lat="44.75842470856107" lon="8.473433147305277"><ele>242.5</ele><time>2026-05-02T09:58:02Z</time></trkpt><trkpt lat="44.758398422818296" lon="8.473253915184445"><ele>241.25</ele><time>2026-05-02T09:58:03Z</time></trkpt><trkpt lat="44.758350530523444" lon="8.473073865573127"><ele>240.0</ele><time>2026-05-02T09:58:04Z</time></trkpt><trkpt lat="44.7582973052778" lon="8.472904142136992"><ele>239.0</ele><time>2026-05-02T09:58:05Z</time></trkpt><trkpt lat="44.75825242603992" lon="8.472746194906374"><ele>238.0</ele><time>2026-05-02T09:58:06Z</time></trkpt><trkpt lat="44.75820203826587" lon="8.47260026491715"><ele>237.0</ele><time>2026-05-02T09:58:07Z</time></trkpt><trkpt lat="44.75817254811798" lon="8.472445252995259"><ele>236.0</ele><time>2026-05-02T09:58:08Z</time></trkpt><trkpt lat="44.75816909367149" lon="8.472293282692235"><ele>236.0</ele><time>2026-05-02T09:58:09Z</time></trkpt><trkpt lat="44.758170442942095" lon="8.47214700688046"><ele>236.0</ele><time>2026-05-02T09:58:10Z</time></trkpt><trkpt lat="44.75818024693905" lon="8.471987286575072"><ele>236.0</ele><time>2026-05-02T09:58:11Z</time></trkpt><trkpt lat="44.75821148506381" lon="8.471818039484285"><ele>236.0</ele><time>2026-05-02T09:58:12Z</time></trkpt><trkpt lat="44.758241605625926" lon="8.471659969888332"><ele>234.5</ele><time>2026-05-02T09:58:13Z</time></trkpt><trkpt lat="44.75827304682621" lon="8.471500872160114"><ele>233.0</ele><time>2026-05-02T09:58:14Z</time></trkpt><trkpt lat="44.75830387984668" lon="8.471342277465032"><ele>231.5</ele><time>2026-05-02T09:58:15Z</time></trkpt><trkpt lat="44.75833255842479" lon="8.471183400647197"><ele>230.0</ele><time>2026-05-02T09:58:16Z</time></trkpt><trkpt lat="44.758359988761484" lon="8.47102496463384"><ele>229.8</ele><time>2026-05-02T09:58:17Z</time></trkpt><trkpt lat="44.75839209744783" lon="8.470870358404897"><ele>229.6</ele><time>2026-05-02T09:58:18Z</time></trkpt><trkpt lat="44.75843071544902" lon="8.470724415503776"><ele>229.39999999999998</ele><time>2026-05-02T09:58:19Z</time></trkpt><trkpt lat="44.75847412481491" lon="8.470588017121514"><ele>229.2</ele><time>2026-05-02T09:58:20Z</time></trkpt><trkpt lat="44.75853342567004" lon="8.470459898135246"><ele>229.0</ele><time>2026-05-02T09:58:21Z</time></trkpt><trkpt lat="44.758598623039966" lon="8.47035190603111"><ele>225.75</ele><time>2026-05-02T09:58:22Z</time></trkpt><trkpt lat="44.758679359384836" lon="8.470237749041644"><ele>222.5</ele><time>2026-05-02T09:58:23.001Z</time></trkpt><trkpt lat="44.75877047861197" lon="8.470155954870153"><ele>219.25</ele><time>2026-05-02T09:58:24.001Z</time></trkpt><trkpt lat="44.75887126330343" lon="8.470090894431358"><ele>216.0</ele><time>2026-05-02T09:58:25.001Z</time></trkpt><trkpt lat="44.75898190673157" lon="8.470032184218454"><ele>216.0</ele><time>2026-05-02T09:58:26.001Z</time></trkpt><trkpt lat="44.75909330599745" lon="8.46999398418091"><ele>216.0</ele><time>2026-05-02T09:58:27.001Z</time></trkpt><trkpt lat="44.75921658167594" lon="8.469956597468805"><ele>216.0</ele><time>2026-05-02T09:58:28.001Z</time></trkpt><trkpt lat="44.759340729865364" lon="8.469934470235692"><ele>216.0</ele><time>2026-05-02T09:58:29.001Z</time></trkpt><trkpt lat="44.75947693843631" lon="8.469936203887544"><ele>214.25</ele><time>2026-05-02T09:58:30.001Z</time></trkpt><trkpt lat="44.759611540983606" lon="8.46996404598998"><ele>212.5</ele><time>2026-05-02T09:58:31.001Z</time></trkpt><trkpt lat="44.75973961435345" lon="8.470012283205822"><ele>210.75</ele><time>2026-05-02T09:58:32.001Z</time></trkpt><trkpt lat="44.7598735880191" lon="8.470082416159338"><ele>209.0</ele><time>2026-05-02T09:58:33.001Z</time></trkpt><trkpt lat="44.76000572623137" lon="8.470161242621801"><ele>209.0</ele><time>2026-05-02T09:58:34.001Z</time></trkpt><trkpt lat="44.760136248135765" lon="8.470243391800771"><ele>209.0</ele><time>2026-05-02T09:58:35.001Z</time></trkpt><trkpt lat="44.76026513465023" lon="8.470315277327082"><ele>209.0</ele><time>2026-05-02T09:58:36.001Z</time></trkpt><trkpt lat="44.76038647562315" lon="8.47038217978388"><ele>209.0</ele><time>2026-05-02T09:58:37.001Z</time></trkpt><trkpt lat="44.760505053682145" lon="8.470445940871587"><ele>204.75</ele><time>2026-05-02T09:58:38.001Z</time></trkpt><trkpt lat="44.76062681644275" lon="8.470491745616739"><ele>200.5</ele><time>2026-05-02T09:58:39.001Z</time></trkpt><trkpt lat="44.76074488755939" lon="8.470519360098969"><ele>196.25</ele><time>2026-05-02T09:58:40.001Z</time></trkpt><trkpt lat="44.76086072716448" lon="8.470514725513505"><ele>192.0</ele><time>2026-05-02T09:58:41.001Z</time></trkpt><trkpt lat="44.76097086328867" lon="8.470469890582459"><ele>189.25</ele><time>2026-05-02T09:58:42.001Z</time></trkpt><trkpt lat="44.76107144149028" lon="8.470409741561683"><ele>186.5</ele><time>2026-05-02T09:58:43.001Z</time></trkpt><trkpt lat="44.76115726330731" lon="8.470295237225578"><ele>183.75</ele><time>2026-05-02T09:58:44.001Z</time></trkpt><trkpt lat="44.76121432005995" lon="8.470141247942506"><ele>181.0</ele><time>2026-05-02T09:58:45.001Z</time></trkpt><trkpt lat="44.76124734429253" lon="8.469968161498167"><ele>181.0</ele><time>2026-05-02T09:58:46Z</time></trkpt><trkpt lat="44.761246351227335" lon="8.469786617064415"><ele>181.0</ele><time>2026-05-02T09:58:47Z</time></trkpt><trkpt lat="44.76121759972935" lon="8.469624478294998"><ele>181.0</ele><time>2026-05-02T09:58:48Z</time></trkpt><trkpt lat="44.761148367359304" lon="8.469478720342117"><ele>181.0</ele><time>2026-05-02T09:58:49Z</time></trkpt><trkpt lat="44.761052878210144" lon="8.4693563141256"><ele>183.20000000000002</ele><time>2026-05-02T09:58:50Z</time></trkpt><trkpt lat="44.760957561273074" lon="8.469262897096277"><ele>185.4</ele><time>2026-05-02T09:58:51Z</time></trkpt><trkpt lat="44.760888274925264" lon="8.469166042470366"><ele>187.6</ele><time>2026-05-02T09:58:52Z</time></trkpt><trkpt lat="44.76084585001119" lon="8.469042900666517"><ele>189.8</ele><time>2026-05-02T09:58:53Z</time></trkpt><trkpt lat="44.76085867389201" lon="8.468910941514526"><ele>192.0</ele><time>2026-05-02T09:58:54Z</time></trkpt><trkpt lat="44.76089201395053" lon="8.468788680719765"><ele>191.0</ele><time>2026-05-02T09:58:55Z</time></trkpt><trkpt lat="44.7609891023943" lon="8.468732440669687"><ele>190.0</ele><time>2026-05-02T09:58:56Z</time></trkpt><trkpt lat="44.76109793711758" lon="8.468670803210568"><ele>189.0</ele><time>2026-05-02T09:58:57Z</time></trkpt><trkpt lat="44.76119666171042" lon="8.468589356976727"><ele>188.0</ele><time>2026-05-02T09:58:58Z</time></trkpt><trkpt lat="44.76128225004036" lon="8.468523674883688"><ele>187.0</ele><time>2026-05-02T09:58:59Z</time></trkpt><trkpt lat="44.761343855624126" lon="8.468399792484616"><ele>183.75</ele><time>2026-05-02T09:59:00Z</time></trkpt><trkpt lat="44.76138510661112" lon="8.468256290712137"><ele>180.5</ele><time>2026-05-02T09:59:01Z</time></trkpt><trkpt lat="44.76137080958586" lon="8.468080846511253"><ele>177.25</ele><time>2026-05-02T09:59:02Z</time></trkpt><trkpt lat="44.761330950240804" lon="8.46791036973299"><ele>174.0</ele><time>2026-05-02T09:59:03Z</time></trkpt><trkpt lat="44.761287588417844" lon="8.467741765331711"><ele>173.39999999999998</ele><time>2026-05-02T09:59:04Z</time></trkpt><trkpt lat="44.76123057126909" lon="8.4675932299204"><ele>172.8</ele><time>2026-05-02T09:59:05Z</time></trkpt><trkpt lat="44.76119720538133" lon="8.467442915994923"><ele>172.2</ele><time>2026-05-02T09:59:06Z</time></trkpt><trkpt lat="44.76119294967876" lon="8.46730061694268"><ele>171.60000000000002</ele><time>2026-05-02T09:59:07Z</time></trkpt><trkpt lat="44.76122620079073" lon="8.4671713453667"><ele>171.0</ele><time>2026-05-02T09:59:08Z</time></trkpt><trkpt lat="44.76130139866624" lon="8.467069995098468"><ele>170.75</ele><time>2026-05-02T09:59:09Z</time></trkpt><trkpt lat="44.76141188807897" lon="8.466996856094303"><ele>170.5</ele><time>2026-05-02T09:59:10Z</time></trkpt><trkpt lat="44.76153187260648" lon="8.466940594147133"><ele>170.25</ele><time>2026-05-02T09:59:11Z</time></trkpt><trkpt lat="44.761660131978026" lon="8.466883234670163"><ele>170.0</ele><time>2026-05-02T09:59:12Z</time></trkpt><trkpt lat="44.76178535385429" lon="8.466825744529523"><ele>168.25</ele><time>2026-05-02T09:59:13Z</time></trkpt><trkpt lat="44.761903280093605" lon="8.466761221144441"><ele>166.5</ele><time>2026-05-02T09:59:14Z</time></trkpt><trkpt lat="44.762023154864636" lon="8.466688103522813"><ele>164.75</ele><time>2026-05-02T09:59:15Z</time></trkpt><trkpt lat="44.76213923181217" lon="8.466596416479785"><ele>163.0</ele><time>2026-05-02T09:59:16Z</time></trkpt><trkpt lat="44.76224753985044" lon="8.46648124136654"><ele>163.0</ele><time>2026-05-02T09:59:17Z</time></trkpt><trkpt lat="44.76234436781613" lon="8.466345018280515"><ele>163.0</ele><time>2026-05-02T09:59:18Z</time></trkpt><trkpt lat="44.76242410759485" lon="8.466191567697276"><ele>163.0</ele><time>2026-05-02T09:59:19Z</time></trkpt><trkpt lat="44.76249439693515" lon="8.466021603081096"><ele>163.0</ele><time>2026-05-02T09:59:20Z</time></trkpt><trkpt lat="44.76255517934337" lon="8.465840318757369"><ele>162.75</ele><time>2026-05-02T09:59:21Z</time></trkpt><trkpt lat="44.762604527159944" lon="8.46565467207984"><ele>162.5</ele><time>2026-05-02T09:59:22Z</time></trkpt><trkpt lat="44.76265470710028" lon="8.465471074533896"><ele>162.25</ele><time>2026-05-02T09:59:23Z</time></trkpt><trkpt lat="44.762704614644015" lon="8.465284590000698"><ele>162.0</ele><time>2026-05-02T09:59:24Z</time></trkpt><trkpt lat="44.76275045151135" lon="8.465100259588977"><ele>161.25</ele><time>2026-05-02T09:59:25Z</time></trkpt><trkpt lat="44.762798298632156" lon="8.464918819611297"><ele>160.5</ele><time>2026-05-02T09:59:26Z</time></trkpt><trkpt lat="44.76284830062939" lon="8.464737592876203"><ele>159.75</ele><time>2026-05-02T09:59:27Z</time></trkpt><trkpt lat="44.76289152743976" lon="8.46455384167034"><ele>159.0</ele><time>2026-05-02T09:59:28Z</time></trkpt><trkpt lat="44.76293936251379" lon="8.464372804172738"><ele>158.75</ele><time>2026-05-02T09:59:29Z</time></trkpt><trkpt lat="44.76298812394093" lon="8.464190558101992"><ele>158.5</ele><time>2026-05-02T09:59:30Z</time></trkpt><trkpt lat="44.763033538837156" lon="8.464000842472212"><ele>158.25</ele><time>2026-05-02T09:59:31Z</time></trkpt><trkpt lat="44.763077509450106" lon="8.463815801932258"><ele>158.0</ele><time>2026-05-02T09:59:32Z</time></trkpt><trkpt lat="44.763117572927214" lon="8.463646844274924"><ele>157.8</ele><time>2026-05-02T09:59:33Z</time></trkpt><trkpt lat="44.76315955885036" lon="8.463493992739428"><ele>157.60000000000002</ele><time>2026-05-02T09:59:34Z</time></trkpt><trkpt lat="44.76321063507433" lon="8.463360025166118"><ele>157.39999999999998</ele><time>2026-05-02T09:59:35Z</time></trkpt><trkpt lat="44.763270236354565" lon="8.463241211673731"><ele>157.2</ele><time>2026-05-02T09:59:36Z</time></trkpt><trkpt lat="44.76335947788501" lon="8.463162891084547"><ele>157.0</ele><time>2026-05-02T09:59:37Z</time></trkpt><trkpt lat="44.76346634680934" lon="8.463153668837222"><ele>157.8</ele><time>2026-05-02T09:59:38Z</time></trkpt><trkpt lat="44.763571096852" lon="8.463127341351106"><ele>158.6</ele><time>2026-05-02T09:59:39Z</time></trkpt><trkpt lat="44.76367133687759" lon="8.463114589333143"><ele>159.4</ele><time>2026-05-02T09:59:40Z</time></trkpt><trkpt lat="44.76375791714227" lon="8.463088036728356"><ele>160.20000000000002</ele><time>2026-05-02T09:59:41Z</time></trkpt><trkpt lat="44.76383798709961" lon="8.463050000591629"><ele>161.0</ele><time>2026-05-02T09:59:42Z</time></trkpt><trkpt lat="44.76389504309287" lon="8.462993986375855"><ele>162.20000000000002</ele><time>2026-05-02T09:59:43Z</time></trkpt><trkpt lat="44.76392640685934" lon="8.46290672272914"><ele>163.4</ele><time>2026-05-02T09:59:44Z</time></trkpt><trkpt lat="44.76393716348562" lon="8.462784299650341"><ele>164.6</ele><time>2026-05-02T09:59:45Z</time></trkpt><trkpt lat="44.763908647440886" lon="8.462656226938794"><ele>165.8</ele><time>2026-05-02T09:59:46Z</time></trkpt><trkpt lat="44.76386050879222" lon="8.46251992486072"><ele>167.0</ele><time>2026-05-02T09:59:47Z</time></trkpt><trkpt lat="44.76380667983191" lon="8.46237359781966"><ele>167.0</ele><time>2026-05-02T09:59:48Z</time></trkpt><trkpt lat="44.76374443293064" lon="8.462210613244961"><ele>167.0</ele><time>2026-05-02T09:59:49Z</time></trkpt><trkpt lat="44.76368903533107" lon="8.462040937590107"><ele>167.0</ele><time>2026-05-02T09:59:50Z</time></trkpt><trkpt lat="44.763626716999795" lon="8.461852499825664"><ele>167.0</ele><time>2026-05-02T09:59:51Z</time></trkpt><trkpt lat="44.76355912708791" lon="8.46165726135957"><ele>166.33333333333331</ele><time>2026-05-02T09:59:52Z</time></trkpt><trkpt lat="44.76348902673648" lon="8.461454108531415"><ele>165.66666666666666</ele><time>2026-05-02T09:59:53Z</time></trkpt><trkpt lat="44.76342171543295" lon="8.461257378214638"><ele>165.0</ele><time>2026-05-02T09:59:54Z</time></trkpt><trkpt lat="44.76335048590704" lon="8.461061900298915"><ele>165.0</ele><time>2026-05-02T09:59:55Z</time></trkpt><trkpt lat="44.76327572523293" lon="8.460859940320967"><ele>165.0</ele><time>2026-05-02T09:59:56Z</time></trkpt><trkpt lat="44.76320523201593" lon="8.460664794117097"><ele>165.0</ele><time>2026-05-02T09:59:57Z</time></trkpt><trkpt lat="44.763128768883305" lon="8.46047547638757"><ele>166.0</ele><time>2026-05-02T09:59:58Z</time></trkpt><trkpt lat="44.76304944951657" lon="8.46028199323639"><ele>167.0</ele><time>2026-05-02T09:59:59Z</time></trkpt><trkpt lat="44.76296008090169" lon="8.460109189777347"><ele>168.0</ele><time>2026-05-02T10:00:00Z</time></trkpt><trkpt lat="44.762861194655336" lon="8.459934103954618"><ele>168.0</ele><time>2026-05-02T10:00:01Z</time></trkpt><trkpt lat="44.762765663326675" lon="8.459757029313987"><ele>168.0</ele><time>2026-05-02T10:00:02Z</time></trkpt><trkpt lat="44.76267290758725" lon="8.459574734771177"><ele>168.0</ele><time>2026-05-02T10:00:03Z</time></trkpt><trkpt lat="44.762588807839876" lon="8.45938893946115"><ele>166.66666666666666</ele><time>2026-05-02T10:00:04Z</time></trkpt><trkpt lat="44.76251097599025" lon="8.459192856933306"><ele>165.33333333333331</ele><time>2026-05-02T10:00:05Z</time></trkpt><trkpt lat="44.76243676068439" lon="8.458996990080589"><ele>164.0</ele><time>2026-05-02T10:00:06Z</time></trkpt><trkpt lat="44.7623612321921" lon="8.458802311218015"><ele>165.33333333333331</ele><time>2026-05-02T10:00:07Z</time></trkpt><trkpt lat="44.762288849735405" lon="8.458607854698883"><ele>166.66666666666666</ele><time>2026-05-02T10:00:08Z</time></trkpt><trkpt lat="44.7622157262853" lon="8.45840149025481"><ele>168.0</ele><time>2026-05-02T10:00:09Z</time></trkpt><trkpt lat="44.76214637240301" lon="8.45819496235506"><ele>168.0</ele><time>2026-05-02T10:00:10Z</time></trkpt><trkpt lat="44.76208344716974" lon="8.458037776879916"><ele>168.0</ele><time>2026-05-02T10:00:11Z</time></trkpt><trkpt lat="44.76202166955687" lon="8.45785935760612"><ele>168.0</ele><time>2026-05-02T10:00:12Z</time></trkpt><trkpt lat="44.76195831512204" lon="8.457671909110578"><ele>168.0</ele><time>2026-05-02T10:00:13Z</time></trkpt><trkpt lat="44.7618897055328" lon="8.457480698554063"><ele>168.0</ele><time>2026-05-02T10:00:14Z</time></trkpt><trkpt lat="44.76182407193224" lon="8.457308987086698"><ele>168.0</ele><time>2026-05-02T10:00:15Z</time></trkpt><trkpt lat="44.76176662972491" lon="8.45715215318755"><ele>168.0</ele><time>2026-05-02T10:00:16Z</time></trkpt><trkpt lat="44.76170958006291" lon="8.456993611367714"><ele>168.0</ele><time>2026-05-02T10:00:17Z</time></trkpt><trkpt lat="44.76165084032923" lon="8.456818723075198"><ele>168.0</ele><time>2026-05-02T10:00:18Z</time></trkpt><trkpt lat="44.76158888860061" lon="8.456641063360793"><ele>168.0</ele><time>2026-05-02T10:00:19Z</time></trkpt><trkpt lat="44.76152948655051" lon="8.456463965321028"><ele>168.0</ele><time>2026-05-02T10:00:20Z</time></trkpt><trkpt lat="44.76147565978183" lon="8.45628566967805"><ele>168.0</ele><time>2026-05-02T10:00:21Z</time></trkpt><trkpt lat="44.76143913925073" lon="8.456133650856373"><ele>168.0</ele><time>2026-05-02T10:00:22Z</time></trkpt><trkpt lat="44.76142879141875" lon="8.455953320755054"><ele>168.0</ele><time>2026-05-02T10:00:23Z</time></trkpt><trkpt lat="44.76144106361324" lon="8.45576502640008"><ele>168.0</ele><time>2026-05-02T10:00:24Z</time></trkpt><trkpt lat="44.761449793369835" lon="8.455569916763473"><ele>168.0</ele><time>2026-05-02T10:00:25.001Z</time></trkpt><trkpt lat="44.76146199180609" lon="8.45536786638968"><ele>168.66666666666666</ele><time>2026-05-02T10:00:26.001Z</time></trkpt><trkpt lat="44.76148245115163" lon="8.455147619514706"><ele>169.33333333333331</ele><time>2026-05-02T10:00:27.001Z</time></trkpt><trkpt lat="44.76150396876583" lon="8.45493360997091"><ele>170.0</ele><time>2026-05-02T10:00:28.001Z</time></trkpt><trkpt lat="44.761536297072986" lon="8.454724897135314"><ele>169.66666666666666</ele><time>2026-05-02T10:00:29.001Z</time></trkpt><trkpt lat="44.76155405105969" lon="8.454506102474417"><ele>169.33333333333334</ele><time>2026-05-02T10:00:30.001Z</time></trkpt><trkpt lat="44.76156937432106" lon="8.45429371890896"><ele>169.0</ele><time>2026-05-02T10:00:31.001Z</time></trkpt><trkpt lat="44.76160891031025" lon="8.454080886885379"><ele>169.0</ele><time>2026-05-02T10:00:32.001Z</time></trkpt><trkpt lat="44.76161843129882" lon="8.453869822334308"><ele>169.0</ele><time>2026-05-02T10:00:33.001Z</time></trkpt><trkpt lat="44.761636859496456" lon="8.453652842365658"><ele>169.0</ele><time>2026-05-02T10:00:34.001Z</time></trkpt><trkpt lat="44.761646815901564" lon="8.45344798394958"><ele>169.25</ele><time>2026-05-02T10:00:35.001Z</time></trkpt><trkpt lat="44.761659796159336" lon="8.453244563352964"><ele>169.5</ele><time>2026-05-02T10:00:36.001Z</time></trkpt><trkpt lat="44.761669399908804" lon="8.453034073203105"><ele>169.75</ele><time>2026-05-02T10:00:37.001Z</time></trkpt><trkpt lat="44.76168363385322" lon="8.452831440468776"><ele>170.0</ele><time>2026-05-02T10:00:38.001Z</time></trkpt><trkpt lat="44.761707579551704" lon="8.452628733022975"><ele>170.0</ele><time>2026-05-02T10:00:39.001Z</time></trkpt><trkpt lat="44.761734219333924" lon="8.452427781107584"><ele>170.0</ele><time>2026-05-02T10:00:40.001Z</time></trkpt><trkpt lat="44.761773989818316" lon="8.452248795759372"><ele>170.0</ele><time>2026-05-02T10:00:41.001Z</time></trkpt><trkpt lat="44.76181094006425" lon="8.452082894063315"><ele>170.0</ele><time>2026-05-02T10:00:42.001Z</time></trkpt><trkpt lat="44.761856423180184" lon="8.45193611021938"><ele>170.25</ele><time>2026-05-02T10:00:43.001Z</time></trkpt><trkpt lat="44.76190730875834" lon="8.451784705607047"><ele>170.5</ele><time>2026-05-02T10:00:44.001Z</time></trkpt><trkpt lat="44.76196425723359" lon="8.451620374464106"><ele>170.75</ele><time>2026-05-02T10:00:45.001Z</time></trkpt><trkpt lat="44.762022761558875" lon="8.451452108974722"><ele>171.0</ele><time>2026-05-02T10:00:46.001Z</time></trkpt><trkpt lat="44.762078313354365" lon="8.45127218488811"><ele>171.0</ele><time>2026-05-02T10:00:47.001Z</time></trkpt><trkpt lat="44.76213277231748" lon="8.451109140479167"><ele>171.0</ele><time>2026-05-02T10:00:48.001Z</time></trkpt><trkpt lat="44.762186830620564" lon="8.450941310752244"><ele>171.0</ele><time>2026-05-02T10:00:49.001Z</time></trkpt><trkpt lat="44.76226052171986" lon="8.450766410654975"><ele>171.0</ele><time>2026-05-02T10:00:50.001Z</time></trkpt><trkpt lat="44.762298952922244" lon="8.450570979661673"><ele>170.75</ele><time>2026-05-02T10:00:51.001Z</time></trkpt><trkpt lat="44.76233031426984" lon="8.450362086370212"><ele>170.5</ele><time>2026-05-02T10:00:52Z</time></trkpt><trkpt lat="44.762356414309096" lon="8.450170757739354"><ele>170.25</ele><time>2026-05-02T10:00:53Z</time></trkpt><trkpt lat="44.7623685328312" lon="8.449965974387394"><ele>170.0</ele><time>2026-05-02T10:00:54Z</time></trkpt><trkpt lat="44.76238593267053" lon="8.449770435258827"><ele>170.0</ele><time>2026-05-02T10:00:55Z</time></trkpt><trkpt lat="44.76239976459391" lon="8.449563841701735"><ele>170.0</ele><time>2026-05-02T10:00:56Z</time></trkpt><trkpt lat="44.76241789572947" lon="8.44935009201646"><ele>170.0</ele><time>2026-05-02T10:00:57Z</time></trkpt><trkpt lat="44.76243564630218" lon="8.44914531323388"><ele>170.0</ele><time>2026-05-02T10:00:58Z</time></trkpt><trkpt lat="44.76244139145446" lon="8.448942559624005"><ele>170.5</ele><time>2026-05-02T10:00:59Z</time></trkpt><trkpt lat="44.76245709949027" lon="8.448731608423884"><ele>171.0</ele><time>2026-05-02T10:01:00Z</time></trkpt><trkpt lat="44.76247685742464" lon="8.44852258643618"><ele>171.5</ele><time>2026-05-02T10:01:01Z</time></trkpt><trkpt lat="44.76249478654562" lon="8.448318840043488"><ele>172.0</ele><time>2026-05-02T10:01:02Z</time></trkpt><trkpt lat="44.76250986371236" lon="8.448120170010258"><ele>172.75</ele><time>2026-05-02T10:01:03Z</time></trkpt><trkpt lat="44.762527415099065" lon="8.447918515403853"><ele>173.5</ele><time>2026-05-02T10:01:04Z</time></trkpt><trkpt lat="44.762541193274664" lon="8.447738552553822"><ele>174.25</ele><time>2026-05-02T10:01:05Z</time></trkpt><trkpt lat="44.762557789919576" lon="8.447531649828308"><ele>175.0</ele><time>2026-05-02T10:01:06Z</time></trkpt><trkpt lat="44.762564544004434" lon="8.447331449629578"><ele>175.0</ele><time>2026-05-02T10:01:07Z</time></trkpt><trkpt lat="44.76255293173662" lon="8.447145856362427"><ele>175.0</ele><time>2026-05-02T10:01:08Z</time></trkpt><trkpt lat="44.76253680649835" lon="8.446957869926758"><ele>175.0</ele><time>2026-05-02T10:01:09Z</time></trkpt><trkpt lat="44.762527701913804" lon="8.446769101382996"><ele>175.0</ele><time>2026-05-02T10:01:10Z</time></trkpt><trkpt lat="44.762519588495074" lon="8.44658330003015"><ele>175.25</ele><time>2026-05-02T10:01:11Z</time></trkpt><trkpt lat="44.76251272046476" lon="8.44640681343351"><ele>175.5</ele><time>2026-05-02T10:01:12Z</time></trkpt><trkpt lat="44.76251072946343" lon="8.446222342601724"><ele>175.75</ele><time>2026-05-02T10:01:13Z</time></trkpt><trkpt lat="44.76250488143947" lon="8.446052258415184"><ele>176.0</ele><time>2026-05-02T10:01:14Z</time></trkpt><trkpt lat="44.76248996247395" lon="8.445903222816556"><ele>176.0</ele><time>2026-05-02T10:01:15Z</time></trkpt><trkpt lat="44.76248634144697" lon="8.445753556053157"><ele>176.0</ele><time>2026-05-02T10:01:16Z</time></trkpt><trkpt lat="44.762474611239" lon="8.445660992858816"><ele>176.0</ele><time>2026-05-02T10:01:17Z</time></trkpt><trkpt lat="44.76245866002222" lon="8.445534632372183"><ele>176.0</ele><time>2026-05-02T10:01:19Z</time></trkpt><trkpt lat="44.76246527985272" lon="8.445445536392372"><ele>176.0</ele><time>2026-05-02T10:01:24Z</time></trkpt><trkpt lat="44.76247671749086" lon="8.445263242971484"><ele>175.8</ele><time>2026-05-02T10:01:26Z</time></trkpt><trkpt lat="44.76247361732493" lon="8.445154191031081"><ele>175.60000000000002</ele><time>2026-05-02T10:01:27Z</time></trkpt><trkpt lat="44.76248735848134" lon="8.445015253810672"><ele>175.4</ele><time>2026-05-02T10:01:28Z</time></trkpt><trkpt lat="44.76250316743753" lon="8.44485955706774"><ele>175.2</ele><time>2026-05-02T10:01:29Z</time></trkpt><trkpt lat="44.762524691583955" lon="8.444700450021022"><ele>175.0</ele><time>2026-05-02T10:01:30Z</time></trkpt><trkpt lat="44.76254262316168" lon="8.444525368132114"><ele>175.0</ele><time>2026-05-02T10:01:31Z</time></trkpt><trkpt lat="44.762569342358056" lon="8.444327319057939"><ele>175.0</ele><time>2026-05-02T10:01:32Z</time></trkpt><trkpt lat="44.762597651346454" lon="8.444133755525085"><ele>175.0</ele><time>2026-05-02T10:01:33Z</time></trkpt><trkpt lat="44.762630941757614" lon="8.443938681118327"><ele>175.0</ele><time>2026-05-02T10:01:34Z</time></trkpt><trkpt lat="44.76266023596855" lon="8.44374216384315"><ele>175.0</ele><time>2026-05-02T10:01:35Z</time></trkpt><trkpt lat="44.76268318074195" lon="8.443541197899277"><ele>175.0</ele><time>2026-05-02T10:01:36Z</time></trkpt><trkpt lat="44.762704587992054" lon="8.443333162853474"><ele>175.0</ele><time>2026-05-02T10:01:37Z</time></trkpt><trkpt lat="44.76272911749512" lon="8.443120742675019"><ele>175.0</ele><time>2026-05-02T10:01:38Z</time></trkpt><trkpt lat="44.76276509364403" lon="8.442912922640016"><ele>177.0</ele><time>2026-05-02T10:01:39Z</time></trkpt><trkpt lat="44.76278810754273" lon="8.442703809065952"><ele>179.0</ele><time>2026-05-02T10:01:40Z</time></trkpt><trkpt lat="44.76280868034335" lon="8.442490178950878"><ele>181.0</ele><time>2026-05-02T10:01:41Z</time></trkpt><trkpt lat="44.76281788393384" lon="8.44226513853113"><ele>181.25</ele><time>2026-05-02T10:01:42Z</time></trkpt><trkpt lat="44.76284344587405" lon="8.442055539918842"><ele>181.5</ele><time>2026-05-02T10:01:43Z</time></trkpt><trkpt lat="44.76286213850908" lon="8.441879760906541"><ele>181.75</ele><time>2026-05-02T10:01:44Z</time></trkpt><trkpt lat="44.76288597930795" lon="8.441741305804115"><ele>182.0</ele><time>2026-05-02T10:01:45Z</time></trkpt><trkpt lat="44.76290269430291" lon="8.441642312406128"><ele>182.0</ele><time>2026-05-02T10:01:46Z</time></trkpt><trkpt lat="44.76291874951805" lon="8.44153958698389"><ele>182.0</ele><time>2026-05-02T10:01:48Z</time></trkpt><trkpt lat="44.76293346243304" lon="8.441450400534567"><ele>182.0</ele><time>2026-05-02T10:01:49Z</time></trkpt><trkpt lat="44.762972222489886" lon="8.441340309309329"><ele>182.0</ele><time>2026-05-02T10:01:50Z</time></trkpt><trkpt lat="44.76301632906755" lon="8.44120625435041"><ele>182.0</ele><time>2026-05-02T10:01:51Z</time></trkpt><trkpt lat="44.76306558687011" lon="8.441072129646802"><ele>182.0</ele><time>2026-05-02T10:01:52Z</time></trkpt><trkpt lat="44.763101719448485" lon="8.440917928246936"><ele>182.25</ele><time>2026-05-02T10:01:53Z</time></trkpt><trkpt lat="44.76313252701562" lon="8.440782849176816"><ele>182.5</ele><time>2026-05-02T10:01:54Z</time></trkpt><trkpt lat="44.76313865584574" lon="8.440608364642046"><ele>182.75</ele><time>2026-05-02T10:01:55Z</time></trkpt><trkpt lat="44.763169772898934" lon="8.44041873510947"><ele>183.0</ele><time>2026-05-02T10:01:56Z</time></trkpt><trkpt lat="44.76320936019693" lon="8.440226844477182"><ele>181.66666666666666</ele><time>2026-05-02T10:01:57Z</time></trkpt><trkpt lat="44.763251875769186" lon="8.440023948188967"><ele>180.33333333333331</ele><time>2026-05-02T10:01:58Z</time></trkpt><trkpt lat="44.7633001670281" lon="8.439826388263862"><ele>179.0</ele><time>2026-05-02T10:01:59Z</time></trkpt><trkpt lat="44.76334995999154" lon="8.439616650550542"><ele>178.66666666666666</ele><time>2026-05-02T10:02:00Z</time></trkpt><trkpt lat="44.76339580309249" lon="8.43940305778803"><ele>178.33333333333334</ele><time>2026-05-02T10:02:01Z</time></trkpt><trkpt lat="44.763450159638026" lon="8.439195170436308"><ele>178.0</ele><time>2026-05-02T10:02:02Z</time></trkpt><trkpt lat="44.76350732537927" lon="8.43898664491512"><ele>180.25</ele><time>2026-05-02T10:02:03Z</time></trkpt><trkpt lat="44.763558684460705" lon="8.43879223963814"><ele>182.5</ele><time>2026-05-02T10:02:04Z</time></trkpt><trkpt lat="44.76360031564688" lon="8.438597333213723"><ele>184.75</ele><time>2026-05-02T10:02:05Z</time></trkpt><trkpt lat="44.76365013253923" lon="8.438403334895535"><ele>187.0</ele><time>2026-05-02T10:02:06Z</time></trkpt><trkpt lat="44.76371508212301" lon="8.438217593947861"><ele>187.0</ele><time>2026-05-02T10:02:07Z</time></trkpt><trkpt lat="44.763754269837875" lon="8.438012724847084"><ele>187.0</ele><time>2026-05-02T10:02:08Z</time></trkpt><trkpt lat="44.763813439878234" lon="8.437819013304493"><ele>187.0</ele><time>2026-05-02T10:02:09Z</time></trkpt><trkpt lat="44.7638691017693" lon="8.43762062827281"><ele>186.66666666666669</ele><time>2026-05-02T10:02:10Z</time></trkpt><trkpt lat="44.76392527042106" lon="8.437416608434072"><ele>186.33333333333334</ele><time>2026-05-02T10:02:11Z</time></trkpt><trkpt lat="44.76398537777776" lon="8.437211387962137"><ele>186.0</ele><time>2026-05-02T10:02:12Z</time></trkpt><trkpt lat="44.76404552800888" lon="8.437011800320533"><ele>185.0</ele><time>2026-05-02T10:02:13Z</time></trkpt><trkpt lat="44.76411530151518" lon="8.436816795914073"><ele>184.0</ele><time>2026-05-02T10:02:14Z</time></trkpt><trkpt lat="44.764191760734754" lon="8.436648070119395"><ele>183.0</ele><time>2026-05-02T10:02:15Z</time></trkpt><trkpt lat="44.76426750696333" lon="8.436492356935803"><ele>182.0</ele><time>2026-05-02T10:02:16Z</time></trkpt><trkpt lat="44.76432646372611" lon="8.436322213873883"><ele>181.5</ele><time>2026-05-02T10:02:17Z</time></trkpt><trkpt lat="44.76436231668407" lon="8.436136926100028"><ele>181.0</ele><time>2026-05-02T10:02:18Z</time></trkpt><trkpt lat="44.76437316372051" lon="8.43593675449266"><ele>180.5</ele><time>2026-05-02T10:02:19Z</time></trkpt><trkpt lat="44.7643921098509" lon="8.435738396269368"><ele>180.0</ele><time>2026-05-02T10:02:20Z</time></trkpt><trkpt lat="44.764414487083044" lon="8.435543488453664"><ele>181.25</ele><time>2026-05-02T10:02:21Z</time></trkpt><trkpt lat="44.764439724971865" lon="8.435363754078425"><ele>182.5</ele><time>2026-05-02T10:02:22Z</time></trkpt><trkpt lat="44.7644576508823" lon="8.435167595709068"><ele>183.75</ele><time>2026-05-02T10:02:23Z</time></trkpt><trkpt lat="44.764479867548154" lon="8.434969118889704"><ele>185.0</ele><time>2026-05-02T10:02:24Z</time></trkpt><trkpt lat="44.76449770065812" lon="8.434772758442502"><ele>185.0</ele><time>2026-05-02T10:02:25.001Z</time></trkpt><trkpt lat="44.7645206208021" lon="8.434573492330586"><ele>185.0</ele><time>2026-05-02T10:02:26.001Z</time></trkpt><trkpt lat="44.76453609381433" lon="8.434389403618091"><ele>185.0</ele><time>2026-05-02T10:02:27.001Z</time></trkpt><trkpt lat="44.76455215108532" lon="8.434223868058721"><ele>185.0</ele><time>2026-05-02T10:02:28.001Z</time></trkpt><trkpt lat="44.76459088021493" lon="8.434072900605459"><ele>185.0</ele><time>2026-05-02T10:02:29.001Z</time></trkpt><trkpt lat="44.76461535323545" lon="8.43393656247133"><ele>185.0</ele><time>2026-05-02T10:02:30.001Z</time></trkpt><trkpt lat="44.764631925625494" lon="8.433819629453026"><ele>185.0</ele><time>2026-05-02T10:02:31.001Z</time></trkpt><trkpt lat="44.764644690243465" lon="8.433726494330237"><ele>185.0</ele><time>2026-05-02T10:02:32.001Z</time></trkpt><trkpt lat="44.7647039584559" lon="8.433627402089346"><ele>185.0</ele><time>2026-05-02T10:02:34.001Z</time></trkpt><trkpt lat="44.76471874005725" lon="8.43347208933848"><ele>183.75</ele><time>2026-05-02T10:02:36.001Z</time></trkpt><trkpt lat="44.7647186927925" lon="8.433349463603228"><ele>182.5</ele><time>2026-05-02T10:02:37.001Z</time></trkpt><trkpt lat="44.76472204950285" lon="8.43324211942778"><ele>181.25</ele><time>2026-05-02T10:02:38.001Z</time></trkpt><trkpt lat="44.764725066431495" lon="8.433145641116072"><ele>180.0</ele><time>2026-05-02T10:02:39.001Z</time></trkpt><trkpt lat="44.765151085818104" lon="8.4330290935772"><ele>180.4</ele><time>2026-05-02T10:02:41.001Z</time></trkpt><trkpt lat="44.7652337871601" lon="8.432978522165087"><ele>180.8</ele><time>2026-05-02T10:02:42.001Z</time></trkpt><trkpt lat="44.76532647877033" lon="8.432940166675031"><ele>181.2</ele><time>2026-05-02T10:02:43.001Z</time></trkpt><trkpt lat="44.765425089359105" lon="8.432904877493534"><ele>181.6</ele><time>2026-05-02T10:02:44.001Z</time></trkpt><trkpt lat="44.7655275512557" lon="8.432846926024595"><ele>182.0</ele><time>2026-05-02T10:02:45.001Z</time></trkpt><trkpt lat="44.76564195451546" lon="8.43279928851937"><ele>182.0</ele><time>2026-05-02T10:02:46.001Z</time></trkpt><trkpt lat="44.76575091985329" lon="8.432761885165716"><ele>182.0</ele><time>2026-05-02T10:02:47.001Z</time></trkpt><trkpt lat="44.76588431048303" lon="8.432735877946433"><ele>182.0</ele><time>2026-05-02T10:02:48.001Z</time></trkpt><trkpt lat="44.76601167318267" lon="8.432723385887707"><ele>182.0</ele><time>2026-05-02T10:02:49.001Z</time></trkpt><trkpt lat="44.76611856789024" lon="8.432733815699644"><ele>183.0</ele><time>2026-05-02T10:02:50.001Z</time></trkpt><trkpt lat="44.76623690856447" lon="8.432760888562303"><ele>184.0</ele><time>2026-05-02T10:02:51.001Z</time></trkpt><trkpt lat="44.76632404514036" lon="8.432820236593848"><ele>185.0</ele><time>2026-05-02T10:02:52.001Z</time></trkpt><trkpt lat="44.76640734675696" lon="8.432899273906811"><ele>186.0</ele><time>2026-05-02T10:02:53.001Z</time></trkpt><trkpt lat="44.76649388761036" lon="8.43297264158743"><ele>187.0</ele><time>2026-05-02T10:02:54.001Z</time></trkpt><trkpt lat="44.76658531787418" lon="8.433058477229778"><ele>188.6</ele><time>2026-05-02T10:02:55.001Z</time></trkpt><trkpt lat="44.76666924886641" lon="8.433137550873353"><ele>190.2</ele><time>2026-05-02T10:02:56.001Z</time></trkpt><trkpt lat="44.76675508204328" lon="8.43322143870526"><ele>191.8</ele><time>2026-05-02T10:02:57.001Z</time></trkpt><trkpt lat="44.766847081075014" lon="8.433312003280156"><ele>193.4</ele><time>2026-05-02T10:02:58Z</time></trkpt><trkpt lat="44.76693751609076" lon="8.433407967978319"><ele>195.0</ele><time>2026-05-02T10:02:59Z</time></trkpt><trkpt lat="44.76702101727617" lon="8.43351544666891"><ele>195.0</ele><time>2026-05-02T10:03:00Z</time></trkpt><trkpt lat="44.767111847293506" lon="8.433619179363275"><ele>195.0</ele><time>2026-05-02T10:03:01Z</time></trkpt><trkpt lat="44.76721124029378" lon="8.433704536909676"><ele>195.0</ele><time>2026-05-02T10:03:02Z</time></trkpt><trkpt lat="44.76731795160026" lon="8.43377221359964"><ele>195.0</ele><time>2026-05-02T10:03:03Z</time></trkpt><trkpt lat="44.76742589967334" lon="8.433823518449184"><ele>197.5</ele><time>2026-05-02T10:03:04Z</time></trkpt><trkpt lat="44.767534961752276" lon="8.433854981128333"><ele>200.0</ele><time>2026-05-02T10:03:05Z</time></trkpt><trkpt lat="44.76764591843281" lon="8.433882644333877"><ele>202.5</ele><time>2026-05-02T10:03:06Z</time></trkpt><trkpt lat="44.76776228706413" lon="8.433893524015005"><ele>205.0</ele><time>2026-05-02T10:03:07Z</time></trkpt><trkpt lat="44.7678772126911" lon="8.433896954081908"><ele>206.0</ele><time>2026-05-02T10:03:08Z</time></trkpt><trkpt lat="44.76797651596687" lon="8.433900230360074"><ele>207.0</ele><time>2026-05-02T10:03:09Z</time></trkpt><trkpt lat="44.76808499387754" lon="8.433921821212325"><ele>208.0</ele><time>2026-05-02T10:03:10Z</time></trkpt><trkpt lat="44.768184357138395" lon="8.43397265088727"><ele>209.0</ele><time>2026-05-02T10:03:11Z</time></trkpt><trkpt lat="44.76828493125977" lon="8.434036292545981"><ele>210.0</ele><time>2026-05-02T10:03:12Z</time></trkpt><trkpt lat="44.76838818678151" lon="8.434093650551675"><ele>210.0</ele><time>2026-05-02T10:03:13Z</time></trkpt><trkpt lat="44.768475208532195" lon="8.434145634013305"><ele>210.0</ele><time>2026-05-02T10:03:14Z</time></trkpt><trkpt lat="44.7685626036353" lon="8.434221294632541"><ele>210.0</ele><time>2026-05-02T10:03:15Z</time></trkpt><trkpt lat="44.768622977524565" lon="8.434307477255814"><ele>210.0</ele><time>2026-05-02T10:03:16Z</time></trkpt><trkpt lat="44.76866920267728" lon="8.43440743492864"><ele>210.0</ele><time>2026-05-02T10:03:17Z</time></trkpt><trkpt lat="44.76869565991421" lon="8.434539980067406"><ele>212.2</ele><time>2026-05-02T10:03:19Z</time></trkpt><trkpt lat="44.768683312492264" lon="8.434667104163516"><ele>214.4</ele><time>2026-05-02T10:03:22Z</time></trkpt><trkpt lat="44.76863437965802" lon="8.434770873144815"><ele>216.60000000000002</ele><time>2026-05-02T10:03:24Z</time></trkpt><trkpt lat="44.76854688843481" lon="8.434886042826363"><ele>218.8</ele><time>2026-05-02T10:03:26Z</time></trkpt><trkpt lat="44.768475654504634" lon="8.434919240267009"><ele>221.0</ele><time>2026-05-02T10:03:27Z</time></trkpt><trkpt lat="44.768397292360184" lon="8.434958369953476"><ele>222.0</ele><time>2026-05-02T10:03:28Z</time></trkpt><trkpt lat="44.768320304145" lon="8.435015710100535"><ele>223.00000000000003</ele><time>2026-05-02T10:03:29Z</time></trkpt><trkpt lat="44.76823902594642" lon="8.435096750291287"><ele>224.00000000000003</ele><time>2026-05-02T10:03:30Z</time></trkpt><trkpt lat="44.76815452186483" lon="8.435187937974892"><ele>225.0</ele><time>2026-05-02T10:03:31Z</time></trkpt><trkpt lat="44.76805412091377" lon="8.435277729311627"><ele>226.0</ele><time>2026-05-02T10:03:32Z</time></trkpt><trkpt lat="44.76799240118245" lon="8.43536820467443"><ele>228.8</ele><time>2026-05-02T10:03:33Z</time></trkpt><trkpt lat="44.7679252368568" lon="8.435478058804142"><ele>231.60000000000002</ele><time>2026-05-02T10:03:34Z</time></trkpt><trkpt lat="44.76787477197571" lon="8.435594377557907"><ele>234.4</ele><time>2026-05-02T10:03:35Z</time></trkpt><trkpt lat="44.767840386210764" lon="8.435699848629602"><ele>237.2</ele><time>2026-05-02T10:03:36Z</time></trkpt><trkpt lat="44.76780299577433" lon="8.43578232922726"><ele>240.0</ele><time>2026-05-02T10:03:37Z</time></trkpt><trkpt lat="44.76775491838179" lon="8.435937990292476"><ele>240.0</ele><time>2026-05-02T10:03:39Z</time></trkpt><trkpt lat="44.7677602722398" lon="8.436026863077853"><ele>240.0</ele><time>2026-05-02T10:03:40Z</time></trkpt><trkpt lat="44.76779995065583" lon="8.436111560455418"><ele>240.0</ele><time>2026-05-02T10:03:41Z</time></trkpt><trkpt lat="44.76786813951555" lon="8.436190532570702"><ele>240.0</ele><time>2026-05-02T10:03:42Z</time></trkpt><trkpt lat="44.76795530554663" lon="8.43624356708843"><ele>240.0</ele><time>2026-05-02T10:03:43Z</time></trkpt><trkpt lat="44.7680577173457" lon="8.436280244337283"><ele>240.0</ele><time>2026-05-02T10:03:44Z</time></trkpt><trkpt lat="44.76816616526741" lon="8.436316319454729"><ele>240.25</ele><time>2026-05-02T10:03:45Z</time></trkpt><trkpt lat="44.76827335910693" lon="8.43635569204757"><ele>240.5</ele><time>2026-05-02T10:03:46Z</time></trkpt><trkpt lat="44.76838727647503" lon="8.43639414334618"><ele>240.75</ele><time>2026-05-02T10:03:47Z</time></trkpt><trkpt lat="44.76850059269094" lon="8.436430566756508"><ele>241.0</ele><time>2026-05-02T10:03:48Z</time></trkpt><trkpt lat="44.76862585166927" lon="8.43646871908339"><ele>241.0</ele><time>2026-05-02T10:03:49Z</time></trkpt><trkpt lat="44.76874721900421" lon="8.436493697734486"><ele>241.0</ele><time>2026-05-02T10:03:50Z</time></trkpt><trkpt lat="44.76886681702236" lon="8.436505014292795"><ele>241.0</ele><time>2026-05-02T10:03:51Z</time></trkpt><trkpt lat="44.76898541369976" lon="8.436479005337338"><ele>241.0</ele><time>2026-05-02T10:03:52Z</time></trkpt><trkpt lat="44.76910581462379" lon="8.436448841503976"><ele>240.99999999999997</ele><time>2026-05-02T10:03:53Z</time></trkpt><trkpt lat="44.76920340755186" lon="8.436420317710601"><ele>241.0</ele><time>2026-05-02T10:03:54Z</time></trkpt><trkpt lat="44.76929787574616" lon="8.436403947671002"><ele>241.0</ele><time>2026-05-02T10:03:55Z</time></trkpt><trkpt lat="44.76936612722318" lon="8.43638344314301"><ele>241.0</ele><time>2026-05-02T10:03:56Z</time></trkpt><trkpt lat="44.769434781026625" lon="8.436388280589158"><ele>240.99999999999997</ele><time>2026-05-02T10:03:57Z</time></trkpt><trkpt lat="44.76951242085884" lon="8.436425220843162"><ele>241.0</ele><time>2026-05-02T10:03:58Z</time></trkpt><trkpt lat="44.76959338529344" lon="8.436491859557794"><ele>241.4</ele><time>2026-05-02T10:03:59Z</time></trkpt><trkpt lat="44.76967258415205" lon="8.436543176640692"><ele>241.8</ele><time>2026-05-02T10:04:00Z</time></trkpt><trkpt lat="44.769761332638524" lon="8.43659575190868"><ele>242.20000000000002</ele><time>2026-05-02T10:04:01Z</time></trkpt><trkpt lat="44.76985624507228" lon="8.436648429504167"><ele>242.60000000000002</ele><time>2026-05-02T10:04:02Z</time></trkpt><trkpt lat="44.76994071836505" lon="8.436723578033963"><ele>243.0</ele><time>2026-05-02T10:04:03Z</time></trkpt><trkpt lat="44.7700348091604" lon="8.436782757919845"><ele>243.0</ele><time>2026-05-02T10:04:04Z</time></trkpt><trkpt lat="44.770133706358756" lon="8.436825676037655"><ele>243.0</ele><time>2026-05-02T10:04:05Z</time></trkpt><trkpt lat="44.77021429251979" lon="8.43689721798378"><ele>243.0</ele><time>2026-05-02T10:04:06Z</time></trkpt><trkpt lat="44.77030686189636" lon="8.436957164632922"><ele>243.0</ele><time>2026-05-02T10:04:07Z</time></trkpt><trkpt lat="44.770400528334946" lon="8.437018230069775"><ele>243.0</ele><time>2026-05-02T10:04:08Z</time></trkpt><trkpt lat="44.77048529358528" lon="8.437057229831384"><ele>244.75</ele><time>2026-05-02T10:04:09Z</time></trkpt><trkpt lat="44.77054062743158" lon="8.437104375494771"><ele>246.5</ele><time>2026-05-02T10:04:10Z</time></trkpt><trkpt lat="44.770616590234724" lon="8.437159412359163"><ele>248.25</ele><time>2026-05-02T10:04:12Z</time></trkpt><trkpt lat="44.770719408257364" lon="8.436817897862634"><ele>250.0</ele><time>2026-05-02T10:04:15Z</time></trkpt><trkpt lat="44.770747013454525" lon="8.436669553566675"><ele>250.0</ele><time>2026-05-02T10:04:16Z</time></trkpt><trkpt lat="44.77078714269051" lon="8.43652710172589"><ele>250.0</ele><time>2026-05-02T10:04:17Z</time></trkpt><trkpt lat="44.77081770566335" lon="8.436386974958852"><ele>250.0</ele><time>2026-05-02T10:04:18Z</time></trkpt><trkpt lat="44.77086363156369" lon="8.436240913732336"><ele>250.0</ele><time>2026-05-02T10:04:19Z</time></trkpt><trkpt lat="44.77090209050286" lon="8.436107493682544"><ele>250.0</ele><time>2026-05-02T10:04:20Z</time></trkpt><trkpt lat="44.770920348987765" lon="8.435999733292691"><ele>249.33333333333331</ele><time>2026-05-02T10:04:21Z</time></trkpt><trkpt lat="44.770941056562194" lon="8.435890078090928"><ele>248.66666666666666</ele><time>2026-05-02T10:04:22Z</time></trkpt><trkpt lat="44.77095855889886" lon="8.435762785328848"><ele>248.0</ele><time>2026-05-02T10:04:23Z</time></trkpt><trkpt lat="44.77099890152811" lon="8.43563304679392"><ele>247.33333333333331</ele><time>2026-05-02T10:04:24Z</time></trkpt><trkpt lat="44.7710528164379" lon="8.435536453799624"><ele>246.66666666666666</ele><time>2026-05-02T10:04:25Z</time></trkpt><trkpt lat="44.77109494798442" lon="8.43546013718214"><ele>246.0</ele><time>2026-05-02T10:04:26Z</time></trkpt><trkpt lat="44.77115119314944" lon="8.435384128921228"><ele>246.0</ele><time>2026-05-02T10:04:28Z</time></trkpt><trkpt lat="44.771192323634814" lon="8.435309401362861"><ele>246.0</ele><time>2026-05-02T10:04:31Z</time></trkpt><trkpt lat="44.77125133717695" lon="8.4352261048296"><ele>246.0</ele><time>2026-05-02T10:04:35Z</time></trkpt><trkpt lat="44.77130300363333" lon="8.435172419798453"><ele>246.0</ele><time>2026-05-02T10:04:37.001Z</time></trkpt><trkpt lat="44.771244392128125" lon="8.435265026596774"><ele>246.0</ele><time>2026-05-02T10:04:44.001Z</time></trkpt><trkpt lat="44.771140785720675" lon="8.43539075401946"><ele>246.0</ele><time>2026-05-02T10:04:46.001Z</time></trkpt><trkpt lat="44.77109206473256" lon="8.435483995938586"><ele>244.4</ele><time>2026-05-02T10:04:47.001Z</time></trkpt><trkpt lat="44.771025652715394" lon="8.43559962092252"><ele>242.8</ele><time>2026-05-02T10:04:48.001Z</time></trkpt><trkpt lat="44.77097620091942" lon="8.435713156941361"><ele>241.20000000000002</ele><time>2026-05-02T10:04:49.001Z</time></trkpt><trkpt lat="44.770940337413386" lon="8.43581894595189"><ele>239.60000000000002</ele><time>2026-05-02T10:04:50.001Z</time></trkpt><trkpt lat="44.77091333748221" lon="8.43592936376289"><ele>238.0</ele><time>2026-05-02T10:04:51.001Z</time></trkpt><trkpt lat="44.770880352356826" lon="8.436073360557943"><ele>237.99999999999997</ele><time>2026-05-02T10:04:53.001Z</time></trkpt><trkpt lat="44.770953220510634" lon="8.436157755083489"><ele>238.0</ele><time>2026-05-02T10:04:55.001Z</time></trkpt><trkpt lat="44.77106260124868" lon="8.43620944388605"><ele>238.0</ele><time>2026-05-02T10:04:57.001Z</time></trkpt><trkpt lat="44.7711212015675" lon="8.436274302308291"><ele>238.0</ele><time>2026-05-02T10:04:58.001Z</time></trkpt><trkpt lat="44.77117745088142" lon="8.43633763062152"><ele>237.99999999999997</ele><time>2026-05-02T10:04:59.001Z</time></trkpt><trkpt lat="44.77124169967465" lon="8.43639873227155"><ele>238.0</ele><time>2026-05-02T10:05:00.001Z</time></trkpt><trkpt lat="44.771308265156065" lon="8.436446154412081"><ele>242.14285714285714</ele><time>2026-05-02T10:05:01.001Z</time></trkpt><trkpt lat="44.771375497474786" lon="8.436506875481681"><ele>246.28571428571428</ele><time>2026-05-02T10:05:02.001Z</time></trkpt><trkpt lat="44.7714345171956" lon="8.43655624223826"><ele>250.42857142857144</ele><time>2026-05-02T10:05:03.001Z</time></trkpt><trkpt lat="44.771496215548076" lon="8.436624612557797"><ele>254.57142857142858</ele><time>2026-05-02T10:05:04Z</time></trkpt><trkpt lat="44.771551848007235" lon="8.436668244049377"><ele>258.7142857142857</ele><time>2026-05-02T10:05:05Z</time></trkpt><trkpt lat="44.771614466953196" lon="8.436732125078741"><ele>262.8571428571429</ele><time>2026-05-02T10:05:06Z</time></trkpt><trkpt lat="44.771681432658575" lon="8.43679037917838"><ele>267.0</ele><time>2026-05-02T10:05:07Z</time></trkpt><trkpt lat="44.7717399569802" lon="8.436843424559521"><ele>267.0</ele><time>2026-05-02T10:05:08Z</time></trkpt><trkpt lat="44.77179705608844" lon="8.43689412861247"><ele>267.0</ele><time>2026-05-02T10:05:09Z</time></trkpt><trkpt lat="44.77189981549493" lon="8.43698145687187"><ele>267.0</ele><time>2026-05-02T10:05:11Z</time></trkpt><trkpt lat="44.771963221213134" lon="8.437046691736224"><ele>267.0</ele><time>2026-05-02T10:05:13Z</time></trkpt><trkpt lat="44.77203304102427" lon="8.437105929468594"><ele>267.0</ele><time>2026-05-02T10:05:15Z</time></trkpt><trkpt lat="44.772107070407024" lon="8.437081097285288"><ele>267.0</ele><time>2026-05-02T10:05:17Z</time></trkpt><trkpt lat="44.77219139678633" lon="8.436957834390311"><ele>268.2</ele><time>2026-05-02T10:05:19Z</time></trkpt><trkpt lat="44.77225308293189" lon="8.436883270137889"><ele>269.4</ele><time>2026-05-02T10:05:20Z</time></trkpt><trkpt lat="44.77232154203427" lon="8.43681080868092"><ele>270.6</ele><time>2026-05-02T10:05:21Z</time></trkpt><trkpt lat="44.77239518869065" lon="8.436729182925957"><ele>271.8</ele><time>2026-05-02T10:05:22Z</time></trkpt><trkpt lat="44.77251506626699" lon="8.436731483345739"><ele>273.0</ele><time>2026-05-02T10:05:23Z</time></trkpt><trkpt lat="44.77258643523605" lon="8.436644305329633"><ele>273.0</ele><time>2026-05-02T10:05:24Z</time></trkpt><trkpt lat="44.77265838678875" lon="8.436553682187984"><ele>273.0</ele><time>2026-05-02T10:05:25Z</time></trkpt><trkpt lat="44.77272466307341" lon="8.436444275171052"><ele>273.0</ele><time>2026-05-02T10:05:26Z</time></trkpt><trkpt lat="44.7727650232323" lon="8.436349842077249"><ele>273.0</ele><time>2026-05-02T10:05:27Z</time></trkpt><trkpt lat="44.77280186906429" lon="8.436171469753031"><ele>273.0</ele><time>2026-05-02T10:05:29Z</time></trkpt><trkpt lat="44.77281626769486" lon="8.436082673061417"><ele>273.2</ele><time>2026-05-02T10:05:30Z</time></trkpt><trkpt lat="44.772778372048684" lon="8.435899529570161"><ele>273.4</ele><time>2026-05-02T10:05:31Z</time></trkpt><trkpt lat="44.77276659384765" lon="8.435788035087816"><ele>273.59999999999997</ele><time>2026-05-02T10:05:32Z</time></trkpt><trkpt lat="44.77275560969416" lon="8.435680500169369"><ele>273.8</ele><time>2026-05-02T10:05:33Z</time></trkpt><trkpt lat="44.772744012687966" lon="8.435566965563137"><ele>274.0</ele><time>2026-05-02T10:05:34Z</time></trkpt><trkpt lat="44.772725838101785" lon="8.435395082546982"><ele>274.0</ele><time>2026-05-02T10:05:36Z</time></trkpt><trkpt lat="44.772706371743126" lon="8.435215475590491"><ele>274.0</ele><time>2026-05-02T10:05:38Z</time></trkpt><trkpt lat="44.77269303511825" lon="8.435095052029718"><ele>274.0</ele><time>2026-05-02T10:05:39Z</time></trkpt><trkpt lat="44.77267668113007" lon="8.43495003478724"><ele>274.0</ele><time>2026-05-02T10:05:40Z</time></trkpt><trkpt lat="44.7726594315957" lon="8.434797076559272"><ele>274.0</ele><time>2026-05-02T10:05:41Z</time></trkpt><trkpt lat="44.772642570548875" lon="8.434647563252488"><ele>270.8</ele><time>2026-05-02T10:05:42Z</time></trkpt><trkpt lat="44.77262604732449" lon="8.434501045076773"><ele>267.59999999999997</ele><time>2026-05-02T10:05:43Z</time></trkpt><trkpt lat="44.77260901960109" lon="8.434350053432116"><ele>264.4</ele><time>2026-05-02T10:05:44Z</time></trkpt><trkpt lat="44.77259526398067" lon="8.434225659651402"><ele>261.2</ele><time>2026-05-02T10:05:45Z</time></trkpt><trkpt lat="44.77258153904177" lon="8.43409388050711"><ele>258.0</ele><time>2026-05-02T10:05:46Z</time></trkpt><trkpt lat="44.77256521802879" lon="8.433937175479931"><ele>258.0</ele><time>2026-05-02T10:05:47Z</time></trkpt><trkpt lat="44.77255252458672" lon="8.433817316193695"><ele>258.0</ele><time>2026-05-02T10:05:48Z</time></trkpt><trkpt lat="44.77253883923113" lon="8.43369258378699"><ele>258.0</ele><time>2026-05-02T10:05:49Z</time></trkpt><trkpt lat="44.772525394092" lon="8.433569848537452"><ele>258.0</ele><time>2026-05-02T10:05:50Z</time></trkpt><trkpt lat="44.77250867104717" lon="8.433432193506235"><ele>258.0</ele><time>2026-05-02T10:05:51Z</time></trkpt><trkpt lat="44.77249108216513" lon="8.43330046244579"><ele>257.4</ele><time>2026-05-02T10:05:52Z</time></trkpt><trkpt lat="44.772468950710746" lon="8.433153755230531"><ele>256.8</ele><time>2026-05-02T10:05:53Z</time></trkpt><trkpt lat="44.77244640282652" lon="8.433004287434127"><ele>256.2</ele><time>2026-05-02T10:05:54Z</time></trkpt><trkpt lat="44.772425311528316" lon="8.432871178689306"><ele>255.6</ele><time>2026-05-02T10:05:55Z</time></trkpt><trkpt lat="44.7724034368727" lon="8.4327462095438"><ele>255.0</ele><time>2026-05-02T10:05:56Z</time></trkpt><trkpt lat="44.77237905844536" lon="8.432627524755832"><ele>254.0</ele><time>2026-05-02T10:05:57Z</time></trkpt><trkpt lat="44.772344313095175" lon="8.432501443623728"><ele>253.0</ele><time>2026-05-02T10:05:58Z</time></trkpt><trkpt lat="44.772282494661184" lon="8.43236497300821"><ele>252.0</ele><time>2026-05-02T10:05:59Z</time></trkpt><trkpt lat="44.77219407970918" lon="8.432236373315039"><ele>251.0</ele><time>2026-05-02T10:06:00Z</time></trkpt><trkpt lat="44.77211034958097" lon="8.432123829243833"><ele>249.25</ele><time>2026-05-02T10:06:01Z</time></trkpt><trkpt lat="44.77201970342145" lon="8.432005673089902"><ele>247.5</ele><time>2026-05-02T10:06:02Z</time></trkpt><trkpt lat="44.771930528798855" lon="8.431889434776322"><ele>245.75</ele><time>2026-05-02T10:06:03Z</time></trkpt><trkpt lat="44.77183649656732" lon="8.431766864934406"><ele>244.0</ele><time>2026-05-02T10:06:04Z</time></trkpt><trkpt lat="44.77175309201665" lon="8.431658148059316"><ele>243.6</ele><time>2026-05-02T10:06:05Z</time></trkpt><trkpt lat="44.771671653574785" lon="8.431551993838138"><ele>243.2</ele><time>2026-05-02T10:06:06Z</time></trkpt><trkpt lat="44.77159812682051" lon="8.431456152587954"><ele>242.79999999999998</ele><time>2026-05-02T10:06:07Z</time></trkpt><trkpt lat="44.771529014769555" lon="8.431366066962022"><ele>242.39999999999998</ele><time>2026-05-02T10:06:08Z</time></trkpt><trkpt lat="44.77145505453408" lon="8.431298478990081"><ele>242.0</ele><time>2026-05-02T10:06:09Z</time></trkpt><trkpt lat="44.77140354639376" lon="8.431201973995027"><ele>241.16666666666669</ele><time>2026-05-02T10:06:10Z</time></trkpt><trkpt lat="44.771350805291995" lon="8.431133040794796"><ele>240.33333333333334</ele><time>2026-05-02T10:06:11Z</time></trkpt><trkpt lat="44.77130308327091" lon="8.431070667601263"><ele>239.5</ele><time>2026-05-02T10:06:12Z</time></trkpt><trkpt lat="44.77124782439145" lon="8.430998443626027"><ele>238.66666666666669</ele><time>2026-05-02T10:06:15Z</time></trkpt><trkpt lat="44.77119787455691" lon="8.43093315865092"><ele>237.83333333333334</ele><time>2026-05-02T10:06:16Z</time></trkpt><trkpt lat="44.77115049708343" lon="8.430833471807246"><ele>237.0</ele><time>2026-05-02T10:06:20Z</time></trkpt><trkpt lat="44.77124540912126" lon="8.430889484132164"><ele>237.0</ele><time>2026-05-02T10:06:25Z</time></trkpt><trkpt lat="44.771315166903605" lon="8.431044013727547"><ele>237.0</ele><time>2026-05-02T10:06:26Z</time></trkpt><trkpt lat="44.77137541811053" lon="8.431159563662424"><ele>237.0</ele><time>2026-05-02T10:06:27Z</time></trkpt><trkpt lat="44.771470120959265" lon="8.431263865350807"><ele>237.0</ele><time>2026-05-02T10:06:28Z</time></trkpt><trkpt lat="44.771549725237655" lon="8.431388158337882"><ele>238.25</ele><time>2026-05-02T10:06:29.001Z</time></trkpt><trkpt lat="44.77164737763699" lon="8.431512861531889"><ele>239.5</ele><time>2026-05-02T10:06:30.001Z</time></trkpt><trkpt lat="44.77173210723271" lon="8.43164400639696"><ele>240.75</ele><time>2026-05-02T10:06:31.001Z</time></trkpt><trkpt lat="44.77182377090544" lon="8.431777914828485"><ele>242.0</ele><time>2026-05-02T10:06:32.001Z</time></trkpt><trkpt lat="44.77191976842515" lon="8.43191592795851"><ele>242.5</ele><time>2026-05-02T10:06:33.001Z</time></trkpt><trkpt lat="44.77201656171275" lon="8.432046074802102"><ele>243.0</ele><time>2026-05-02T10:06:34.001Z</time></trkpt><trkpt lat="44.772118585658944" lon="8.432175756441103"><ele>243.5</ele><time>2026-05-02T10:06:35.001Z</time></trkpt><trkpt lat="44.77221660515743" lon="8.432305212983941"><ele>244.0</ele><time>2026-05-02T10:06:36.001Z</time></trkpt><trkpt lat="44.77229831879499" lon="8.432441258924403"><ele>245.75</ele><time>2026-05-02T10:06:37.001Z</time></trkpt><trkpt lat="44.77236607613259" lon="8.432594390532305"><ele>247.5</ele><time>2026-05-02T10:06:38.001Z</time></trkpt><trkpt lat="44.77240291677245" lon="8.432770762871431"><ele>249.25</ele><time>2026-05-02T10:06:39.001Z</time></trkpt><trkpt lat="44.77241716793306" lon="8.432958114269509"><ele>251.0</ele><time>2026-05-02T10:06:40.001Z</time></trkpt><trkpt lat="44.77243751918927" lon="8.433150509475885"><ele>252.0</ele><time>2026-05-02T10:06:41.001Z</time></trkpt><trkpt lat="44.77246807799203" lon="8.43332763603253"><ele>253.0</ele><time>2026-05-02T10:06:42.001Z</time></trkpt><trkpt lat="44.77249237419976" lon="8.433506239229342"><ele>254.0</ele><time>2026-05-02T10:06:43.001Z</time></trkpt><trkpt lat="44.77251351476536" lon="8.433693210868443"><ele>255.0</ele><time>2026-05-02T10:06:44.001Z</time></trkpt><trkpt lat="44.77253182267133" lon="8.433878177861832"><ele>255.75</ele><time>2026-05-02T10:06:45.001Z</time></trkpt><trkpt lat="44.77254956085234" lon="8.4340612380214"><ele>256.5</ele><time>2026-05-02T10:06:46.001Z</time></trkpt><trkpt lat="44.77257554545795" lon="8.434243200324222"><ele>257.25</ele><time>2026-05-02T10:06:47.001Z</time></trkpt><trkpt lat="44.77259248386599" lon="8.434440453851808"><ele>258.0</ele><time>2026-05-02T10:06:48.001Z</time></trkpt><trkpt lat="44.77261162907373" lon="8.434628091070884"><ele>259.5</ele><time>2026-05-02T10:06:49.001Z</time></trkpt><trkpt lat="44.772629471836225" lon="8.434822260327719"><ele>261.0</ele><time>2026-05-02T10:06:50.001Z</time></trkpt><trkpt lat="44.7726515512629" lon="8.435009807118245"><ele>262.5</ele><time>2026-05-02T10:06:51.001Z</time></trkpt><trkpt lat="44.772671689488526" lon="8.435202695907288"><ele>264.0</ele><time>2026-05-02T10:06:52.001Z</time></trkpt><trkpt lat="44.7726917523921" lon="8.435387404054977"><ele>266.75</ele><time>2026-05-02T10:06:53.001Z</time></trkpt><trkpt lat="44.77271102234808" lon="8.435575163098758"><ele>269.5</ele><time>2026-05-02T10:06:54.001Z</time></trkpt><trkpt lat="44.77273099057564" lon="8.435759170919106"><ele>272.25</ele><time>2026-05-02T10:06:55.001Z</time></trkpt><trkpt lat="44.77275202968001" lon="8.435939530786888"><ele>275.0</ele><time>2026-05-02T10:06:56.001Z</time></trkpt><trkpt lat="44.77276440369245" lon="8.436109877349278"><ele>275.0</ele><time>2026-05-02T10:06:57.001Z</time></trkpt><trkpt lat="44.772748681233296" lon="8.436270369083832"><ele>275.0</ele><time>2026-05-02T10:06:58.001Z</time></trkpt><trkpt lat="44.772703059422895" lon="8.436423565342732"><ele>275.0</ele><time>2026-05-02T10:06:59.001Z</time></trkpt><trkpt lat="44.772626345203115" lon="8.436554091161895"><ele>275.0</ele><time>2026-05-02T10:07:00.001Z</time></trkpt><trkpt lat="44.77253121969346" lon="8.436662609193213"><ele>274.5</ele><time>2026-05-02T10:07:01.001Z</time></trkpt><trkpt lat="44.7724325252267" lon="8.436772704396988"><ele>274.0</ele><time>2026-05-02T10:07:02.001Z</time></trkpt><trkpt lat="44.77233040509162" lon="8.436886823999002"><ele>273.5</ele><time>2026-05-02T10:07:03.001Z</time></trkpt><trkpt lat="44.77222813682098" lon="8.437003324146332"><ele>273.0</ele><time>2026-05-02T10:07:04.001Z</time></trkpt><trkpt lat="44.77213395852794" lon="8.437122794520679"><ele>272.75</ele><time>2026-05-02T10:07:05.001Z</time></trkpt><trkpt lat="44.77205462416942" lon="8.437258536559991"><ele>272.5</ele><time>2026-05-02T10:07:06.001Z</time></trkpt><trkpt lat="44.772005093797866" lon="8.4374143325745"><ele>272.25</ele><time>2026-05-02T10:07:07.001Z</time></trkpt><trkpt lat="44.77198969166936" lon="8.437593177623475"><ele>272.0</ele><time>2026-05-02T10:07:08.001Z</time></trkpt><trkpt lat="44.77198746426822" lon="8.437758663351637"><ele>272.0</ele><time>2026-05-02T10:07:09.001Z</time></trkpt><trkpt lat="44.77201383549983" lon="8.43795353216354"><ele>272.0</ele><time>2026-05-02T10:07:10Z</time></trkpt><trkpt lat="44.772033080759556" lon="8.438144577101838"><ele>272.0</ele><time>2026-05-02T10:07:11Z</time></trkpt><trkpt lat="44.772057458934874" lon="8.438325861578871"><ele>272.0</ele><time>2026-05-02T10:07:12Z</time></trkpt><trkpt lat="44.772073965212215" lon="8.438483993116606"><ele>272.6</ele><time>2026-05-02T10:07:13Z</time></trkpt><trkpt lat="44.772088017244656" lon="8.438628492500365"><ele>273.2</ele><time>2026-05-02T10:07:14Z</time></trkpt><trkpt lat="44.772100434231675" lon="8.43876302652719"><ele>273.8</ele><time>2026-05-02T10:07:15Z</time></trkpt><trkpt lat="44.77211191938535" lon="8.438896642402453"><ele>274.4</ele><time>2026-05-02T10:07:17Z</time></trkpt><trkpt lat="44.77226390711133" lon="8.438918203009136"><ele>275.0</ele><time>2026-05-02T10:07:19Z</time></trkpt><trkpt lat="44.772332983366894" lon="8.438939493069231"><ele>276.6666666666667</ele><time>2026-05-02T10:07:20Z</time></trkpt><trkpt lat="44.772412109979456" lon="8.438953130173454"><ele>278.33333333333337</ele><time>2026-05-02T10:07:21Z</time></trkpt><trkpt lat="44.77248006572083" lon="8.438983806866545"><ele>280.0</ele><time>2026-05-02T10:07:22Z</time></trkpt><trkpt lat="44.77254224812262" lon="8.439029317088618"><ele>281.6666666666667</ele><time>2026-05-02T10:07:23Z</time></trkpt><trkpt lat="44.77259905052664" lon="8.439087923293432"><ele>283.3333333333333</ele><time>2026-05-02T10:07:24Z</time></trkpt><trkpt lat="44.77262015410436" lon="8.439193073673659"><ele>285.0</ele><time>2026-05-02T10:07:25Z</time></trkpt><trkpt lat="44.772606318792604" lon="8.439308725097092"><ele>285.0</ele><time>2026-05-02T10:07:26Z</time></trkpt><trkpt lat="44.77262511328393" lon="8.439408950961505"><ele>285.0</ele><time>2026-05-02T10:07:27Z</time></trkpt><trkpt lat="44.77263884630927" lon="8.439524202155587"><ele>285.0</ele><time>2026-05-02T10:07:28Z</time></trkpt><trkpt lat="44.77265783492497" lon="8.439644323350732"><ele>285.0</ele><time>2026-05-02T10:07:29Z</time></trkpt><trkpt lat="44.77267454935125" lon="8.439762904326392"><ele>285.0</ele><time>2026-05-02T10:07:30Z</time></trkpt><trkpt lat="44.77268853033932" lon="8.439875843349986"><ele>285.0</ele><time>2026-05-02T10:07:31Z</time></trkpt><trkpt lat="44.77270016582196" lon="8.439989971834828"><ele>288.8333333333333</ele><time>2026-05-02T10:07:32Z</time></trkpt><trkpt lat="44.77271282052338" lon="8.440100474063307"><ele>292.6666666666667</ele><time>2026-05-02T10:07:33Z</time></trkpt><trkpt lat="44.772712740829284" lon="8.440219350068187"><ele>296.5</ele><time>2026-05-02T10:07:34Z</time></trkpt><trkpt lat="44.772748046292946" lon="8.440325407833697"><ele>300.33333333333337</ele><time>2026-05-02T10:07:35Z</time></trkpt><trkpt lat="44.77276970954204" lon="8.44043401699765"><ele>304.1666666666667</ele><time>2026-05-02T10:07:36Z</time></trkpt><trkpt lat="44.77278759126078" lon="8.440548785383656"><ele>308.0</ele><time>2026-05-02T10:07:37Z</time></trkpt><trkpt lat="44.77279926698357" lon="8.440671883301034"><ele>308.33333333333337</ele><time>2026-05-02T10:07:38Z</time></trkpt><trkpt lat="44.77279402178178" lon="8.440792514258417"><ele>308.6666666666667</ele><time>2026-05-02T10:07:39Z</time></trkpt><trkpt lat="44.77278024400613" lon="8.440917784744483"><ele>309.0</ele><time>2026-05-02T10:07:40Z</time></trkpt><trkpt lat="44.77278442123412" lon="8.441009694983714"><ele>309.3333333333333</ele><time>2026-05-02T10:07:41Z</time></trkpt><trkpt lat="44.77278927438201" lon="8.441104382829272"><ele>309.66666666666663</ele><time>2026-05-02T10:07:42Z</time></trkpt><trkpt lat="44.772833540757325" lon="8.441199018576302"><ele>310.0</ele><time>2026-05-02T10:07:44Z</time></trkpt><trkpt lat="44.77286784598287" lon="8.441283713797532"><ele>308.8333333333333</ele><time>2026-05-02T10:07:46Z</time></trkpt><trkpt lat="44.77290617564582" lon="8.441367499429154"><ele>307.66666666666663</ele><time>2026-05-02T10:07:47Z</time></trkpt><trkpt lat="44.77292893733432" lon="8.441482169497487"><ele>306.5</ele><time>2026-05-02T10:07:48Z</time></trkpt><trkpt lat="44.77298222786342" lon="8.441609548883369"><ele>305.3333333333333</ele><time>2026-05-02T10:07:50Z</time></trkpt><trkpt lat="44.77302180683684" lon="8.441701437334444"><ele>304.1666666666667</ele><time>2026-05-02T10:07:52Z</time></trkpt><trkpt lat="44.77306922005432" lon="8.441769085401846"><ele>303.0</ele><time>2026-05-02T10:07:57Z</time></trkpt><trkpt lat="44.773250412308776" lon="8.441607440798231"><ele>303.0</ele><time>2026-05-02T10:07:59Z</time></trkpt><trkpt lat="44.77331063663503" lon="8.441476251954047"><ele>303.0</ele><time>2026-05-02T10:08:01Z</time></trkpt><trkpt lat="44.77337091039818" lon="8.441380339998284"><ele>303.0</ele><time>2026-05-02T10:08:03Z</time></trkpt><trkpt lat="44.77345661259467" lon="8.441348408366697"><ele>303.0</ele><time>2026-05-02T10:08:05Z</time></trkpt><trkpt lat="44.77352453799071" lon="8.441337629267371"><ele>303.0</ele><time>2026-05-02T10:08:07Z</time></trkpt><trkpt lat="44.773645124361074" lon="8.441370116170864"><ele>303.6</ele><time>2026-05-02T10:08:09Z</time></trkpt><trkpt lat="44.77374186168911" lon="8.441439752177658"><ele>304.20000000000005</ele><time>2026-05-02T10:08:11Z</time></trkpt><trkpt lat="44.77380951178981" lon="8.441464964198701"><ele>304.8</ele><time>2026-05-02T10:08:13Z</time></trkpt><trkpt lat="44.77385333434138" lon="8.441382633540872"><ele>305.40000000000003</ele><time>2026-05-02T10:08:16Z</time></trkpt><trkpt lat="44.77400539549266" lon="8.441312218751808"><ele>306.0</ele><time>2026-05-02T10:08:18Z</time></trkpt><trkpt lat="44.77405915613943" lon="8.441245252315912"><ele>306.0</ele><time>2026-05-02T10:08:21Z</time></trkpt><trkpt lat="44.77413348720943" lon="8.44121093286438"><ele>306.0</ele><time>2026-05-02T10:08:22Z</time></trkpt><trkpt lat="44.774222950891534" lon="8.441155671967715"><ele>306.0</ele><time>2026-05-02T10:08:23Z</time></trkpt><trkpt lat="44.77433145621529" lon="8.441020933160285"><ele>306.0</ele><time>2026-05-02T10:08:24Z</time></trkpt><trkpt lat="44.7744354791934" lon="8.440973056271925"><ele>306.0</ele><time>2026-05-02T10:08:25Z</time></trkpt><trkpt lat="44.774466288301745" lon="8.440892674304127"><ele>303.3333333333333</ele><time>2026-05-02T10:08:26Z</time></trkpt><trkpt lat="44.7745086620978" lon="8.44081791570188"><ele>300.6666666666667</ele><time>2026-05-02T10:08:27Z</time></trkpt><trkpt lat="44.77458063798703" lon="8.440707232905076"><ele>298.0</ele><time>2026-05-02T10:08:28Z</time></trkpt><trkpt lat="44.77465343298298" lon="8.440693654163354"><ele>295.33333333333337</ele><time>2026-05-02T10:08:29Z</time></trkpt><trkpt lat="44.774740565950516" lon="8.440622904961248"><ele>292.6666666666667</ele><time>2026-05-02T10:08:30Z</time></trkpt><trkpt lat="44.774793331295584" lon="8.440524173114756"><ele>290.0</ele><time>2026-05-02T10:08:31Z</time></trkpt><trkpt lat="44.77483560326756" lon="8.440333650716624"><ele>289.83333333333337</ele><time>2026-05-02T10:08:33Z</time></trkpt><trkpt lat="44.77488321810762" lon="8.440220234676783"><ele>289.6666666666667</ele><time>2026-05-02T10:08:35Z</time></trkpt><trkpt lat="44.77494755485516" lon="8.440164232230975"><ele>289.5</ele><time>2026-05-02T10:08:36Z</time></trkpt><trkpt lat="44.77502737074712" lon="8.440134725808292"><ele>289.3333333333333</ele><time>2026-05-02T10:08:37Z</time></trkpt><trkpt lat="44.775123854271264" lon="8.440080711215925"><ele>289.16666666666663</ele><time>2026-05-02T10:08:39Z</time></trkpt><trkpt lat="44.775190870487314" lon="8.440092554526975"><ele>289.0</ele><time>2026-05-02T10:08:40Z</time></trkpt><trkpt lat="44.77539451059133" lon="8.44018629398241"><ele>288.4</ele><time>2026-05-02T10:08:43Z</time></trkpt><trkpt lat="44.775513833680655" lon="8.440227647407083"><ele>287.79999999999995</ele><time>2026-05-02T10:08:45Z</time></trkpt><trkpt lat="44.77564372782907" lon="8.440227928837272"><ele>287.20000000000005</ele><time>2026-05-02T10:08:47Z</time></trkpt><trkpt lat="44.77570749058166" lon="8.44022923411912"><ele>286.6</ele><time>2026-05-02T10:08:48Z</time></trkpt><trkpt lat="44.77580341821758" lon="8.440233728964827"><ele>286.0</ele><time>2026-05-02T10:08:50Z</time></trkpt><trkpt lat="44.775909094714216" lon="8.440255095164117"><ele>285.8</ele><time>2026-05-02T10:08:52Z</time></trkpt><trkpt lat="44.77602971338142" lon="8.440305943024283"><ele>285.6</ele><time>2026-05-02T10:08:54Z</time></trkpt><trkpt lat="44.77609553988119" lon="8.44033486246076"><ele>285.4</ele><time>2026-05-02T10:08:56Z</time></trkpt><trkpt lat="44.77616933618938" lon="8.440373615834467"><ele>285.2</ele><time>2026-05-02T10:08:57Z</time></trkpt><trkpt lat="44.77626436048886" lon="8.440466392309181"><ele>285.0</ele><time>2026-05-02T10:08:58Z</time></trkpt><trkpt lat="44.77632958940866" lon="8.440514208044625"><ele>285.0</ele><time>2026-05-02T10:08:59Z</time></trkpt><trkpt lat="44.77640200015287" lon="8.440549491641743"><ele>285.0</ele><time>2026-05-02T10:09:00Z</time></trkpt><trkpt lat="44.77647836107352" lon="8.440594750263617"><ele>285.0</ele><time>2026-05-02T10:09:03Z</time></trkpt><trkpt lat="44.77660895515781" lon="8.440696950745986"><ele>285.0</ele><time>2026-05-02T10:09:05Z</time></trkpt><trkpt lat="44.77672824415664" lon="8.440743302573154"><ele>285.0</ele><time>2026-05-02T10:09:07Z</time></trkpt><trkpt lat="44.776846238745875" lon="8.440854522709033"><ele>282.4</ele><time>2026-05-02T10:09:09Z</time></trkpt><trkpt lat="44.776906953470395" lon="8.440925509635953"><ele>279.8</ele><time>2026-05-02T10:09:10Z</time></trkpt><trkpt lat="44.776969467805216" lon="8.441039683086283"><ele>277.2</ele><time>2026-05-02T10:09:11Z</time></trkpt><trkpt lat="44.7770535481101" lon="8.441107978745414"><ele>274.6</ele><time>2026-05-02T10:09:12Z</time></trkpt><trkpt lat="44.77717721125037" lon="8.441161163017293"><ele>272.0</ele><time>2026-05-02T10:09:14.001Z</time></trkpt><trkpt lat="44.777258941026254" lon="8.441199235631775"><ele>272.0</ele><time>2026-05-02T10:09:15.001Z</time></trkpt><trkpt lat="44.77733491264589" lon="8.441257561104303"><ele>272.0</ele><time>2026-05-02T10:09:16Z</time></trkpt><trkpt lat="44.77739699316471" lon="8.441344082873728"><ele>272.0</ele><time>2026-05-02T10:09:17Z</time></trkpt><trkpt lat="44.77743745607136" lon="8.441466517913069"><ele>272.0</ele><time>2026-05-02T10:09:19Z</time></trkpt><trkpt lat="44.77758207129121" lon="8.44161672748642"><ele>272.0</ele><time>2026-05-02T10:09:21Z</time></trkpt><trkpt lat="44.77767227424572" lon="8.441740631887772"><ele>270.6</ele><time>2026-05-02T10:09:22Z</time></trkpt><trkpt lat="44.77771582035879" lon="8.441819811010598"><ele>269.2</ele><time>2026-05-02T10:09:23Z</time></trkpt><trkpt lat="44.77777497348778" lon="8.441961961654302"><ele>267.8</ele><time>2026-05-02T10:09:25Z</time></trkpt><trkpt lat="44.777806021339366" lon="8.442073065481795"><ele>266.4</ele><time>2026-05-02T10:09:27Z</time></trkpt><trkpt lat="44.777816607274474" lon="8.44220558838474"><ele>265.0</ele><time>2026-05-02T10:09:29Z</time></trkpt><trkpt lat="44.77784727603456" lon="8.44236091852014"><ele>265.0</ele><time>2026-05-02T10:09:31Z</time></trkpt><trkpt lat="44.77792065634917" lon="8.442417909824448"><ele>265.0</ele><time>2026-05-02T10:09:33Z</time></trkpt><trkpt lat="44.778028911978616" lon="8.442366394032979"><ele>265.0</ele><time>2026-05-02T10:09:37Z</time></trkpt><trkpt lat="44.77809016350277" lon="8.442283379932446"><ele>265.0</ele><time>2026-05-02T10:09:39Z</time></trkpt><trkpt lat="44.778161621069025" lon="8.442235919242263"><ele>265.0</ele><time>2026-05-02T10:09:41Z</time></trkpt><trkpt lat="44.77821527421701" lon="8.44214257082929"><ele>265.0</ele><time>2026-05-02T10:09:44Z</time></trkpt><trkpt lat="44.77828760633488" lon="8.4421146134504"><ele>265.0</ele><time>2026-05-02T10:09:46Z</time></trkpt><trkpt lat="44.77837292800412" lon="8.442115912372905"><ele>265.0</ele><time>2026-05-02T10:09:47Z</time></trkpt><trkpt lat="44.778466513394456" lon="8.442166946861065"><ele>265.0</ele><time>2026-05-02T10:09:49Z</time></trkpt><trkpt lat="44.778535033973995" lon="8.442248132655807"><ele>265.0</ele><time>2026-05-02T10:09:51Z</time></trkpt><trkpt lat="44.77854625088208" lon="8.442433783346477"><ele>265.0</ele><time>2026-05-02T10:09:53Z</time></trkpt><trkpt lat="44.77858038302481" lon="8.442516425206328"><ele>262.16666666666663</ele><time>2026-05-02T10:09:55Z</time></trkpt><trkpt lat="44.77861568284096" lon="8.442610786025664"><ele>259.3333333333333</ele><time>2026-05-02T10:09:57Z</time></trkpt><trkpt lat="44.77868158713982" lon="8.442656260694779"><ele>256.5</ele><time>2026-05-02T10:09:59Z</time></trkpt><trkpt lat="44.77874205349426" lon="8.44269518605567"><ele>253.66666666666669</ele><time>2026-05-02T10:10:01Z</time></trkpt><trkpt lat="44.77880736559415" lon="8.442709064981297"><ele>250.83333333333334</ele><time>2026-05-02T10:10:02Z</time></trkpt><trkpt lat="44.77889537834809" lon="8.442757174646957"><ele>248.0</ele><time>2026-05-02T10:10:04Z</time></trkpt><trkpt lat="44.77894799261058" lon="8.442849992798953"><ele>248.00000000000003</ele><time>2026-05-02T10:10:06Z</time></trkpt><trkpt lat="44.77903203757195" lon="8.442925995594443"><ele>248.0</ele><time>2026-05-02T10:10:08Z</time></trkpt><trkpt lat="44.7790924474812" lon="8.443024966373375"><ele>248.0</ele><time>2026-05-02T10:10:10Z</time></trkpt><trkpt lat="44.7791656791289" lon="8.442966795305173"><ele>248.0</ele><time>2026-05-02T10:10:17Z</time></trkpt><trkpt lat="44.77923908530071" lon="8.442911443984654"><ele>248.00000000000003</ele><time>2026-05-02T10:10:19Z</time></trkpt><trkpt lat="44.77930829788328" lon="8.4428600350434"><ele>248.0</ele><time>2026-05-02T10:10:20Z</time></trkpt><trkpt lat="44.77940483094579" lon="8.442827216973287"><ele>245.33333333333334</ele><time>2026-05-02T10:10:22Z</time></trkpt><trkpt lat="44.779485035651895" lon="8.44288297178443"><ele>242.66666666666669</ele><time>2026-05-02T10:10:24Z</time></trkpt><trkpt lat="44.77955622934496" lon="8.442913773019738"><ele>240.0</ele><time>2026-05-02T10:10:26Z</time></trkpt><trkpt lat="44.7799436003227" lon="8.442918839366758"><ele>240.0</ele><time>2026-05-02T10:10:34Z</time></trkpt><trkpt lat="44.78004596647155" lon="8.44294964848665"><ele>240.0</ele><time>2026-05-02T10:10:35Z</time></trkpt><trkpt lat="44.78011985796934" lon="8.44302145832859"><ele>240.0</ele><time>2026-05-02T10:10:37Z</time></trkpt><trkpt lat="44.7802132204498" lon="8.443047082556818"><ele>240.0</ele><time>2026-05-02T10:10:43Z</time></trkpt><trkpt lat="44.78043808351889" lon="8.442999994789245"><ele>239.83333333333334</ele><time>2026-05-02T10:11:13Z</time></trkpt><trkpt lat="44.78049044593735" lon="8.442913197850185"><ele>239.66666666666669</ele><time>2026-05-02T10:11:16Z</time></trkpt><trkpt lat="44.78051405085233" lon="8.442810140293627"><ele>239.5</ele><time>2026-05-02T10:11:20Z</time></trkpt><trkpt lat="44.780560359629206" lon="8.442916833527462"><ele>239.33333333333334</ele><time>2026-05-02T10:11:24Z</time></trkpt><trkpt lat="44.78057205197312" lon="8.44302424977402"><ele>239.16666666666669</ele><time>2026-05-02T10:11:25Z</time></trkpt><trkpt lat="44.780579858895045" lon="8.443143192675029"><ele>239.0</ele><time>2026-05-02T10:11:27Z</time></trkpt><trkpt lat="44.78067424210355" lon="8.443200783474357"><ele>238.83333333333334</ele><time>2026-05-02T10:11:29Z</time></trkpt><trkpt lat="44.780744997503135" lon="8.443222938473161"><ele>238.66666666666669</ele><time>2026-05-02T10:11:30Z</time></trkpt><trkpt lat="44.78080088876977" lon="8.443299029307765"><ele>238.5</ele><time>2026-05-02T10:11:31Z</time></trkpt><trkpt lat="44.7808497314861" lon="8.443384164529428"><ele>238.33333333333331</ele><time>2026-05-02T10:11:32Z</time></trkpt><trkpt lat="44.78088939507739" lon="8.443463258724769"><ele>238.16666666666666</ele><time>2026-05-02T10:11:33Z</time></trkpt><trkpt lat="44.780983375221034" lon="8.443489404465039"><ele>238.0</ele><time>2026-05-02T10:11:34Z</time></trkpt><trkpt lat="44.78102719768218" lon="8.443598314510872"><ele>238.0</ele><time>2026-05-02T10:11:35Z</time></trkpt><trkpt lat="44.78109322729681" lon="8.443681050035377"><ele>238.0</ele><time>2026-05-02T10:11:37Z</time></trkpt><trkpt lat="44.78112541003549" lon="8.443784101510502"><ele>238.0</ele><time>2026-05-02T10:11:39Z</time></trkpt><trkpt lat="44.78126901914616" lon="8.443836522365642"><ele>238.0</ele><time>2026-05-02T10:11:41Z</time></trkpt><trkpt lat="44.781358496871306" lon="8.443899241376597"><ele>238.0</ele><time>2026-05-02T10:11:43Z</time></trkpt><trkpt lat="44.78140625380753" lon="8.444041664965342"><ele>236.60000000000002</ele><time>2026-05-02T10:11:45Z</time></trkpt><trkpt lat="44.7814902743027" lon="8.444183274292177"><ele>235.20000000000002</ele><time>2026-05-02T10:11:47Z</time></trkpt><trkpt lat="44.78158510319197" lon="8.444229106053628"><ele>233.8</ele><time>2026-05-02T10:11:48Z</time></trkpt><trkpt lat="44.78163033202124" lon="8.44433354740372"><ele>232.4</ele><time>2026-05-02T10:11:49Z</time></trkpt><trkpt lat="44.78171252100237" lon="8.444381090041757"><ele>231.0</ele><time>2026-05-02T10:11:50Z</time></trkpt><trkpt lat="44.781771766689374" lon="8.44448176196346"><ele>231.4</ele><time>2026-05-02T10:11:51Z</time></trkpt><trkpt lat="44.781852912623016" lon="8.444629497110128"><ele>231.8</ele><time>2026-05-02T10:11:52Z</time></trkpt><trkpt lat="44.78192436790269" lon="8.44475056197074"><ele>232.20000000000002</ele><time>2026-05-02T10:11:54Z</time></trkpt><trkpt lat="44.78197482841909" lon="8.444855492244644"><ele>232.60000000000002</ele><time>2026-05-02T10:11:55Z</time></trkpt><trkpt lat="44.78200950350244" lon="8.444990000226573"><ele>233.0</ele><time>2026-05-02T10:11:57Z</time></trkpt><trkpt lat="44.78207552336815" lon="8.445058151866574"><ele>233.00000000000003</ele><time>2026-05-02T10:11:59Z</time></trkpt><trkpt lat="44.782173181530574" lon="8.445073788064837"><ele>233.0</ele><time>2026-05-02T10:12:00Z</time></trkpt><trkpt lat="44.78224043106079" lon="8.445114195364964"><ele>233.0</ele><time>2026-05-02T10:12:01Z</time></trkpt><trkpt lat="44.78231983447571" lon="8.44518384092527"><ele>233.0</ele><time>2026-05-02T10:12:02Z</time></trkpt><trkpt lat="44.78238133195619" lon="8.445232250182592"><ele>233.00000000000003</ele><time>2026-05-02T10:12:03Z</time></trkpt><trkpt lat="44.78242971065339" lon="8.44530359312471"><ele>233.0</ele><time>2026-05-02T10:12:04Z</time></trkpt><trkpt lat="44.78249624656227" lon="8.445419460315712"><ele>232.4</ele><time>2026-05-02T10:12:06Z</time></trkpt><trkpt lat="44.78260068453145" lon="8.445484602967396"><ele>231.8</ele><time>2026-05-02T10:12:08Z</time></trkpt><trkpt lat="44.782662113012094" lon="8.44555348742107"><ele>231.2</ele><time>2026-05-02T10:12:09Z</time></trkpt><trkpt lat="44.782774981257084" lon="8.445589626846608"><ele>230.6</ele><time>2026-05-02T10:12:11Z</time></trkpt><trkpt lat="44.782846929020955" lon="8.44567769725449"><ele>230.0</ele><time>2026-05-02T10:12:13Z</time></trkpt><trkpt lat="44.7829132975568" lon="8.445709390801388"><ele>229.50000000000003</ele><time>2026-05-02T10:12:14Z</time></trkpt><trkpt lat="44.78298871602412" lon="8.445762035170336"><ele>229.0</ele><time>2026-05-02T10:12:15Z</time></trkpt><trkpt lat="44.783058384922406" lon="8.445867093579318"><ele>228.5</ele><time>2026-05-02T10:12:16Z</time></trkpt><trkpt lat="44.78311174085977" lon="8.445925744859192"><ele>228.0</ele><time>2026-05-02T10:12:17Z</time></trkpt><trkpt lat="44.78318854718651" lon="8.445959495387024"><ele>227.50000000000003</ele><time>2026-05-02T10:12:18Z</time></trkpt><trkpt lat="44.783287718510536" lon="8.4460137487845"><ele>227.0</ele><time>2026-05-02T10:12:20Z</time></trkpt><trkpt lat="44.7833627195122" lon="8.446051379452461"><ele>226.0</ele><time>2026-05-02T10:12:21Z</time></trkpt><trkpt lat="44.78360537806105" lon="8.44608249160986"><ele>225.0</ele><time>2026-05-02T10:12:24Z</time></trkpt><trkpt lat="44.78372393193191" lon="8.446121613765376"><ele>224.0</ele><time>2026-05-02T10:12:25Z</time></trkpt><trkpt lat="44.78390711909157" lon="8.446115549635321"><ele>224.00000000000003</ele><time>2026-05-02T10:12:27Z</time></trkpt><trkpt lat="44.78399253008468" lon="8.44604335621797"><ele>224.0</ele><time>2026-05-02T10:12:28Z</time></trkpt><trkpt lat="44.78406537437748" lon="8.446031679733581"><ele>224.0</ele><time>2026-05-02T10:12:29Z</time></trkpt><trkpt lat="44.78413040819958" lon="8.44598688145468"><ele>224.0</ele><time>2026-05-02T10:12:31Z</time></trkpt><trkpt lat="44.7842027678398" lon="8.446015101765541"><ele>224.00000000000003</ele><time>2026-05-02T10:12:33Z</time></trkpt><trkpt lat="44.78429831034048" lon="8.44608261601164"><ele>224.0</ele><time>2026-05-02T10:12:35Z</time></trkpt><trkpt lat="44.78441887470496" lon="8.44609945072002"><ele>222.75</ele><time>2026-05-02T10:12:36Z</time></trkpt><trkpt lat="44.7845149890737" lon="8.446181252460462"><ele>221.5</ele><time>2026-05-02T10:12:37Z</time></trkpt><trkpt lat="44.78463243937627" lon="8.446198987079368"><ele>220.25</ele><time>2026-05-02T10:12:38Z</time></trkpt><trkpt lat="44.78477054189581" lon="8.446174645208444"><ele>219.0</ele><time>2026-05-02T10:12:39Z</time></trkpt><trkpt lat="44.78487626433741" lon="8.446125724527235"><ele>219.0</ele><time>2026-05-02T10:12:40Z</time></trkpt><trkpt lat="44.78498433039283" lon="8.44610643959874"><ele>218.99999999999997</ele><time>2026-05-02T10:12:41Z</time></trkpt><trkpt lat="44.785105364257305" lon="8.44610152030332"><ele>218.99999999999997</ele><time>2026-05-02T10:12:42Z</time></trkpt><trkpt lat="44.78520330220139" lon="8.446121042047862"><ele>219.0</ele><time>2026-05-02T10:12:43Z</time></trkpt><trkpt lat="44.785297547888966" lon="8.446127103318135"><ele>219.0</ele><time>2026-05-02T10:12:44Z</time></trkpt><trkpt lat="44.78539756339406" lon="8.446115739216967"><ele>218.39999999999998</ele><time>2026-05-02T10:12:45Z</time></trkpt><trkpt lat="44.785469377155295" lon="8.44606569655731"><ele>217.79999999999998</ele><time>2026-05-02T10:12:46Z</time></trkpt><trkpt lat="44.78556816017669" lon="8.446039023239967"><ele>217.20000000000002</ele><time>2026-05-02T10:12:47Z</time></trkpt><trkpt lat="44.78566509465631" lon="8.445989724891232"><ele>216.60000000000002</ele><time>2026-05-02T10:12:48Z</time></trkpt><trkpt lat="44.78577063855627" lon="8.445947837694806"><ele>216.0</ele><time>2026-05-02T10:12:49Z</time></trkpt><trkpt lat="44.78587878176445" lon="8.44591430889778"><ele>216.0</ele><time>2026-05-02T10:12:51Z</time></trkpt><trkpt lat="44.78598965881858" lon="8.445948943633638"><ele>216.00000000000003</ele><time>2026-05-02T10:12:53Z</time></trkpt><trkpt lat="44.786075710936544" lon="8.445959486080383"><ele>216.00000000000003</ele><time>2026-05-02T10:12:54Z</time></trkpt><trkpt lat="44.78615308035449" lon="8.445966674340944"><ele>216.0</ele><time>2026-05-02T10:12:56Z</time></trkpt><trkpt lat="44.7862090249808" lon="8.44603120163267"><ele>216.0</ele><time>2026-05-02T10:12:57Z</time></trkpt><trkpt lat="44.78647593950605" lon="8.446026730750106"><ele>215.20000000000002</ele><time>2026-05-02T10:13:00Z</time></trkpt><trkpt lat="44.78662389475384" lon="8.44607588958025"><ele>214.40000000000003</ele><time>2026-05-02T10:13:01Z</time></trkpt><trkpt lat="44.78670491647067" lon="8.446109821135897"><ele>213.6</ele><time>2026-05-02T10:13:02Z</time></trkpt><trkpt lat="44.78676622193109" lon="8.446203873874552"><ele>212.8</ele><time>2026-05-02T10:13:03Z</time></trkpt><trkpt lat="44.78682698505794" lon="8.44626049837153"><ele>212.0</ele><time>2026-05-02T10:13:04Z</time></trkpt><trkpt lat="44.786882507313116" lon="8.44631385484556"><ele>211.0</ele><time>2026-05-02T10:13:05Z</time></trkpt><trkpt lat="44.786969182543594" lon="8.44636784307703"><ele>210.0</ele><time>2026-05-02T10:13:07Z</time></trkpt><trkpt lat="44.78705311154036" lon="8.44648054109876"><ele>209.0</ele><time>2026-05-02T10:13:09Z</time></trkpt><trkpt lat="44.78711493199674" lon="8.446589201743132"><ele>208.0</ele><time>2026-05-02T10:13:10Z</time></trkpt><trkpt lat="44.78716491022156" lon="8.446717307042825"><ele>207.0</ele><time>2026-05-02T10:13:11Z</time></trkpt><trkpt lat="44.787214319311424" lon="8.446871981197637"><ele>207.0</ele><time>2026-05-02T10:13:12Z</time></trkpt><trkpt lat="44.78727520598848" lon="8.4470123689883"><ele>207.0</ele><time>2026-05-02T10:13:13Z</time></trkpt><trkpt lat="44.787352066398974" lon="8.447139672601198"><ele>207.0</ele><time>2026-05-02T10:13:14Z</time></trkpt><trkpt lat="44.78743479187188" lon="8.447272095011432"><ele>207.0</ele><time>2026-05-02T10:13:15Z</time></trkpt><trkpt lat="44.787520572527704" lon="8.447380977375555"><ele>207.5</ele><time>2026-05-02T10:13:16Z</time></trkpt><trkpt lat="44.78762031754944" lon="8.447520807157963"><ele>208.0</ele><time>2026-05-02T10:13:17Z</time></trkpt><trkpt lat="44.78772055961467" lon="8.447651545459607"><ele>208.5</ele><time>2026-05-02T10:13:18Z</time></trkpt><trkpt lat="44.7878087057498" lon="8.44776373056011"><ele>209.0</ele><time>2026-05-02T10:13:19Z</time></trkpt><trkpt lat="44.78790407630632" lon="8.44785934026263"><ele>208.75</ele><time>2026-05-02T10:13:20Z</time></trkpt><trkpt lat="44.78798538206131" lon="8.447946772808745"><ele>208.5</ele><time>2026-05-02T10:13:21Z</time></trkpt><trkpt lat="44.78808778448471" lon="8.448043756584859"><ele>208.25</ele><time>2026-05-02T10:13:22Z</time></trkpt><trkpt lat="44.788212077316956" lon="8.44808682058782"><ele>208.0</ele><time>2026-05-02T10:13:23Z</time></trkpt><trkpt lat="44.78834053631618" lon="8.448090213617641"><ele>208.0</ele><time>2026-05-02T10:13:24Z</time></trkpt><trkpt lat="44.78846545526937" lon="8.448069081807514"><ele>208.0</ele><time>2026-05-02T10:13:25Z</time></trkpt><trkpt lat="44.78859704781393" lon="8.448025071068974"><ele>208.0</ele><time>2026-05-02T10:13:26Z</time></trkpt><trkpt lat="44.788726517132396" lon="8.447985370044634"><ele>208.0</ele><time>2026-05-02T10:13:27Z</time></trkpt><trkpt lat="44.788847654336855" lon="8.447943074346407"><ele>208.8</ele><time>2026-05-02T10:13:28Z</time></trkpt><trkpt lat="44.78896621650343" lon="8.447907756425545"><ele>209.60000000000002</ele><time>2026-05-02T10:13:29Z</time></trkpt><trkpt lat="44.789050591422" lon="8.44787652492376"><ele>210.39999999999998</ele><time>2026-05-02T10:13:30Z</time></trkpt><trkpt lat="44.789122093654484" lon="8.447888675659454"><ele>211.2</ele><time>2026-05-02T10:13:31Z</time></trkpt><trkpt lat="44.789259542633665" lon="8.44802633834616"><ele>212.0</ele><time>2026-05-02T10:13:33Z</time></trkpt><trkpt lat="44.789298034296806" lon="8.448153989913301"><ele>212.0</ele><time>2026-05-02T10:13:34Z</time></trkpt><trkpt lat="44.789324357229106" lon="8.448305543465164"><ele>212.0</ele><time>2026-05-02T10:13:35Z</time></trkpt><trkpt lat="44.789366604866174" lon="8.448451335321751"><ele>212.0</ele><time>2026-05-02T10:13:36Z</time></trkpt><trkpt lat="44.78940646702504" lon="8.448619413768437"><ele>212.0</ele><time>2026-05-02T10:13:37Z</time></trkpt><trkpt lat="44.78944386184156" lon="8.448788831306594"><ele>210.75</ele><time>2026-05-02T10:13:38Z</time></trkpt><trkpt lat="44.789476993134166" lon="8.448968230501288"><ele>209.5</ele><time>2026-05-02T10:13:39Z</time></trkpt><trkpt lat="44.78950995216107" lon="8.449155134810033"><ele>208.25</ele><time>2026-05-02T10:13:40Z</time></trkpt><trkpt lat="44.78954803576236" lon="8.449338711251757"><ele>207.0</ele><time>2026-05-02T10:13:41Z</time></trkpt><trkpt lat="44.78958961239483" lon="8.449512490759819"><ele>208.0</ele><time>2026-05-02T10:13:42Z</time></trkpt><trkpt lat="44.78963771581107" lon="8.449686460511225"><ele>209.0</ele><time>2026-05-02T10:13:43Z</time></trkpt><trkpt lat="44.78968932524669" lon="8.449856274055536"><ele>210.0</ele><time>2026-05-02T10:13:44Z</time></trkpt><trkpt lat="44.789747077616106" lon="8.450014720647426"><ele>211.0</ele><time>2026-05-02T10:13:45Z</time></trkpt><trkpt lat="44.789800462175" lon="8.450146867260763"><ele>211.0</ele><time>2026-05-02T10:13:46Z</time></trkpt><trkpt lat="44.789862694941334" lon="8.450274256147955"><ele>211.0</ele><time>2026-05-02T10:13:47Z</time></trkpt><trkpt lat="44.78993801334735" lon="8.450381958968933"><ele>211.0</ele><time>2026-05-02T10:13:48Z</time></trkpt><trkpt lat="44.7900319877835" lon="8.450462574445549"><ele>211.0</ele><time>2026-05-02T10:13:49Z</time></trkpt><trkpt lat="44.790137307656515" lon="8.45052789175996"><ele>211.0</ele><time>2026-05-02T10:13:50Z</time></trkpt><trkpt lat="44.79024167999508" lon="8.450588887947461"><ele>211.0</ele><time>2026-05-02T10:13:51Z</time></trkpt><trkpt lat="44.7903358584813" lon="8.450660538109297"><ele>211.0</ele><time>2026-05-02T10:13:52Z</time></trkpt><trkpt lat="44.79042286014994" lon="8.45076094653313"><ele>211.0</ele><time>2026-05-02T10:13:53Z</time></trkpt><trkpt lat="44.79048672328107" lon="8.450876409577633"><ele>211.0</ele><time>2026-05-02T10:13:54Z</time></trkpt><trkpt lat="44.7905574076229" lon="8.451009810534886"><ele>211.0</ele><time>2026-05-02T10:13:55Z</time></trkpt><trkpt lat="44.790616783313" lon="8.451147533145305"><ele>211.0</ele><time>2026-05-02T10:13:56Z</time></trkpt><trkpt lat="44.790677408193154" lon="8.451265689945556"><ele>211.0</ele><time>2026-05-02T10:13:57Z</time></trkpt><trkpt lat="44.7907485230706" lon="8.45137665447832"><ele>211.0</ele><time>2026-05-02T10:13:58Z</time></trkpt><trkpt lat="44.79081271707523" lon="8.451504235294456"><ele>211.0</ele><time>2026-05-02T10:13:59Z</time></trkpt><trkpt lat="44.790865490248606" lon="8.451628387449306"><ele>211.0</ele><time>2026-05-02T10:14:00Z</time></trkpt><trkpt lat="44.790905792473204" lon="8.451754942923255"><ele>211.20000000000002</ele><time>2026-05-02T10:14:01Z</time></trkpt><trkpt lat="44.79093451676085" lon="8.451898563065052"><ele>211.4</ele><time>2026-05-02T10:14:02Z</time></trkpt><trkpt lat="44.790969348681564" lon="8.452036985914848"><ele>211.6</ele><time>2026-05-02T10:14:03Z</time></trkpt><trkpt lat="44.79102407862813" lon="8.452192463859383"><ele>211.8</ele><time>2026-05-02T10:14:04Z</time></trkpt><trkpt lat="44.79108015612769" lon="8.452331740498334"><ele>212.0</ele><time>2026-05-02T10:14:05Z</time></trkpt><trkpt lat="44.79113628061621" lon="8.452465016981028"><ele>212.0</ele><time>2026-05-02T10:14:06Z</time></trkpt><trkpt lat="44.79119433749975" lon="8.452604893055787"><ele>212.0</ele><time>2026-05-02T10:14:07Z</time></trkpt><trkpt lat="44.79126541722193" lon="8.45273912593744"><ele>212.0</ele><time>2026-05-02T10:14:08Z</time></trkpt><trkpt lat="44.7913554862303" lon="8.452844787163835"><ele>212.0</ele><time>2026-05-02T10:14:09Z</time></trkpt><trkpt lat="44.791444293134376" lon="8.452965851244665"><ele>213.5</ele><time>2026-05-02T10:14:10Z</time></trkpt><trkpt lat="44.791537164450666" lon="8.453074742198519"><ele>215.0</ele><time>2026-05-02T10:14:11Z</time></trkpt><trkpt lat="44.79163212074596" lon="8.45318058719309"><ele>216.5</ele><time>2026-05-02T10:14:12Z</time></trkpt><trkpt lat="44.79173369928787" lon="8.453291237065232"><ele>218.0</ele><time>2026-05-02T10:14:13Z</time></trkpt><trkpt lat="44.7918175963052" lon="8.453427155740151"><ele>218.0</ele><time>2026-05-02T10:14:14Z</time></trkpt><trkpt lat="44.79190632121035" lon="8.453555906846564"><ele>218.0</ele><time>2026-05-02T10:14:15Z</time></trkpt><trkpt lat="44.792010528954066" lon="8.453690057880362"><ele>218.0</ele><time>2026-05-02T10:14:16Z</time></trkpt><trkpt lat="44.79210366576039" lon="8.453840652607528"><ele>218.0</ele><time>2026-05-02T10:14:17Z</time></trkpt><trkpt lat="44.792196851024315" lon="8.453992517656824"><ele>218.0</ele><time>2026-05-02T10:14:18Z</time></trkpt><trkpt lat="44.79226787779056" lon="8.454141174256167"><ele>218.0</ele><time>2026-05-02T10:14:19Z</time></trkpt><trkpt lat="44.7923558100437" lon="8.454258026488843"><ele>218.0</ele><time>2026-05-02T10:14:20Z</time></trkpt><trkpt lat="44.792437344125105" lon="8.454371381699735"><ele>218.0</ele><time>2026-05-02T10:14:21Z</time></trkpt><trkpt lat="44.792546701057475" lon="8.454476065567146"><ele>218.0</ele><time>2026-05-02T10:14:22Z</time></trkpt><trkpt lat="44.7926660010248" lon="8.454558247634221"><ele>218.0</ele><time>2026-05-02T10:14:23Z</time></trkpt><trkpt lat="44.792791116719556" lon="8.454640391833738"><ele>218.0</ele><time>2026-05-02T10:14:24Z</time></trkpt><trkpt lat="44.792915977424336" lon="8.454725365162593"><ele>218.0</ele><time>2026-05-02T10:14:25Z</time></trkpt><trkpt lat="44.793035471165396" lon="8.454812071205861"><ele>217.8</ele><time>2026-05-02T10:14:26Z</time></trkpt><trkpt lat="44.79313834830971" lon="8.454895558809268"><ele>217.60000000000002</ele><time>2026-05-02T10:14:27Z</time></trkpt><trkpt lat="44.793224202804716" lon="8.45497033709009"><ele>217.39999999999998</ele><time>2026-05-02T10:14:28Z</time></trkpt><trkpt lat="44.79330923077588" lon="8.455022304828086"><ele>217.2</ele><time>2026-05-02T10:14:29Z</time></trkpt><trkpt lat="44.79336450945522" lon="8.455100383347366"><ele>217.0</ele><time>2026-05-02T10:14:30Z</time></trkpt><trkpt lat="44.793527170138994" lon="8.455055363365947"><ele>216.6</ele><time>2026-05-02T10:14:32Z</time></trkpt><trkpt lat="44.793600790211414" lon="8.454966463106109"><ele>216.2</ele><time>2026-05-02T10:14:33Z</time></trkpt><trkpt lat="44.79368042549299" lon="8.454854329844666"><ele>215.8</ele><time>2026-05-02T10:14:34Z</time></trkpt><trkpt lat="44.79377279785841" lon="8.45475281324358"><ele>215.4</ele><time>2026-05-02T10:14:35Z</time></trkpt><trkpt lat="44.79388271974346" lon="8.454676124914197"><ele>215.0</ele><time>2026-05-02T10:14:36Z</time></trkpt><trkpt lat="44.79400635707631" lon="8.454668072300178"><ele>215.0</ele><time>2026-05-02T10:14:37Z</time></trkpt><trkpt lat="44.79414100246347" lon="8.454654846604296"><ele>215.0</ele><time>2026-05-02T10:14:38Z</time></trkpt><trkpt lat="44.794269600645" lon="8.454619305893518"><ele>215.0</ele><time>2026-05-02T10:14:39Z</time></trkpt><trkpt lat="44.794410018042484" lon="8.454610297526433"><ele>215.0</ele><time>2026-05-02T10:14:40Z</time></trkpt><trkpt lat="44.79454435077536" lon="8.454587080998424"><ele>214.5</ele><time>2026-05-02T10:14:41Z</time></trkpt><trkpt lat="44.79469080729501" lon="8.454572354034852"><ele>214.0</ele><time>2026-05-02T10:14:42Z</time></trkpt><trkpt lat="44.79482071068717" lon="8.4546024606666"><ele>213.5</ele><time>2026-05-02T10:14:43Z</time></trkpt><trkpt lat="44.794965077673226" lon="8.454611843480583"><ele>213.0</ele><time>2026-05-02T10:14:44Z</time></trkpt><trkpt lat="44.79510935262372" lon="8.454647363211894"><ele>211.5</ele><time>2026-05-02T10:14:45Z</time></trkpt><trkpt lat="44.79525664410294" lon="8.454673882763446"><ele>210.0</ele><time>2026-05-02T10:14:46Z</time></trkpt><trkpt lat="44.795395321183754" lon="8.454722261838413"><ele>208.5</ele><time>2026-05-02T10:14:47Z</time></trkpt><trkpt lat="44.79552709802858" lon="8.45474477702724"><ele>207.0</ele><time>2026-05-02T10:14:48Z</time></trkpt><trkpt lat="44.795643720925185" lon="8.454767749082224"><ele>207.0</ele><time>2026-05-02T10:14:49Z</time></trkpt><trkpt lat="44.79576659027936" lon="8.454790428413688"><ele>207.0</ele><time>2026-05-02T10:14:50Z</time></trkpt><trkpt lat="44.795865396150504" lon="8.45489997223446"><ele>207.0</ele><time>2026-05-02T10:14:51Z</time></trkpt><trkpt lat="44.79595042478423" lon="8.455037879808696"><ele>207.0</ele><time>2026-05-02T10:14:52Z</time></trkpt><trkpt lat="44.79604175218396" lon="8.455179946956088"><ele>206.5</ele><time>2026-05-02T10:14:53Z</time></trkpt><trkpt lat="44.79614020085093" lon="8.455319300997296"><ele>206.0</ele><time>2026-05-02T10:14:54Z</time></trkpt><trkpt lat="44.796253863030294" lon="8.45545558134362"><ele>205.5</ele><time>2026-05-02T10:14:55Z</time></trkpt><trkpt lat="44.796375664445506" lon="8.455587101426415"><ele>205.0</ele><time>2026-05-02T10:14:56Z</time></trkpt><trkpt lat="44.79650807631458" lon="8.4556997544661"><ele>204.66666666666666</ele><time>2026-05-02T10:14:57Z</time></trkpt><trkpt lat="44.79663555777202" lon="8.45582905340982"><ele>204.33333333333331</ele><time>2026-05-02T10:14:58Z</time></trkpt><trkpt lat="44.796762376022684" lon="8.455956088281074"><ele>204.0</ele><time>2026-05-02T10:14:59Z</time></trkpt><trkpt lat="44.79688421541404" lon="8.456067249461118"><ele>204.0</ele><time>2026-05-02T10:15:00Z</time></trkpt><trkpt lat="44.7970001173822" lon="8.456211965781899"><ele>204.0</ele><time>2026-05-02T10:15:01Z</time></trkpt><trkpt lat="44.79713035065674" lon="8.456296674453622"><ele>204.0</ele><time>2026-05-02T10:15:02Z</time></trkpt><trkpt lat="44.79724665540167" lon="8.456383688505595"><ele>204.0</ele><time>2026-05-02T10:15:03Z</time></trkpt><trkpt lat="44.7973595727239" lon="8.456461764686136"><ele>203.25</ele><time>2026-05-02T10:15:04Z</time></trkpt><trkpt lat="44.797468193139814" lon="8.456538934316308"><ele>202.5</ele><time>2026-05-02T10:15:05Z</time></trkpt><trkpt lat="44.79757469390692" lon="8.456628771421775"><ele>201.75</ele><time>2026-05-02T10:15:06Z</time></trkpt><trkpt lat="44.79770306610142" lon="8.456687752833266"><ele>201.0</ele><time>2026-05-02T10:15:07Z</time></trkpt><trkpt lat="44.79784108603514" lon="8.456736625411551"><ele>199.66666666666669</ele><time>2026-05-02T10:15:08Z</time></trkpt><trkpt lat="44.797991967339996" lon="8.456771912948687"><ele>198.33333333333334</ele><time>2026-05-02T10:15:09Z</time></trkpt><trkpt lat="44.798146201222075" lon="8.456786422472739"><ele>197.0</ele><time>2026-05-02T10:15:10Z</time></trkpt><trkpt lat="44.79828924463098" lon="8.456795915382779"><ele>197.0</ele><time>2026-05-02T10:15:11Z</time></trkpt><trkpt lat="44.798437157155114" lon="8.456805731423817"><ele>197.0</ele><time>2026-05-02T10:15:12Z</time></trkpt><trkpt lat="44.79858518923382" lon="8.456815620122681"><ele>197.0</ele><time>2026-05-02T10:15:13Z</time></trkpt><trkpt lat="44.79872190312217" lon="8.45680891711337"><ele>197.0</ele><time>2026-05-02T10:15:14Z</time></trkpt><trkpt lat="44.79885487881581" lon="8.45683340588989"><ele>196.0</ele><time>2026-05-02T10:15:15Z</time></trkpt><trkpt lat="44.79896721802851" lon="8.456856561394442"><ele>195.0</ele><time>2026-05-02T10:15:16Z</time></trkpt><trkpt lat="44.799081811187655" lon="8.456940267183395"><ele>194.0</ele><time>2026-05-02T10:15:17Z</time></trkpt><trkpt lat="44.79918995806616" lon="8.457028110891741"><ele>193.0</ele><time>2026-05-02T10:15:18Z</time></trkpt><trkpt lat="44.799301515580815" lon="8.45712817676665"><ele>192.5</ele><time>2026-05-02T10:15:19Z</time></trkpt><trkpt lat="44.799406479167686" lon="8.457230496232608"><ele>192.0</ele><time>2026-05-02T10:15:20Z</time></trkpt><trkpt lat="44.79952797334919" lon="8.457352636839522"><ele>191.5</ele><time>2026-05-02T10:15:21Z</time></trkpt><trkpt lat="44.79965844571617" lon="8.457455381976104"><ele>191.0</ele><time>2026-05-02T10:15:22Z</time></trkpt><trkpt lat="44.7997679357016" lon="8.457579825924897"><ele>191.0</ele><time>2026-05-02T10:15:23Z</time></trkpt><trkpt lat="44.79986856789392" lon="8.457674924756533"><ele>191.0</ele><time>2026-05-02T10:15:24Z</time></trkpt><trkpt lat="44.79997902601654" lon="8.457788955713262"><ele>191.0</ele><time>2026-05-02T10:15:25Z</time></trkpt><trkpt lat="44.80008473475192" lon="8.457917645823368"><ele>191.0</ele><time>2026-05-02T10:15:26Z</time></trkpt><trkpt lat="44.80018606095508" lon="8.45798652879003"><ele>190.5</ele><time>2026-05-02T10:15:27Z</time></trkpt><trkpt lat="44.80028814208456" lon="8.458090302517498"><ele>190.0</ele><time>2026-05-02T10:15:28Z</time></trkpt><trkpt lat="44.80041021745344" lon="8.458163451057702"><ele>189.5</ele><time>2026-05-02T10:15:29Z</time></trkpt><trkpt lat="44.80053305684023" lon="8.458250602686736"><ele>189.0</ele><time>2026-05-02T10:15:30Z</time></trkpt><trkpt lat="44.80062719962461" lon="8.458318503012375"><ele>189.0</ele><time>2026-05-02T10:15:31Z</time></trkpt><trkpt lat="44.80070787345952" lon="8.458367374464638"><ele>189.0</ele><time>2026-05-02T10:15:32Z</time></trkpt><trkpt lat="44.800803042304736" lon="8.4584106702159"><ele>189.0</ele><time>2026-05-02T10:15:33Z</time></trkpt><trkpt lat="44.80105389616664" lon="8.45851062668231"><ele>189.0</ele><time>2026-05-02T10:15:34Z</time></trkpt><trkpt lat="44.80119075882486" lon="8.45856566380905"><ele>187.75</ele><time>2026-05-02T10:15:35Z</time></trkpt><trkpt lat="44.80132180341561" lon="8.458648605337517"><ele>186.5</ele><time>2026-05-02T10:15:36Z</time></trkpt><trkpt lat="44.801449399773695" lon="8.458706065443735"><ele>185.25</ele><time>2026-05-02T10:15:37Z</time></trkpt><trkpt lat="44.80157701020139" lon="8.458753837242854"><ele>184.0</ele><time>2026-05-02T10:15:38Z</time></trkpt><trkpt lat="44.80172532903209" lon="8.458783417307226"><ele>184.5</ele><time>2026-05-02T10:15:39Z</time></trkpt><trkpt lat="44.801867935754224" lon="8.458809035438318"><ele>185.0</ele><time>2026-05-02T10:15:40Z</time></trkpt><trkpt lat="44.80200470234379" lon="8.458830978208255"><ele>185.5</ele><time>2026-05-02T10:15:41Z</time></trkpt><trkpt lat="44.80213749672692" lon="8.458825231803772"><ele>186.0</ele><time>2026-05-02T10:15:42Z</time></trkpt><trkpt lat="44.80226853012821" lon="8.458823202851878"><ele>186.0</ele><time>2026-05-02T10:15:43Z</time></trkpt><trkpt lat="44.802378993897754" lon="8.458850918661826"><ele>186.0</ele><time>2026-05-02T10:15:44Z</time></trkpt><trkpt lat="44.80247132774599" lon="8.458866892884611"><ele>186.0</ele><time>2026-05-02T10:15:45Z</time></trkpt><trkpt lat="44.80254918530262" lon="8.45890173813818"><ele>186.0</ele><time>2026-05-02T10:15:46Z</time></trkpt><trkpt lat="44.8026243867968" lon="8.458992097102486"><ele>186.0</ele><time>2026-05-02T10:15:47Z</time></trkpt><trkpt lat="44.80269016001217" lon="8.459102914379745"><ele>187.0</ele><time>2026-05-02T10:15:48Z</time></trkpt><trkpt lat="44.80274578353686" lon="8.45923819096602"><ele>188.0</ele><time>2026-05-02T10:15:49Z</time></trkpt><trkpt lat="44.80281863116648" lon="8.459357943461182"><ele>189.0</ele><time>2026-05-02T10:15:50Z</time></trkpt><trkpt lat="44.8028933378109" lon="8.459499300911595"><ele>190.0</ele><time>2026-05-02T10:15:51Z</time></trkpt><trkpt lat="44.80297200021327" lon="8.459652199215276"><ele>190.0</ele><time>2026-05-02T10:15:52Z</time></trkpt><trkpt lat="44.803047794804016" lon="8.459807917156237"><ele>190.0</ele><time>2026-05-02T10:15:53Z</time></trkpt><trkpt lat="44.80312738874053" lon="8.459965346523868"><ele>190.0</ele><time>2026-05-02T10:15:54Z</time></trkpt><trkpt lat="44.803216659677354" lon="8.460123037315187"><ele>190.0</ele><time>2026-05-02T10:15:55Z</time></trkpt><trkpt lat="44.803310787254176" lon="8.460275962113167"><ele>190.0</ele><time>2026-05-02T10:15:56Z</time></trkpt><trkpt lat="44.803402409182965" lon="8.460443260033996"><ele>190.0</ele><time>2026-05-02T10:15:57Z</time></trkpt><trkpt lat="44.803513453669034" lon="8.460592891281461"><ele>190.0</ele><time>2026-05-02T10:15:58Z</time></trkpt><trkpt lat="44.803631562211" lon="8.46074755266096"><ele>187.66666666666669</ele><time>2026-05-02T10:15:59Z</time></trkpt><trkpt lat="44.8037472234773" lon="8.46089568855996"><ele>185.33333333333334</ele><time>2026-05-02T10:16:00Z</time></trkpt><trkpt lat="44.803860966189816" lon="8.461052039326404"><ele>183.0</ele><time>2026-05-02T10:16:01Z</time></trkpt><trkpt lat="44.803972366065956" lon="8.461215671212091"><ele>183.75</ele><time>2026-05-02T10:16:02Z</time></trkpt><trkpt lat="44.80408538304538" lon="8.461376983491638"><ele>184.5</ele><time>2026-05-02T10:16:03Z</time></trkpt><trkpt lat="44.80419325713972" lon="8.46151704685495"><ele>185.25</ele><time>2026-05-02T10:16:04Z</time></trkpt><trkpt lat="44.80429279303553" lon="8.461626013110909"><ele>186.0</ele><time>2026-05-02T10:16:05Z</time></trkpt><trkpt lat="44.80438532764734" lon="8.461727555889384"><ele>186.0</ele><time>2026-05-02T10:16:06Z</time></trkpt><trkpt lat="44.80447642983572" lon="8.461802848538394"><ele>186.0</ele><time>2026-05-02T10:16:07Z</time></trkpt><trkpt lat="44.804534650984664" lon="8.46191117685993"><ele>186.0</ele><time>2026-05-02T10:16:08Z</time></trkpt><trkpt lat="44.804552332501395" lon="8.462035287542852"><ele>186.0</ele><time>2026-05-02T10:16:09Z</time></trkpt><trkpt lat="44.80453971515615" lon="8.462197651536183"><ele>186.0</ele><time>2026-05-02T10:16:10Z</time></trkpt><trkpt lat="44.80451151420728" lon="8.462355340714877"><ele>186.8</ele><time>2026-05-02T10:16:11Z</time></trkpt><trkpt lat="44.80447078073996" lon="8.462524017561266"><ele>187.60000000000002</ele><time>2026-05-02T10:16:12Z</time></trkpt><trkpt lat="44.804424892041325" lon="8.46267300326795"><ele>188.4</ele><time>2026-05-02T10:16:13Z</time></trkpt><trkpt lat="44.80440995901622" lon="8.462805451514122"><ele>189.2</ele><time>2026-05-02T10:16:14Z</time></trkpt><trkpt lat="44.80442058823384" lon="8.462942485431482"><ele>190.0</ele><time>2026-05-02T10:16:15Z</time></trkpt><trkpt lat="44.804458769683364" lon="8.463053991664701"><ele>190.0</ele><time>2026-05-02T10:16:16Z</time></trkpt><trkpt lat="44.80450253107277" lon="8.463210916717781"><ele>190.0</ele><time>2026-05-02T10:16:17Z</time></trkpt><trkpt lat="44.804576237931066" lon="8.463329685150532"><ele>190.0</ele><time>2026-05-02T10:16:18Z</time></trkpt><trkpt lat="44.80464372258212" lon="8.463477765587347"><ele>190.0</ele><time>2026-05-02T10:16:19Z</time></trkpt><trkpt lat="44.80471984662366" lon="8.463635063243471"><ele>190.0</ele><time>2026-05-02T10:16:20Z</time></trkpt><trkpt lat="44.804791826037686" lon="8.46379153919992"><ele>190.0</ele><time>2026-05-02T10:16:21Z</time></trkpt><trkpt lat="44.80485942589902" lon="8.463937732824917"><ele>190.0</ele><time>2026-05-02T10:16:22Z</time></trkpt><trkpt lat="44.80492166362553" lon="8.464074023066992"><ele>190.0</ele><time>2026-05-02T10:16:23Z</time></trkpt><trkpt lat="44.80498292671626" lon="8.464193395966172"><ele>190.0</ele><time>2026-05-02T10:16:24Z</time></trkpt><trkpt lat="44.80504635595334" lon="8.464317062750595"><ele>190.0</ele><time>2026-05-02T10:16:25Z</time></trkpt><trkpt lat="44.805111949132574" lon="8.464448852128646"><ele>190.0</ele><time>2026-05-02T10:16:26Z</time></trkpt><trkpt lat="44.80518116575486" lon="8.46460082585855"><ele>190.0</ele><time>2026-05-02T10:16:27Z</time></trkpt><trkpt lat="44.805112136196776" lon="8.465283584974374"><ele>188.66666666666669</ele><time>2026-05-02T10:16:28Z</time></trkpt><trkpt lat="44.805140862949365" lon="8.4654991969543"><ele>187.33333333333334</ele><time>2026-05-02T10:16:29Z</time></trkpt><trkpt lat="44.80517917138175" lon="8.465723933988201"><ele>186.0</ele><time>2026-05-02T10:16:30Z</time></trkpt><trkpt lat="44.805218071669835" lon="8.465951882123582"><ele>185.66666666666666</ele><time>2026-05-02T10:16:31Z</time></trkpt><trkpt lat="44.80525657535597" lon="8.466169759111201"><ele>185.33333333333331</ele><time>2026-05-02T10:16:32Z</time></trkpt><trkpt lat="44.805298815542756" lon="8.466359346096832"><ele>185.0</ele><time>2026-05-02T10:16:33Z</time></trkpt><trkpt lat="44.805340486163395" lon="8.46657341385077"><ele>184.33333333333331</ele><time>2026-05-02T10:16:34Z</time></trkpt><trkpt lat="44.80536554240658" lon="8.466787275487821"><ele>183.66666666666666</ele><time>2026-05-02T10:16:35Z</time></trkpt><trkpt lat="44.80538526771865" lon="8.467002678662881"><ele>183.0</ele><time>2026-05-02T10:16:36Z</time></trkpt><trkpt lat="44.80538517276096" lon="8.467208695763736"><ele>183.0</ele><time>2026-05-02T10:16:37Z</time></trkpt><trkpt lat="44.80539269144821" lon="8.467417432828164"><ele>183.0</ele><time>2026-05-02T10:16:38Z</time></trkpt><trkpt lat="44.805397758548175" lon="8.467613918671137"><ele>183.0</ele><time>2026-05-02T10:16:39Z</time></trkpt><trkpt lat="44.80539838127196" lon="8.467831045403134"><ele>183.0</ele><time>2026-05-02T10:16:40Z</time></trkpt><trkpt lat="44.80540772682728" lon="8.468018050525085"><ele>183.25</ele><time>2026-05-02T10:16:41Z</time></trkpt><trkpt lat="44.805421741924874" lon="8.468225225745474"><ele>183.5</ele><time>2026-05-02T10:16:42Z</time></trkpt><trkpt lat="44.805430528506875" lon="8.468433808748465"><ele>183.75</ele><time>2026-05-02T10:16:43Z</time></trkpt><trkpt lat="44.805428801445714" lon="8.468643024816219"><ele>184.0</ele><time>2026-05-02T10:16:44Z</time></trkpt><trkpt lat="44.80542234024425" lon="8.468771624596688"><ele>184.33333333333334</ele><time>2026-05-02T10:16:45Z</time></trkpt><trkpt lat="44.805409487790946" lon="8.468982225418152"><ele>184.66666666666666</ele><time>2026-05-02T10:16:46Z</time></trkpt><trkpt lat="44.805399692552385" lon="8.469207595873248"><ele>185.0</ele><time>2026-05-02T10:16:47Z</time></trkpt><trkpt lat="44.805396221602095" lon="8.469427965088888"><ele>185.5</ele><time>2026-05-02T10:16:48Z</time></trkpt><trkpt lat="44.805383381555366" lon="8.469649708440283"><ele>186.0</ele><time>2026-05-02T10:16:49Z</time></trkpt><trkpt lat="44.80536542250302" lon="8.469855944547668"><ele>186.5</ele><time>2026-05-02T10:16:50Z</time></trkpt><trkpt lat="44.805342324502554" lon="8.470013746437305"><ele>187.0</ele><time>2026-05-02T10:16:51Z</time></trkpt><trkpt lat="44.805337756340194" lon="8.470171601820656"><ele>187.0</ele><time>2026-05-02T10:16:52Z</time></trkpt><trkpt lat="44.80534122184092" lon="8.470321368349362"><ele>187.0</ele><time>2026-05-02T10:16:53Z</time></trkpt><trkpt lat="44.805336027385295" lon="8.470466737627694"><ele>187.0</ele><time>2026-05-02T10:16:54Z</time></trkpt><trkpt lat="44.80533464535776" lon="8.470584308426114"><ele>187.0</ele><time>2026-05-02T10:16:55Z</time></trkpt><trkpt lat="44.805330302602485" lon="8.47072341976814"><ele>187.0</ele><time>2026-05-02T10:16:56Z</time></trkpt><trkpt lat="44.80532754739908" lon="8.470856809764115"><ele>187.5</ele><time>2026-05-02T10:16:57Z</time></trkpt><trkpt lat="44.80531407397325" lon="8.470992924191618"><ele>188.0</ele><time>2026-05-02T10:16:58Z</time></trkpt><trkpt lat="44.80527873864339" lon="8.471164817821002"><ele>188.5</ele><time>2026-05-02T10:16:59Z</time></trkpt><trkpt lat="44.80523259324549" lon="8.471303294566399"><ele>189.0</ele><time>2026-05-02T10:17:00Z</time></trkpt><trkpt lat="44.80520050811073" lon="8.471464275969778"><ele>189.0</ele><time>2026-05-02T10:17:01Z</time></trkpt><trkpt lat="44.80518137091863" lon="8.471600091906687"><ele>189.0</ele><time>2026-05-02T10:17:02Z</time></trkpt><trkpt lat="44.80518568332871" lon="8.471768052597128"><ele>189.0</ele><time>2026-05-02T10:17:03Z</time></trkpt><trkpt lat="44.80521639824443" lon="8.471958845806428"><ele>189.0</ele><time>2026-05-02T10:17:04Z</time></trkpt><trkpt lat="44.80521626004986" lon="8.472126063870792"><ele>188.75</ele><time>2026-05-02T10:17:05Z</time></trkpt><trkpt lat="44.80519297772159" lon="8.47227966808401"><ele>188.5</ele><time>2026-05-02T10:17:06Z</time></trkpt><trkpt lat="44.80518013167838" lon="8.47243810300925"><ele>188.25</ele><time>2026-05-02T10:17:07Z</time></trkpt><trkpt lat="44.8051755727481" lon="8.472623602075814"><ele>188.0</ele><time>2026-05-02T10:17:08Z</time></trkpt><trkpt lat="44.80516959395944" lon="8.472781420265434"><ele>188.0</ele><time>2026-05-02T10:17:09Z</time></trkpt><trkpt lat="44.8051408316125" lon="8.472926739158334"><ele>188.0</ele><time>2026-05-02T10:17:10Z</time></trkpt><trkpt lat="44.80511198554857" lon="8.473081330016951"><ele>188.0</ele><time>2026-05-02T10:17:11Z</time></trkpt><trkpt lat="44.805086285606066" lon="8.473191046208287"><ele>188.0</ele><time>2026-05-02T10:17:12Z</time></trkpt><trkpt lat="44.805063752021525" lon="8.47333184428879"><ele>188.0</ele><time>2026-05-02T10:17:13Z</time></trkpt><trkpt lat="44.80514927242685" lon="8.47346988318103"><ele>188.0</ele><time>2026-05-02T10:17:15Z</time></trkpt><trkpt lat="44.80522021393172" lon="8.473535697940907"><ele>188.0</ele><time>2026-05-02T10:17:16Z</time></trkpt><trkpt lat="44.80530191672849" lon="8.473584096830832"><ele>188.0</ele><time>2026-05-02T10:17:17Z</time></trkpt><trkpt lat="44.80537825745104" lon="8.473640996463214"><ele>188.0</ele><time>2026-05-02T10:17:18Z</time></trkpt><trkpt lat="44.80545339725003" lon="8.473729412415068"><ele>188.0</ele><time>2026-05-02T10:17:19Z</time></trkpt><trkpt lat="44.80552010035222" lon="8.473846468840915"><ele>187.2</ele><time>2026-05-02T10:17:20Z</time></trkpt><trkpt lat="44.8055754533855" lon="8.473981713921981"><ele>186.4</ele><time>2026-05-02T10:17:21Z</time></trkpt><trkpt lat="44.8056555937948" lon="8.474091513274544"><ele>185.6</ele><time>2026-05-02T10:17:22Z</time></trkpt><trkpt lat="44.805710091707766" lon="8.47418872098203"><ele>184.79999999999998</ele><time>2026-05-02T10:17:23Z</time></trkpt><trkpt lat="44.805769244293856" lon="8.474307154551415"><ele>184.0</ele><time>2026-05-02T10:17:24Z</time></trkpt><trkpt lat="44.80581655158358" lon="8.474518517876955"><ele>183.0</ele><time>2026-05-02T10:17:25Z</time></trkpt><trkpt lat="44.80585783591731" lon="8.474663386001064"><ele>182.0</ele><time>2026-05-02T10:17:26Z</time></trkpt><trkpt lat="44.8058908011145" lon="8.474805092627939"><ele>181.0</ele><time>2026-05-02T10:17:27Z</time></trkpt><trkpt lat="44.80593701344239" lon="8.474961830077733"><ele>180.0</ele><time>2026-05-02T10:17:28Z</time></trkpt><trkpt lat="44.805996348054975" lon="8.475120691085124"><ele>178.83333333333334</ele><time>2026-05-02T10:17:29Z</time></trkpt><trkpt lat="44.80602465306227" lon="8.47524918648609"><ele>177.66666666666666</ele><time>2026-05-02T10:17:30Z</time></trkpt><trkpt lat="44.806065642451195" lon="8.475355291161291"><ele>176.5</ele><time>2026-05-02T10:17:31Z</time></trkpt><trkpt lat="44.80610549846171" lon="8.475466424627307"><ele>175.33333333333331</ele><time>2026-05-02T10:17:32Z</time></trkpt><trkpt lat="44.806143381756776" lon="8.475579154220764"><ele>174.16666666666666</ele><time>2026-05-02T10:17:33Z</time></trkpt><trkpt lat="44.80617038689751" lon="8.475696562147027"><ele>173.0</ele><time>2026-05-02T10:17:34Z</time></trkpt><trkpt lat="44.806209558473505" lon="8.47586263933083"><ele>172.60000000000002</ele><time>2026-05-02T10:17:35Z</time></trkpt><trkpt lat="44.8062054320947" lon="8.476053218500752"><ele>172.20000000000002</ele><time>2026-05-02T10:17:36.001Z</time></trkpt><trkpt lat="44.80620179805108" lon="8.476207297830438"><ele>171.8</ele><time>2026-05-02T10:17:37.001Z</time></trkpt><trkpt lat="44.806185923162495" lon="8.476354522674333"><ele>171.4</ele><time>2026-05-02T10:17:38.001Z</time></trkpt><trkpt lat="44.80616762319967" lon="8.476444121010086"><ele>171.0</ele><time>2026-05-02T10:17:39.001Z</time></trkpt><trkpt lat="44.8061740587001" lon="8.4765409054237"><ele>170.8</ele><time>2026-05-02T10:17:40Z</time></trkpt><trkpt lat="44.80614815333888" lon="8.47665191023674"><ele>170.60000000000002</ele><time>2026-05-02T10:17:41Z</time></trkpt><trkpt lat="44.80607878559681" lon="8.476836135032187"><ele>170.4</ele><time>2026-05-02T10:17:42Z</time></trkpt><trkpt lat="44.8060361928563" lon="8.476951057662394"><ele>170.2</ele><time>2026-05-02T10:17:43Z</time></trkpt><trkpt lat="44.80600882892813" lon="8.477056528039604"><ele>170.0</ele><time>2026-05-02T10:17:44Z</time></trkpt><trkpt lat="44.805929857819244" lon="8.47713646707701"><ele>168.83333333333331</ele><time>2026-05-02T10:17:46Z</time></trkpt><trkpt lat="44.80585836992813" lon="8.477255395507662"><ele>167.66666666666666</ele><time>2026-05-02T10:17:47Z</time></trkpt><trkpt lat="44.805825136819536" lon="8.477357863767065"><ele>166.5</ele><time>2026-05-02T10:17:48Z</time></trkpt><trkpt lat="44.805819109056905" lon="8.477450122758812"><ele>165.33333333333334</ele><time>2026-05-02T10:17:49Z</time></trkpt><trkpt lat="44.805820333138044" lon="8.477546733940692"><ele>164.16666666666669</ele><time>2026-05-02T10:17:50Z</time></trkpt><trkpt lat="44.80584079204229" lon="8.477670661768446"><ele>163.0</ele><time>2026-05-02T10:17:51Z</time></trkpt><trkpt lat="44.805887432157384" lon="8.477737519509876"><ele>163.0</ele><time>2026-05-02T10:17:52Z</time></trkpt><trkpt lat="44.80593724725166" lon="8.477817314659793"><ele>163.0</ele><time>2026-05-02T10:17:53Z</time></trkpt><trkpt lat="44.806015798281535" lon="8.477981940681515"><ele>163.0</ele><time>2026-05-02T10:17:55Z</time></trkpt><trkpt lat="44.80604979611627" lon="8.478106740270242"><ele>163.0</ele><time>2026-05-02T10:17:56Z</time></trkpt><trkpt lat="44.80610154245319" lon="8.478205199240561"><ele>163.0</ele><time>2026-05-02T10:17:57Z</time></trkpt><trkpt lat="44.80620342045323" lon="8.47824730059634"><ele>159.66666666666669</ele><time>2026-05-02T10:17:59Z</time></trkpt><trkpt lat="44.80626601337485" lon="8.478292354969552"><ele>156.33333333333334</ele><time>2026-05-02T10:18:00Z</time></trkpt><trkpt lat="44.80658866466481" lon="8.478321830494481"><ele>153.0</ele><time>2026-05-02T10:18:04Z</time></trkpt><trkpt lat="44.80677459944295" lon="8.47831355527601"><ele>152.25</ele><time>2026-05-02T10:18:06Z</time></trkpt><trkpt lat="44.80686835802247" lon="8.478281946708623"><ele>151.5</ele><time>2026-05-02T10:18:07Z</time></trkpt><trkpt lat="44.80709434722784" lon="8.478330020496252"><ele>150.75</ele><time>2026-05-02T10:18:10Z</time></trkpt><trkpt lat="44.80718359567397" lon="8.478381342051675"><ele>150.0</ele><time>2026-05-02T10:18:11Z</time></trkpt><trkpt lat="44.807259689373886" lon="8.478454197966329"><ele>150.0</ele><time>2026-05-02T10:18:12Z</time></trkpt><trkpt lat="44.80734491465081" lon="8.4785431216478"><ele>150.0</ele><time>2026-05-02T10:18:13Z</time></trkpt><trkpt lat="44.807444321684294" lon="8.47862611090716"><ele>150.0</ele><time>2026-05-02T10:18:14Z</time></trkpt><trkpt lat="44.80751835920842" lon="8.478672866504992"><ele>150.0</ele><time>2026-05-02T10:18:15Z</time></trkpt><trkpt lat="44.80758401229319" lon="8.478729769159639"><ele>150.0</ele><time>2026-05-02T10:18:16Z</time></trkpt><trkpt lat="44.8076301633467" lon="8.478798056997608"><ele>150.0</ele><time>2026-05-02T10:18:17Z</time></trkpt><trkpt lat="44.807704697779386" lon="8.478869199081526"><ele>150.4</ele><time>2026-05-02T10:18:19Z</time></trkpt><trkpt lat="44.807820876724946" lon="8.478866839036467"><ele>150.8</ele><time>2026-05-02T10:18:21Z</time></trkpt><trkpt lat="44.80789529455668" lon="8.47885852627569"><ele>151.2</ele><time>2026-05-02T10:18:22Z</time></trkpt><trkpt lat="44.808018954783144" lon="8.478867785144606"><ele>151.6</ele><time>2026-05-02T10:18:23Z</time></trkpt><trkpt lat="44.80813984460988" lon="8.478921717911108"><ele>152.0</ele><time>2026-05-02T10:18:24Z</time></trkpt><trkpt lat="44.80821710577264" lon="8.478983154459927"><ele>152.0</ele><time>2026-05-02T10:18:25Z</time></trkpt><trkpt lat="44.808332896627704" lon="8.479027452417071"><ele>152.0</ele><time>2026-05-02T10:18:27Z</time></trkpt><trkpt lat="44.8084412115122" lon="8.478939974610725"><ele>152.0</ele><time>2026-05-02T10:18:29Z</time></trkpt><trkpt lat="44.808494429370526" lon="8.478850397669794"><ele>152.0</ele><time>2026-05-02T10:18:30Z</time></trkpt><trkpt lat="44.808545461042954" lon="8.478728777848826"><ele>152.0</ele><time>2026-05-02T10:18:31Z</time></trkpt><trkpt lat="44.80861042506448" lon="8.47860212419144"><ele>154.0</ele><time>2026-05-02T10:18:32Z</time></trkpt><trkpt lat="44.80869266635734" lon="8.478470636838571"><ele>156.0</ele><time>2026-05-02T10:18:33Z</time></trkpt><trkpt lat="44.80875424280162" lon="8.478345842038472"><ele>158.0</ele><time>2026-05-02T10:18:34Z</time></trkpt><trkpt lat="44.80881805930462" lon="8.47822003443888"><ele>160.0</ele><time>2026-05-02T10:18:35Z</time></trkpt><trkpt lat="44.808903311241195" lon="8.478103587477957"><ele>160.0</ele><time>2026-05-02T10:18:36Z</time></trkpt><trkpt lat="44.80899639188492" lon="8.477993197973651"><ele>160.0</ele><time>2026-05-02T10:18:37Z</time></trkpt><trkpt lat="44.80910110292019" lon="8.477879414177714"><ele>160.0</ele><time>2026-05-02T10:18:38Z</time></trkpt><trkpt lat="44.80917073460358" lon="8.477764326910195"><ele>160.0</ele><time>2026-05-02T10:18:39Z</time></trkpt><trkpt lat="44.80923411594821" lon="8.477631616707113"><ele>161.5</ele><time>2026-05-02T10:18:40Z</time></trkpt><trkpt lat="44.8092725004144" lon="8.477471160065424"><ele>163.0</ele><time>2026-05-02T10:18:41Z</time></trkpt><trkpt lat="44.8092905807912" lon="8.477314787629119"><ele>164.5</ele><time>2026-05-02T10:18:42Z</time></trkpt><trkpt lat="44.80929825962964" lon="8.477121173930101"><ele>166.0</ele><time>2026-05-02T10:18:43Z</time></trkpt><trkpt lat="44.80933422048733" lon="8.47691907435284"><ele>166.0</ele><time>2026-05-02T10:18:44Z</time></trkpt><trkpt lat="44.809372999784436" lon="8.476712920200024"><ele>166.0</ele><time>2026-05-02T10:18:45Z</time></trkpt><trkpt lat="44.80941878582545" lon="8.476523912838916"><ele>166.0</ele><time>2026-05-02T10:18:46Z</time></trkpt><trkpt lat="44.809463102187" lon="8.476328092029002"><ele>166.0</ele><time>2026-05-02T10:18:47Z</time></trkpt><trkpt lat="44.80949090269073" lon="8.47619186232324"><ele>167.60000000000002</ele><time>2026-05-02T10:18:48Z</time></trkpt><trkpt lat="44.80953450279036" lon="8.476056927296352"><ele>169.2</ele><time>2026-05-02T10:18:49Z</time></trkpt><trkpt lat="44.80960466008967" lon="8.475937620870399"><ele>170.8</ele><time>2026-05-02T10:18:50Z</time></trkpt><trkpt lat="44.809692372066564" lon="8.475859383597388"><ele>172.39999999999998</ele><time>2026-05-02T10:18:51Z</time></trkpt><trkpt lat="44.809781236672045" lon="8.47577653593681"><ele>174.0</ele><time>2026-05-02T10:18:52Z</time></trkpt><trkpt lat="44.8098884041624" lon="8.47568519666013"><ele>174.0</ele><time>2026-05-02T10:18:53Z</time></trkpt><trkpt lat="44.809998007883536" lon="8.475595934058978"><ele>174.0</ele><time>2026-05-02T10:18:54Z</time></trkpt><trkpt lat="44.810104861595484" lon="8.475490767925097"><ele>174.0</ele><time>2026-05-02T10:18:55Z</time></trkpt><trkpt lat="44.810211811998116" lon="8.475378304818108"><ele>174.0</ele><time>2026-05-02T10:18:56Z</time></trkpt><trkpt lat="44.810326131361386" lon="8.47526553863993"><ele>174.39999999999998</ele><time>2026-05-02T10:18:57Z</time></trkpt><trkpt lat="44.810431162596736" lon="8.475155805696772"><ele>174.8</ele><time>2026-05-02T10:18:58Z</time></trkpt><trkpt lat="44.810513025757054" lon="8.475071355152206"><ele>175.2</ele><time>2026-05-02T10:18:59Z</time></trkpt><trkpt lat="44.81057346252516" lon="8.475016055684689"><ele>175.60000000000002</ele><time>2026-05-02T10:19:00Z</time></trkpt><trkpt lat="44.81067983586135" lon="8.474919839120986"><ele>176.0</ele><time>2026-05-02T10:19:02Z</time></trkpt><trkpt lat="44.81075902170326" lon="8.474836132581027"><ele>176.0</ele><time>2026-05-02T10:19:03Z</time></trkpt><trkpt lat="44.810844536756115" lon="8.474719551167324"><ele>176.0</ele><time>2026-05-02T10:19:04Z</time></trkpt><trkpt lat="44.81093878895023" lon="8.474577531611194"><ele>176.0</ele><time>2026-05-02T10:19:05Z</time></trkpt><trkpt lat="44.81104617977762" lon="8.474445363150744"><ele>176.0</ele><time>2026-05-02T10:19:06Z</time></trkpt><trkpt lat="44.811169748037734" lon="8.474317505047976"><ele>174.66666666666666</ele><time>2026-05-02T10:19:07Z</time></trkpt><trkpt lat="44.81129332362763" lon="8.474180343143573"><ele>173.33333333333334</ele><time>2026-05-02T10:19:08Z</time></trkpt><trkpt lat="44.81141941655195" lon="8.474035540383307"><ele>172.0</ele><time>2026-05-02T10:19:09Z</time></trkpt><trkpt lat="44.81153060602726" lon="8.473890852344777"><ele>171.0</ele><time>2026-05-02T10:19:10Z</time></trkpt><trkpt lat="44.81163675955206" lon="8.47376412825709"><ele>170.0</ele><time>2026-05-02T10:19:11Z</time></trkpt><trkpt lat="44.811740207822965" lon="8.473655573968408"><ele>169.0</ele><time>2026-05-02T10:19:12Z</time></trkpt><trkpt lat="44.811849295941634" lon="8.47352755235053"><ele>168.0</ele><time>2026-05-02T10:19:13Z</time></trkpt><trkpt lat="44.81195911487489" lon="8.473403415761123"><ele>167.5</ele><time>2026-05-02T10:19:14Z</time></trkpt><trkpt lat="44.81205151203424" lon="8.473288271409146"><ele>167.0</ele><time>2026-05-02T10:19:15Z</time></trkpt><trkpt lat="44.81215126721018" lon="8.473164646015126"><ele>166.5</ele><time>2026-05-02T10:19:16Z</time></trkpt><trkpt lat="44.81227696472743" lon="8.473024841400026"><ele>166.0</ele><time>2026-05-02T10:19:17Z</time></trkpt><trkpt lat="44.812382305557605" lon="8.472901554890246"><ele>164.75</ele><time>2026-05-02T10:19:18Z</time></trkpt><trkpt lat="44.81248362508743" lon="8.472762166205191"><ele>163.5</ele><time>2026-05-02T10:19:19Z</time></trkpt><trkpt lat="44.812596844235834" lon="8.472647761711682"><ele>162.25</ele><time>2026-05-02T10:19:20Z</time></trkpt><trkpt lat="44.812724802058085" lon="8.472537972395681"><ele>161.0</ele><time>2026-05-02T10:19:21Z</time></trkpt><trkpt lat="44.812838666107595" lon="8.47244152011345"><ele>161.0</ele><time>2026-05-02T10:19:22Z</time></trkpt><trkpt lat="44.81297988048273" lon="8.472338333547533"><ele>161.0</ele><time>2026-05-02T10:19:23Z</time></trkpt><trkpt lat="44.81310826794828" lon="8.472229160189157"><ele>161.0</ele><time>2026-05-02T10:19:24Z</time></trkpt><trkpt lat="44.81323949473779" lon="8.47212607689559"><ele>162.0</ele><time>2026-05-02T10:19:25Z</time></trkpt><trkpt lat="44.81336929445873" lon="8.47202042381688"><ele>163.0</ele><time>2026-05-02T10:19:26Z</time></trkpt><trkpt lat="44.81349264242029" lon="8.471916334086139"><ele>164.0</ele><time>2026-05-02T10:19:27Z</time></trkpt><trkpt lat="44.81361996510052" lon="8.471821875934772"><ele>165.0</ele><time>2026-05-02T10:19:28Z</time></trkpt><trkpt lat="44.8137354886551" lon="8.471716918789978"><ele>165.75</ele><time>2026-05-02T10:19:29Z</time></trkpt><trkpt lat="44.813842529332874" lon="8.471602403167584"><ele>166.5</ele><time>2026-05-02T10:19:30.001Z</time></trkpt><trkpt lat="44.8139417344619" lon="8.47147311347263"><ele>167.25</ele><time>2026-05-02T10:19:31.001Z</time></trkpt><trkpt lat="44.81400675274234" lon="8.471327380141052"><ele>168.0</ele><time>2026-05-02T10:19:32.001Z</time></trkpt><trkpt lat="44.8140565275907" lon="8.471161090409968"><ele>168.25</ele><time>2026-05-02T10:19:33.001Z</time></trkpt><trkpt lat="44.814115660907454" lon="8.47100359248914"><ele>168.5</ele><time>2026-05-02T10:19:34.001Z</time></trkpt><trkpt lat="44.81415317240132" lon="8.47083259292223"><ele>168.75</ele><time>2026-05-02T10:19:35.001Z</time></trkpt><trkpt lat="44.81419180752153" lon="8.470650947017521"><ele>169.0</ele><time>2026-05-02T10:19:36.001Z</time></trkpt><trkpt lat="44.814239082181686" lon="8.470473454632769"><ele>169.5</ele><time>2026-05-02T10:19:37.001Z</time></trkpt><trkpt lat="44.814286100332914" lon="8.470297223283112"><ele>170.0</ele><time>2026-05-02T10:19:38.001Z</time></trkpt><trkpt lat="44.8143339662047" lon="8.470117107574671"><ele>170.5</ele><time>2026-05-02T10:19:39.001Z</time></trkpt><trkpt lat="44.814385643204204" lon="8.469938711175844"><ele>171.0</ele><time>2026-05-02T10:19:40.001Z</time></trkpt><trkpt lat="44.81443616911833" lon="8.469750088874967"><ele>172.0</ele><time>2026-05-02T10:19:41.001Z</time></trkpt><trkpt lat="44.81449617498902" lon="8.469583237936746"><ele>173.0</ele><time>2026-05-02T10:19:42.001Z</time></trkpt><trkpt lat="44.81456044972741" lon="8.469405148116534"><ele>174.0</ele><time>2026-05-02T10:19:43.001Z</time></trkpt><trkpt lat="44.8145994952699" lon="8.469229069887156"><ele>175.0</ele><time>2026-05-02T10:19:44.001Z</time></trkpt><trkpt lat="44.8146376460286" lon="8.469074881367861"><ele>175.0</ele><time>2026-05-02T10:19:45.001Z</time></trkpt><trkpt lat="44.81470800474438" lon="8.468932597806944"><ele>175.0</ele><time>2026-05-02T10:19:46Z</time></trkpt><trkpt lat="44.81479113200733" lon="8.468795238726965"><ele>175.0</ele><time>2026-05-02T10:19:47Z</time></trkpt><trkpt lat="44.81487104930118" lon="8.468645535646449"><ele>175.0</ele><time>2026-05-02T10:19:48Z</time></trkpt><trkpt lat="44.814945022343515" lon="8.468485770781623"><ele>174.75</ele><time>2026-05-02T10:19:49Z</time></trkpt><trkpt lat="44.81501824711816" lon="8.468330091486793"><ele>174.5</ele><time>2026-05-02T10:19:50Z</time></trkpt><trkpt lat="44.815093323249236" lon="8.468177552028232"><ele>174.25</ele><time>2026-05-02T10:19:51Z</time></trkpt><trkpt lat="44.81517289320402" lon="8.468037667447717"><ele>174.0</ele><time>2026-05-02T10:19:52Z</time></trkpt><trkpt lat="44.815250617673044" lon="8.467921612800449"><ele>173.0</ele><time>2026-05-02T10:19:53Z</time></trkpt><trkpt lat="44.81534846822462" lon="8.46784323245225"><ele>172.0</ele><time>2026-05-02T10:19:54Z</time></trkpt><trkpt lat="44.81546351761027" lon="8.46777807966338"><ele>171.0</ele><time>2026-05-02T10:19:55Z</time></trkpt><trkpt lat="44.81558970443012" lon="8.467719349085083"><ele>170.0</ele><time>2026-05-02T10:19:56Z</time></trkpt><trkpt lat="44.81571940146559" lon="8.467653451468053"><ele>170.0</ele><time>2026-05-02T10:19:57Z</time></trkpt><trkpt lat="44.81585060507903" lon="8.467564921864426"><ele>170.0</ele><time>2026-05-02T10:19:58Z</time></trkpt><trkpt lat="44.815980970992314" lon="8.467474766539782"><ele>170.0</ele><time>2026-05-02T10:19:59Z</time></trkpt><trkpt lat="44.81610613826719" lon="8.467382026880943"><ele>170.0</ele><time>2026-05-02T10:20:00Z</time></trkpt><trkpt lat="44.81622584471493" lon="8.467289034991575"><ele>170.5</ele><time>2026-05-02T10:20:01Z</time></trkpt><trkpt lat="44.816339407682584" lon="8.467197448841164"><ele>171.0</ele><time>2026-05-02T10:20:02Z</time></trkpt><trkpt lat="44.816449849157834" lon="8.467111085213922"><ele>171.5</ele><time>2026-05-02T10:20:03Z</time></trkpt><trkpt lat="44.81653926273423" lon="8.467025355633385"><ele>172.0</ele><time>2026-05-02T10:20:04Z</time></trkpt><trkpt lat="44.81662899443474" lon="8.46694966080992"><ele>172.16666666666669</ele><time>2026-05-02T10:20:05Z</time></trkpt><trkpt lat="44.81671736367462" lon="8.466887977134737"><ele>172.33333333333334</ele><time>2026-05-02T10:20:06Z</time></trkpt><trkpt lat="44.816791548988036" lon="8.466835264028461"><ele>172.5</ele><time>2026-05-02T10:20:07Z</time></trkpt><trkpt lat="44.8168671152143" lon="8.46678045162905"><ele>172.66666666666666</ele><time>2026-05-02T10:20:09Z</time></trkpt><trkpt lat="44.81685690601186" lon="8.466685388464544"><ele>172.83333333333331</ele><time>2026-05-02T10:20:11Z</time></trkpt><trkpt lat="44.81680466219451" lon="8.466601409643829"><ele>173.0</ele><time>2026-05-02T10:20:12Z</time></trkpt><trkpt lat="44.81673013232496" lon="8.466552905393199"><ele>173.0</ele><time>2026-05-02T10:20:13Z</time></trkpt><trkpt lat="44.816653476467685" lon="8.466494367697399"><ele>173.0</ele><time>2026-05-02T10:20:14Z</time></trkpt><trkpt lat="44.81657823699598" lon="8.466445236229198"><ele>173.0</ele><time>2026-05-02T10:20:15Z</time></trkpt><trkpt lat="44.816521749663764" lon="8.466352812577345"><ele>173.0</ele><time>2026-05-02T10:20:17Z</time></trkpt><trkpt lat="44.81657209590287" lon="8.46616776118559"><ele>173.0</ele><time>2026-05-02T10:20:19Z</time></trkpt><trkpt lat="44.81661121177522" lon="8.46605481865791"><ele>173.0</ele><time>2026-05-02T10:20:20Z</time></trkpt><trkpt lat="44.81665629460749" lon="8.46591295532633"><ele>173.0</ele><time>2026-05-02T10:20:21Z</time></trkpt><trkpt lat="44.81668946154139" lon="8.465771435081306"><ele>173.0</ele><time>2026-05-02T10:20:22Z</time></trkpt><trkpt lat="44.8167189366129" lon="8.465644314861022"><ele>173.0</ele><time>2026-05-02T10:20:23Z</time></trkpt><trkpt lat="44.816756908221414" lon="8.4655288195508"><ele>173.0</ele><time>2026-05-02T10:20:24Z</time></trkpt><trkpt lat="44.81677287942971" lon="8.46540015954001"><ele>172.66666666666666</ele><time>2026-05-02T10:20:25Z</time></trkpt><trkpt lat="44.816811035472725" lon="8.465268249038292"><ele>172.33333333333331</ele><time>2026-05-02T10:20:26Z</time></trkpt><trkpt lat="44.81682753208288" lon="8.465181433442154"><ele>172.0</ele><time>2026-05-02T10:20:27Z</time></trkpt><trkpt lat="44.816877040658774" lon="8.465093920381566"><ele>171.66666666666666</ele><time>2026-05-02T10:20:28Z</time></trkpt><trkpt lat="44.8169602323389" lon="8.465009592738324"><ele>171.33333333333334</ele><time>2026-05-02T10:20:29Z</time></trkpt><trkpt lat="44.81704764900419" lon="8.464942500282232"><ele>171.0</ele><time>2026-05-02T10:20:30Z</time></trkpt><trkpt lat="44.81713740153475" lon="8.464869989930081"><ele>169.8</ele><time>2026-05-02T10:20:31Z</time></trkpt><trkpt lat="44.817211833500586" lon="8.464790441941616"><ele>168.60000000000002</ele><time>2026-05-02T10:20:32Z</time></trkpt><trkpt lat="44.8172894994713" lon="8.464716257530538"><ele>167.4</ele><time>2026-05-02T10:20:33Z</time></trkpt><trkpt lat="44.81737583273633" lon="8.464614863045632"><ele>166.2</ele><time>2026-05-02T10:20:34Z</time></trkpt><trkpt lat="44.81744758394164" lon="8.464518513509637"><ele>165.0</ele><time>2026-05-02T10:20:35Z</time></trkpt><trkpt lat="44.817510579140226" lon="8.464428428708802"><ele>163.33333333333334</ele><time>2026-05-02T10:20:36Z</time></trkpt><trkpt lat="44.81756804848427" lon="8.46434099929999"><ele>161.66666666666666</ele><time>2026-05-02T10:20:37Z</time></trkpt><trkpt lat="44.81764051580091" lon="8.46426966267154"><ele>160.0</ele><time>2026-05-02T10:20:38Z</time></trkpt><trkpt lat="44.8177141036692" lon="8.464207162539923"><ele>158.33333333333331</ele><time>2026-05-02T10:20:39Z</time></trkpt><trkpt lat="44.817758107073324" lon="8.464139088363332"><ele>156.66666666666666</ele><time>2026-05-02T10:20:40Z</time></trkpt><trkpt lat="44.817825079957245" lon="8.464070369555861"><ele>155.0</ele><time>2026-05-02T10:20:41Z</time></trkpt><trkpt lat="44.81790115994016" lon="8.464001287018185"><ele>152.16666666666666</ele><time>2026-05-02T10:20:42Z</time></trkpt><trkpt lat="44.817977370134614" lon="8.463931771551344"><ele>149.33333333333331</ele><time>2026-05-02T10:20:43Z</time></trkpt><trkpt lat="44.818043743308856" lon="8.463861180740535"><ele>146.5</ele><time>2026-05-02T10:20:44Z</time></trkpt><trkpt lat="44.81811007628266" lon="8.463788005941039"><ele>143.66666666666666</ele><time>2026-05-02T10:20:45Z</time></trkpt><trkpt lat="44.818175383418954" lon="8.463706479364962"><ele>140.83333333333334</ele><time>2026-05-02T10:20:46Z</time></trkpt><trkpt lat="44.818260820004" lon="8.463653385597175"><ele>138.0</ele><time>2026-05-02T10:20:47Z</time></trkpt><trkpt lat="44.8183227914042" lon="8.463592439673945"><ele>136.33333333333334</ele><time>2026-05-02T10:20:48Z</time></trkpt><trkpt lat="44.81837882403708" lon="8.46354666257138"><ele>134.66666666666666</ele><time>2026-05-02T10:20:49Z</time></trkpt><trkpt lat="44.81847571905445" lon="8.463492918713472"><ele>133.0</ele><time>2026-05-02T10:20:51Z</time></trkpt><trkpt lat="44.818558134905366" lon="8.46345112505585"><ele>131.33333333333331</ele><time>2026-05-02T10:20:52Z</time></trkpt><trkpt lat="44.81862913688173" lon="8.463383070791755"><ele>129.66666666666666</ele><time>2026-05-02T10:20:53Z</time></trkpt><trkpt lat="44.81868234729913" lon="8.463263217804284"><ele>128.0</ele><time>2026-05-02T10:20:54Z</time></trkpt><trkpt lat="44.81874396167427" lon="8.463134938047974"><ele>126.0</ele><time>2026-05-02T10:20:55Z</time></trkpt><trkpt lat="44.81883657503037" lon="8.463021163217423"><ele>124.0</ele><time>2026-05-02T10:20:56Z</time></trkpt><trkpt lat="44.81894377787981" lon="8.46292612272276"><ele>122.0</ele><time>2026-05-02T10:20:57Z</time></trkpt><trkpt lat="44.8190659401893" lon="8.462852226755016"><ele>120.0</ele><time>2026-05-02T10:20:58Z</time></trkpt><trkpt lat="44.81918424302972" lon="8.462757596977081"><ele>119.5</ele><time>2026-05-02T10:20:59Z</time></trkpt><trkpt lat="44.81930122202609" lon="8.462651099354037"><ele>119.0</ele><time>2026-05-02T10:21:00Z</time></trkpt><trkpt lat="44.819427335854776" lon="8.462547695930725"><ele>118.5</ele><time>2026-05-02T10:21:01Z</time></trkpt><trkpt lat="44.819552427875365" lon="8.462436784465217"><ele>118.0</ele><time>2026-05-02T10:21:02Z</time></trkpt><trkpt lat="44.8196840700686" lon="8.46232362495817"><ele>117.25</ele><time>2026-05-02T10:21:03Z</time></trkpt><trkpt lat="44.81981693424196" lon="8.462235238680043"><ele>116.5</ele><time>2026-05-02T10:21:04Z</time></trkpt><trkpt lat="44.81994312825825" lon="8.462128769907928"><ele>115.75</ele><time>2026-05-02T10:21:05Z</time></trkpt><trkpt lat="44.82006428630019" lon="8.462023863296062"><ele>115.0</ele><time>2026-05-02T10:21:06Z</time></trkpt><trkpt lat="44.82018617773041" lon="8.461917702702587"><ele>115.0</ele><time>2026-05-02T10:21:07Z</time></trkpt><trkpt lat="44.820306470013186" lon="8.461811859818418"><ele>115.0</ele><time>2026-05-02T10:21:08Z</time></trkpt><trkpt lat="44.82043122717065" lon="8.461703683948338"><ele>115.0</ele><time>2026-05-02T10:21:09Z</time></trkpt><trkpt lat="44.82055097948339" lon="8.461601007126344"><ele>115.0</ele><time>2026-05-02T10:21:10Z</time></trkpt><trkpt lat="44.820664596810545" lon="8.461504797010955"><ele>115.0</ele><time>2026-05-02T10:21:11Z</time></trkpt><trkpt lat="44.8207934762056" lon="8.46139715430447"><ele>115.0</ele><time>2026-05-02T10:21:12Z</time></trkpt><trkpt lat="44.82090947007885" lon="8.46130055533139"><ele>115.0</ele><time>2026-05-02T10:21:13Z</time></trkpt><trkpt lat="44.8210289870309" lon="8.461201022362475"><ele>115.0</ele><time>2026-05-02T10:21:14Z</time></trkpt><trkpt lat="44.82114171540697" lon="8.461082054285324"><ele>114.0</ele><time>2026-05-02T10:21:15Z</time></trkpt><trkpt lat="44.82127318568356" lon="8.4609940421505"><ele>113.0</ele><time>2026-05-02T10:21:16Z</time></trkpt><trkpt lat="44.82139367589603" lon="8.460893894187528"><ele>112.0</ele><time>2026-05-02T10:21:17Z</time></trkpt><trkpt lat="44.821509247201845" lon="8.460791085572172"><ele>111.0</ele><time>2026-05-02T10:21:18Z</time></trkpt><trkpt lat="44.82163663149303" lon="8.460688994747496"><ele>111.0</ele><time>2026-05-02T10:21:19Z</time></trkpt><trkpt lat="44.821763148049364" lon="8.46058106633851"><ele>111.0</ele><time>2026-05-02T10:21:20Z</time></trkpt><trkpt lat="44.82189863200883" lon="8.460488998743875"><ele>111.0</ele><time>2026-05-02T10:21:21Z</time></trkpt><trkpt lat="44.8220204097393" lon="8.460403688871018"><ele>111.0</ele><time>2026-05-02T10:21:22Z</time></trkpt><trkpt lat="44.82215296190021" lon="8.460310198660762"><ele>110.75</ele><time>2026-05-02T10:21:23Z</time></trkpt><trkpt lat="44.822273647155036" lon="8.46021851980972"><ele>110.5</ele><time>2026-05-02T10:21:24Z</time></trkpt><trkpt lat="44.8224007254499" lon="8.460120059919877"><ele>110.25</ele><time>2026-05-02T10:21:25Z</time></trkpt><trkpt lat="44.82252983769038" lon="8.460023780046694"><ele>110.0</ele><time>2026-05-02T10:21:26Z</time></trkpt><trkpt lat="44.82265821432322" lon="8.45993047700827"><ele>109.5</ele><time>2026-05-02T10:21:27Z</time></trkpt><trkpt lat="44.822790658278" lon="8.459840643647796"><ele>109.0</ele><time>2026-05-02T10:21:28Z</time></trkpt><trkpt lat="44.822920609961585" lon="8.45974961246636"><ele>108.5</ele><time>2026-05-02T10:21:29Z</time></trkpt><trkpt lat="44.823052208546066" lon="8.459657168580016"><ele>108.0</ele><time>2026-05-02T10:21:30Z</time></trkpt><trkpt lat="44.82318068897249" lon="8.459559309276504"><ele>108.5</ele><time>2026-05-02T10:21:31Z</time></trkpt><trkpt lat="44.82331022650832" lon="8.459461126057558"><ele>109.0</ele><time>2026-05-02T10:21:32Z</time></trkpt><trkpt lat="44.8234343387139" lon="8.459365737509112"><ele>109.5</ele><time>2026-05-02T10:21:33Z</time></trkpt><trkpt lat="44.82356411637072" lon="8.459267665633364"><ele>110.0</ele><time>2026-05-02T10:21:34Z</time></trkpt><trkpt lat="44.823694951098965" lon="8.459174026250764"><ele>110.0</ele><time>2026-05-02T10:21:35Z</time></trkpt><trkpt lat="44.823819341170086" lon="8.459081567242942"><ele>110.0</ele><time>2026-05-02T10:21:36Z</time></trkpt><trkpt lat="44.823953387755815" lon="8.45898697429293"><ele>110.0</ele><time>2026-05-02T10:21:37Z</time></trkpt><trkpt lat="44.824082522225986" lon="8.458890173552563"><ele>110.0</ele><time>2026-05-02T10:21:38Z</time></trkpt><trkpt lat="44.824210107658146" lon="8.45879450743868"><ele>109.75</ele><time>2026-05-02T10:21:39Z</time></trkpt><trkpt lat="44.824336064235865" lon="8.458702210661606"><ele>109.5</ele><time>2026-05-02T10:21:40.001Z</time></trkpt><trkpt lat="44.82446349524139" lon="8.45861022576725"><ele>109.25</ele><time>2026-05-02T10:21:41.001Z</time></trkpt><trkpt lat="44.82459332658718" lon="8.458522551020868"><ele>109.0</ele><time>2026-05-02T10:21:42.001Z</time></trkpt><trkpt lat="44.82472327693745" lon="8.458445951114353"><ele>109.0</ele><time>2026-05-02T10:21:43.001Z</time></trkpt><trkpt lat="44.82484686370294" lon="8.458381103891245"><ele>109.0</ele><time>2026-05-02T10:21:44.001Z</time></trkpt><trkpt lat="44.8249741290853" lon="8.458359738796625"><ele>109.0</ele><time>2026-05-02T10:21:45.001Z</time></trkpt><trkpt lat="44.825091298778545" lon="8.458333720625069"><ele>109.0</ele><time>2026-05-02T10:21:46.001Z</time></trkpt><trkpt lat="44.8252002749916" lon="8.458320955868311"><ele>109.2</ele><time>2026-05-02T10:21:47.001Z</time></trkpt><trkpt lat="44.82528821604097" lon="8.458298074204489"><ele>109.4</ele><time>2026-05-02T10:21:48.001Z</time></trkpt><trkpt lat="44.825384421417006" lon="8.458295934384083"><ele>109.6</ele><time>2026-05-02T10:21:49.001Z</time></trkpt><trkpt lat="44.82548725706659" lon="8.458284740362775"><ele>109.8</ele><time>2026-05-02T10:21:50.001Z</time></trkpt><trkpt lat="44.82559188484973" lon="8.458269688619687"><ele>110.0</ele><time>2026-05-02T10:21:51.001Z</time></trkpt><trkpt lat="44.82568595458772" lon="8.458276276981366"><ele>110.0</ele><time>2026-05-02T10:21:52Z</time></trkpt><trkpt lat="44.82578702770931" lon="8.458262111557591"><ele>110.0</ele><time>2026-05-02T10:21:53Z</time></trkpt><trkpt lat="44.82589115848282" lon="8.45823958605312"><ele>110.0</ele><time>2026-05-02T10:21:54Z</time></trkpt><trkpt lat="44.825994770050606" lon="8.458197588986636"><ele>110.0</ele><time>2026-05-02T10:21:55Z</time></trkpt><trkpt lat="44.82610804825859" lon="8.458172744730772"><ele>110.0</ele><time>2026-05-02T10:21:56Z</time></trkpt><trkpt lat="44.8262156268871" lon="8.458124564601412"><ele>110.75</ele><time>2026-05-02T10:21:57Z</time></trkpt><trkpt lat="44.826320912053696" lon="8.458054966660976"><ele>111.5</ele><time>2026-05-02T10:21:58Z</time></trkpt><trkpt lat="44.8264170447513" lon="8.457972707431429"><ele>112.25</ele><time>2026-05-02T10:21:59Z</time></trkpt><trkpt lat="44.826500321952565" lon="8.457865407222224"><ele>113.0</ele><time>2026-05-02T10:22:00Z</time></trkpt><trkpt lat="44.82655583855699" lon="8.457730568825722"><ele>114.80000000000001</ele><time>2026-05-02T10:22:01Z</time></trkpt><trkpt lat="44.826579802969604" lon="8.457573514235882"><ele>116.60000000000001</ele><time>2026-05-02T10:22:02Z</time></trkpt><trkpt lat="44.82656815856067" lon="8.45741551264419"><ele>118.39999999999999</ele><time>2026-05-02T10:22:03Z</time></trkpt><trkpt lat="44.82655249998527" lon="8.4572694415943"><ele>120.19999999999999</ele><time>2026-05-02T10:22:04Z</time></trkpt><trkpt lat="44.826547962190524" lon="8.457150823394297"><ele>122.0</ele><time>2026-05-02T10:22:05Z</time></trkpt><trkpt lat="44.82657132274882" lon="8.457049514183055"><ele>122.66666666666666</ele><time>2026-05-02T10:22:06Z</time></trkpt><trkpt lat="44.826631586742465" lon="8.456971501866244"><ele>123.33333333333333</ele><time>2026-05-02T10:22:07Z</time></trkpt><trkpt lat="44.82671113580533" lon="8.456917279395102"><ele>124.0</ele><time>2026-05-02T10:22:08Z</time></trkpt><trkpt lat="44.826778504408445" lon="8.456843781137634"><ele>124.66666666666666</ele><time>2026-05-02T10:22:09Z</time></trkpt><trkpt lat="44.82683555418641" lon="8.45672462754812"><ele>125.33333333333333</ele><time>2026-05-02T10:22:10Z</time></trkpt><trkpt lat="44.82688552222738" lon="8.456615612946736"><ele>126.0</ele><time>2026-05-02T10:22:11Z</time></trkpt><trkpt lat="44.826933519254695" lon="8.456508083105179"><ele>126.33333333333333</ele><time>2026-05-02T10:22:12Z</time></trkpt><trkpt lat="44.82698697794193" lon="8.456403097798129"><ele>126.66666666666666</ele><time>2026-05-02T10:22:13Z</time></trkpt><trkpt lat="44.82702984261144" lon="8.456318003286716"><ele>127.0</ele><time>2026-05-02T10:22:14Z</time></trkpt><trkpt lat="44.82707119254649" lon="8.456216547164772"><ele>127.33333333333333</ele><time>2026-05-02T10:22:15Z</time></trkpt><trkpt lat="44.827116559757144" lon="8.456116616987156"><ele>127.66666666666666</ele><time>2026-05-02T10:22:16Z</time></trkpt><trkpt lat="44.82717059916014" lon="8.456040526290073"><ele>128.0</ele><time>2026-05-02T10:22:17Z</time></trkpt><trkpt lat="44.82721594439181" lon="8.455946021159855"><ele>128.0</ele><time>2026-05-02T10:22:18Z</time></trkpt><trkpt lat="44.827241546643336" lon="8.455839913816286"><ele>128.0</ele><time>2026-05-02T10:22:19Z</time></trkpt><trkpt lat="44.827294589079806" lon="8.45573031033031"><ele>128.0</ele><time>2026-05-02T10:22:20Z</time></trkpt><trkpt lat="44.82730459988898" lon="8.455598313228586"><ele>128.0</ele><time>2026-05-02T10:22:21Z</time></trkpt><trkpt lat="44.82731580900565" lon="8.455466154172962"><ele>128.0</ele><time>2026-05-02T10:22:22Z</time></trkpt><trkpt lat="44.827328066392425" lon="8.455330341775946"><ele>127.66666666666666</ele><time>2026-05-02T10:22:23Z</time></trkpt><trkpt lat="44.82733774183943" lon="8.45522331778279"><ele>127.33333333333333</ele><time>2026-05-02T10:22:24Z</time></trkpt><trkpt lat="44.82733943867151" lon="8.455094119711676"><ele>127.0</ele><time>2026-05-02T10:22:26Z</time></trkpt><trkpt lat="44.82735920348403" lon="8.454976761437084"><ele>126.66666666666666</ele><time>2026-05-02T10:22:27Z</time></trkpt><trkpt lat="44.82739316541856" lon="8.454863610186914"><ele>126.33333333333333</ele><time>2026-05-02T10:22:28Z</time></trkpt><trkpt lat="44.8274483420164" lon="8.454743961093477"><ele>126.0</ele><time>2026-05-02T10:22:29Z</time></trkpt><trkpt lat="44.82752577053482" lon="8.454658914954313"><ele>126.0</ele><time>2026-05-02T10:22:30Z</time></trkpt><trkpt lat="44.82761722903003" lon="8.454628101198507"><ele>126.0</ele><time>2026-05-02T10:22:31Z</time></trkpt><trkpt lat="44.82771841599192" lon="8.454604226980347"><ele>126.0</ele><time>2026-05-02T10:22:32Z</time></trkpt><trkpt lat="44.82782266648515" lon="8.45457287407307"><ele>126.0</ele><time>2026-05-02T10:22:33Z</time></trkpt><trkpt lat="44.827918135907524" lon="8.454547845958675"><ele>126.0</ele><time>2026-05-02T10:22:34Z</time></trkpt><trkpt lat="44.82803391676947" lon="8.45452620616364"><ele>126.4</ele><time>2026-05-02T10:22:35Z</time></trkpt><trkpt lat="44.8281369686528" lon="8.454481263581686"><ele>126.8</ele><time>2026-05-02T10:22:36Z</time></trkpt><trkpt lat="44.82824815860637" lon="8.45445488500168"><ele>127.20000000000002</ele><time>2026-05-02T10:22:37Z</time></trkpt><trkpt lat="44.828344735102846" lon="8.454423980547812"><ele>127.60000000000001</ele><time>2026-05-02T10:22:38Z</time></trkpt><trkpt lat="44.82842443939141" lon="8.454398475132042"><ele>128.0</ele><time>2026-05-02T10:22:39Z</time></trkpt><trkpt lat="44.82851896175541" lon="8.454377479410423"><ele>128.20000000000002</ele><time>2026-05-02T10:22:40Z</time></trkpt><trkpt lat="44.82860045404197" lon="8.45435293824353"><ele>128.4</ele><time>2026-05-02T10:22:41Z</time></trkpt><trkpt lat="44.82870360561929" lon="8.454325374129736"><ele>128.60000000000002</ele><time>2026-05-02T10:22:42Z</time></trkpt><trkpt lat="44.82880613098863" lon="8.454294644374828"><ele>128.8</ele><time>2026-05-02T10:22:43Z</time></trkpt><trkpt lat="44.828904667591786" lon="8.454263957463485"><ele>129.0</ele><time>2026-05-02T10:22:44Z</time></trkpt><trkpt lat="44.82900725777543" lon="8.454240068438656"><ele>129.0</ele><time>2026-05-02T10:22:45Z</time></trkpt><trkpt lat="44.82911294318603" lon="8.454228872591376"><ele>129.0</ele><time>2026-05-02T10:22:46Z</time></trkpt><trkpt lat="44.82921729947558" lon="8.454216854542445"><ele>129.0</ele><time>2026-05-02T10:22:47Z</time></trkpt><trkpt lat="44.829324245973694" lon="8.454209591849505"><ele>129.0</ele><time>2026-05-02T10:22:48Z</time></trkpt><trkpt lat="44.82942826992599" lon="8.454215437045498"><ele>129.0</ele><time>2026-05-02T10:22:49Z</time></trkpt><trkpt lat="44.829515028728125" lon="8.454230530449959"><ele>129.2</ele><time>2026-05-02T10:22:50Z</time></trkpt><trkpt lat="44.829607694381544" lon="8.454229016630444"><ele>129.4</ele><time>2026-05-02T10:22:51Z</time></trkpt><trkpt lat="44.8297160745081" lon="8.45424544798722"><ele>129.6</ele><time>2026-05-02T10:22:52Z</time></trkpt><trkpt lat="44.82978256400758" lon="8.454251951334705"><ele>129.8</ele><time>2026-05-02T10:22:54Z</time></trkpt><trkpt lat="44.82984742120531" lon="8.454270663321791"><ele>130.0</ele><time>2026-05-02T10:22:57Z</time></trkpt><trkpt lat="44.82997560907245" lon="8.454259192963047"><ele>130.0</ele><time>2026-05-02T10:22:59Z</time></trkpt><trkpt lat="44.83006558168165" lon="8.454280234793973"><ele>130.0</ele><time>2026-05-02T10:23:01Z</time></trkpt><trkpt lat="44.83007516615647" lon="8.454467738103087"><ele>130.0</ele><time>2026-05-02T10:23:05Z</time></trkpt><trkpt lat="44.83005875260782" lon="8.454597605537822"><ele>130.0</ele><time>2026-05-02T10:23:06Z</time></trkpt><trkpt lat="44.83005399433446" lon="8.454762471212927"><ele>130.0</ele><time>2026-05-02T10:23:07Z</time></trkpt><trkpt lat="44.830048699088444" lon="8.454966351016605"><ele>129.6</ele><time>2026-05-02T10:23:08Z</time></trkpt><trkpt lat="44.83002993982303" lon="8.455139996646693"><ele>129.2</ele><time>2026-05-02T10:23:09Z</time></trkpt><trkpt lat="44.830022629324745" lon="8.455285013796177"><ele>128.8</ele><time>2026-05-02T10:23:10Z</time></trkpt><trkpt lat="44.83001398477193" lon="8.455419756521287"><ele>128.4</ele><time>2026-05-02T10:23:11Z</time></trkpt><trkpt lat="44.83000443250258" lon="8.45554903918183"><ele>128.0</ele><time>2026-05-02T10:23:12Z</time></trkpt><trkpt lat="44.83000839418472" lon="8.455646341628155"><ele>125.0</ele><time>2026-05-02T10:23:14Z</time></trkpt><trkpt lat="44.8299805146378" lon="8.455817328327472"><ele>125.0</ele><time>2026-05-02T10:23:16Z</time></trkpt><trkpt lat="44.82998116608871" lon="8.455694642773508"><ele>125.0</ele><time>2026-05-02T10:23:26Z</time></trkpt></trkseg></trk></gpx>